<?xml version="1.0" encoding="UTF-8" standalone="no" ?>
<gpx xmlns="http://www.topografix.com/GPX/1/1" xmlns:xsi="http://www.w3.org/2001/XMLSchema-instance" xsi:schemaLocation="http://www.topografix.com/GPX/1/1 http://www.topografix.com/GPX/1/1/gpx.xsd" version="1.1" creator="VisuGPX - https://www.visugpx.com">
  <metadata>
    <name>SemiDesCôte2020</name>
    <desc><![CDATA[Parcours du semi ds côtes de l'Orbe 2020]]></desc>
  </metadata>
  <trk>
    <name><![CDATA[2010]]></name>
    <trkseg>
      <trkpt lat="46.69491" lon="6.51833">
        <ele>550.5</ele>
        <time>2019-12-25T07:29:46.000Z</time>
      </trkpt>
      <trkpt lat="46.69482" lon="6.51823">
        <ele>550</ele>
        <time>2019-12-25T07:29:48.265Z</time>
      </trkpt>
      <trkpt lat="46.69475" lon="6.51814">
        <ele>550</ele>
        <time>2019-12-25T07:29:50.133Z</time>
      </trkpt>
      <trkpt lat="46.69467" lon="6.51804">
        <ele>549.5</ele>
        <time>2019-12-25T07:29:52.242Z</time>
      </trkpt>
      <trkpt lat="46.69459" lon="6.51796">
        <ele>549.5</ele>
        <time>2019-12-25T07:29:54.184Z</time>
      </trkpt>
      <trkpt lat="46.69451" lon="6.51788">
        <ele>549</ele>
        <time>2019-12-25T07:29:56.126Z</time>
      </trkpt>
      <trkpt lat="46.69443" lon="6.51778">
        <ele>548.6</ele>
        <time>2019-12-25T07:29:58.235Z</time>
      </trkpt>
      <trkpt lat="46.69438" lon="6.51764">
        <ele>548.1</ele>
        <time>2019-12-25T07:30:00.402Z</time>
      </trkpt>
      <trkpt lat="46.69441" lon="6.51747">
        <ele>548.6</ele>
        <time>2019-12-25T07:30:02.812Z</time>
      </trkpt>
      <trkpt lat="46.69445" lon="6.51729">
        <ele>547.6</ele>
        <time>2019-12-25T07:30:05.410Z</time>
      </trkpt>
      <trkpt lat="46.6945" lon="6.51709">
        <ele>548.1</ele>
        <time>2019-12-25T07:30:08.332Z</time>
      </trkpt>
      <trkpt lat="46.69458" lon="6.5169">
        <ele>548.1</ele>
        <time>2019-12-25T07:30:11.393Z</time>
      </trkpt>
      <trkpt lat="46.69467" lon="6.51672">
        <ele>548.6</ele>
        <time>2019-12-25T07:30:14.451Z</time>
      </trkpt>
      <trkpt lat="46.69477" lon="6.51656">
        <ele>548.1</ele>
        <time>2019-12-25T07:30:17.423Z</time>
      </trkpt>
      <trkpt lat="46.69488" lon="6.5164">
        <ele>548.6</ele>
        <time>2019-12-25T07:30:20.533Z</time>
      </trkpt>
      <trkpt lat="46.69497" lon="6.51626">
        <ele>549</ele>
        <time>2019-12-25T07:30:23.167Z</time>
      </trkpt>
      <trkpt lat="46.69507" lon="6.51611">
        <ele>549</ele>
        <time>2019-12-25T07:30:26.039Z</time>
      </trkpt>
      <trkpt lat="46.69516" lon="6.51597">
        <ele>549.5</ele>
        <time>2019-12-25T07:30:28.673Z</time>
      </trkpt>
      <trkpt lat="46.69525" lon="6.51583">
        <ele>549.5</ele>
        <time>2019-12-25T07:30:31.307Z</time>
      </trkpt>
      <trkpt lat="46.69533" lon="6.5157">
        <ele>549.5</ele>
        <time>2019-12-25T07:30:33.705Z</time>
      </trkpt>
      <trkpt lat="46.69541" lon="6.51556">
        <ele>550</ele>
        <time>2019-12-25T07:30:36.207Z</time>
      </trkpt>
      <trkpt lat="46.69548" lon="6.51542">
        <ele>549.5</ele>
        <time>2019-12-25T07:30:38.585Z</time>
      </trkpt>
      <trkpt lat="46.69557" lon="6.51528">
        <ele>550.5</ele>
        <time>2019-12-25T07:30:41.219Z</time>
      </trkpt>
      <trkpt lat="46.69566" lon="6.51529">
        <ele>551</ele>
        <time>2019-12-25T07:30:43.026Z</time>
      </trkpt>
      <trkpt lat="46.69577" lon="6.51541">
        <ele>552.4</ele>
        <time>2019-12-25T07:30:45.776Z</time>
      </trkpt>
      <trkpt lat="46.69589" lon="6.51557">
        <ele>552.9</ele>
        <time>2019-12-25T07:30:49.031Z</time>
      </trkpt>
      <trkpt lat="46.69599" lon="6.5157">
        <ele>554.3</ele>
        <time>2019-12-25T07:30:51.713Z</time>
      </trkpt>
      <trkpt lat="46.6961" lon="6.51569">
        <ele>555.3</ele>
        <time>2019-12-25T07:30:53.919Z</time>
      </trkpt>
      <trkpt lat="46.69618" lon="6.51557">
        <ele>556.3</ele>
        <time>2019-12-25T07:30:56.216Z</time>
      </trkpt>
      <trkpt lat="46.69625" lon="6.51538">
        <ele>557.2</ele>
        <time>2019-12-25T07:30:59.177Z</time>
      </trkpt>
      <trkpt lat="46.6963" lon="6.51526">
        <ele>557.2</ele>
        <time>2019-12-25T07:31:01.104Z</time>
      </trkpt>
      <trkpt lat="46.69635" lon="6.51514">
        <ele>558.2</ele>
        <time>2019-12-25T07:31:03.031Z</time>
      </trkpt>
      <trkpt lat="46.69641" lon="6.51502">
        <ele>559.1</ele>
        <time>2019-12-25T07:31:05.070Z</time>
      </trkpt>
      <trkpt lat="46.69647" lon="6.51489">
        <ele>560.1</ele>
        <time>2019-12-25T07:31:07.221Z</time>
      </trkpt>
      <trkpt lat="46.69653" lon="6.51478">
        <ele>560.6</ele>
        <time>2019-12-25T07:31:09.150Z</time>
      </trkpt>
      <trkpt lat="46.69659" lon="6.51467">
        <ele>560.6</ele>
        <time>2019-12-25T07:31:11.079Z</time>
      </trkpt>
      <trkpt lat="46.69665" lon="6.51456">
        <ele>561.5</ele>
        <time>2019-12-25T07:31:13.008Z</time>
      </trkpt>
      <trkpt lat="46.69672" lon="6.51445">
        <ele>562.5</ele>
        <time>2019-12-25T07:31:15.068Z</time>
      </trkpt>
      <trkpt lat="46.69678" lon="6.51435">
        <ele>562</ele>
        <time>2019-12-25T07:31:16.892Z</time>
      </trkpt>
      <trkpt lat="46.69685" lon="6.51425">
        <ele>563</ele>
        <time>2019-12-25T07:31:18.853Z</time>
      </trkpt>
      <trkpt lat="46.6969" lon="6.51415">
        <ele>562.5</ele>
        <time>2019-12-25T07:31:20.552Z</time>
      </trkpt>
      <trkpt lat="46.69696" lon="6.51404">
        <ele>563</ele>
        <time>2019-12-25T07:31:22.481Z</time>
      </trkpt>
      <trkpt lat="46.69702" lon="6.51393">
        <ele>563.5</ele>
        <time>2019-12-25T07:31:24.410Z</time>
      </trkpt>
      <trkpt lat="46.69708" lon="6.51382">
        <ele>564</ele>
        <time>2019-12-25T07:31:26.339Z</time>
      </trkpt>
      <trkpt lat="46.69714" lon="6.51372">
        <ele>564.4</ele>
        <time>2019-12-25T07:31:28.163Z</time>
      </trkpt>
      <trkpt lat="46.6972" lon="6.51362">
        <ele>564.4</ele>
        <time>2019-12-25T07:31:29.987Z</time>
      </trkpt>
      <trkpt lat="46.69726" lon="6.51351">
        <ele>565.4</ele>
        <time>2019-12-25T07:31:31.916Z</time>
      </trkpt>
      <trkpt lat="46.69732" lon="6.5134">
        <ele>564.9</ele>
        <time>2019-12-25T07:31:33.845Z</time>
      </trkpt>
      <trkpt lat="46.69738" lon="6.51329">
        <ele>565.4</ele>
        <time>2019-12-25T07:31:35.774Z</time>
      </trkpt>
      <trkpt lat="46.69744" lon="6.51318">
        <ele>565.9</ele>
        <time>2019-12-25T07:31:37.703Z</time>
      </trkpt>
      <trkpt lat="46.6975" lon="6.51307">
        <ele>566.3</ele>
        <time>2019-12-25T07:31:39.632Z</time>
      </trkpt>
      <trkpt lat="46.69755" lon="6.51295">
        <ele>566.3</ele>
        <time>2019-12-25T07:31:41.559Z</time>
      </trkpt>
      <trkpt lat="46.6976" lon="6.51282">
        <ele>566.8</ele>
        <time>2019-12-25T07:31:43.605Z</time>
      </trkpt>
      <trkpt lat="46.69765" lon="6.5127">
        <ele>567.3</ele>
        <time>2019-12-25T07:31:45.532Z</time>
      </trkpt>
      <trkpt lat="46.6977" lon="6.51259">
        <ele>567.8</ele>
        <time>2019-12-25T07:31:47.344Z</time>
      </trkpt>
      <trkpt lat="46.6978" lon="6.51239">
        <ele>568.3</ele>
        <time>2019-12-25T07:31:50.742Z</time>
      </trkpt>
      <trkpt lat="46.69791" lon="6.51219">
        <ele>569.2</ele>
        <time>2019-12-25T07:31:54.261Z</time>
      </trkpt>
      <trkpt lat="46.69802" lon="6.51199">
        <ele>568.8</ele>
        <time>2019-12-25T07:31:57.780Z</time>
      </trkpt>
      <trkpt lat="46.69814" lon="6.51179">
        <ele>570.2</ele>
        <time>2019-12-25T07:32:01.428Z</time>
      </trkpt>
      <trkpt lat="46.69825" lon="6.51159">
        <ele>570.7</ele>
        <time>2019-12-25T07:32:04.947Z</time>
      </trkpt>
      <trkpt lat="46.69836" lon="6.51138">
        <ele>571.2</ele>
        <time>2019-12-25T07:32:08.574Z</time>
      </trkpt>
      <trkpt lat="46.69848" lon="6.5112">
        <ele>571.2</ele>
        <time>2019-12-25T07:32:12.020Z</time>
      </trkpt>
      <trkpt lat="46.6986" lon="6.51103">
        <ele>571.6</ele>
        <time>2019-12-25T07:32:15.369Z</time>
      </trkpt>
      <trkpt lat="46.69873" lon="6.51087">
        <ele>573.1</ele>
        <time>2019-12-25T07:32:18.774Z</time>
      </trkpt>
      <trkpt lat="46.69886" lon="6.51073">
        <ele>574</ele>
        <time>2019-12-25T07:32:22.009Z</time>
      </trkpt>
      <trkpt lat="46.69897" lon="6.51058">
        <ele>574</ele>
        <time>2019-12-25T07:32:25.023Z</time>
      </trkpt>
      <trkpt lat="46.69906" lon="6.51042">
        <ele>574.5</ele>
        <time>2019-12-25T07:32:27.864Z</time>
      </trkpt>
      <trkpt lat="46.69915" lon="6.51025">
        <ele>575</ele>
        <time>2019-12-25T07:32:30.812Z</time>
      </trkpt>
      <trkpt lat="46.69925" lon="6.51008">
        <ele>575</ele>
        <time>2019-12-25T07:32:33.886Z</time>
      </trkpt>
      <trkpt lat="46.69934" lon="6.5099">
        <ele>576</ele>
        <time>2019-12-25T07:32:36.944Z</time>
      </trkpt>
      <trkpt lat="46.69945" lon="6.50975">
        <ele>576.5</ele>
        <time>2019-12-25T07:32:39.958Z</time>
      </trkpt>
      <trkpt lat="46.69959" lon="6.50972">
        <ele>576.9</ele>
        <time>2019-12-25T07:32:42.790Z</time>
      </trkpt>
      <trkpt lat="46.69973" lon="6.50981">
        <ele>576.9</ele>
        <time>2019-12-25T07:32:45.852Z</time>
      </trkpt>
      <trkpt lat="46.69989" lon="6.50992">
        <ele>577.9</ele>
        <time>2019-12-25T07:32:49.393Z</time>
      </trkpt>
      <trkpt lat="46.70004" lon="6.51003">
        <ele>577.9</ele>
        <time>2019-12-25T07:32:52.754Z</time>
      </trkpt>
      <trkpt lat="46.7002" lon="6.51013">
        <ele>579.3</ele>
        <time>2019-12-25T07:32:56.238Z</time>
      </trkpt>
      <trkpt lat="46.70036" lon="6.51023">
        <ele>579.8</ele>
        <time>2019-12-25T07:32:59.722Z</time>
      </trkpt>
      <trkpt lat="46.70051" lon="6.51033">
        <ele>580.3</ele>
        <time>2019-12-25T07:33:03.023Z</time>
      </trkpt>
      <trkpt lat="46.70065" lon="6.51041">
        <ele>581.2</ele>
        <time>2019-12-25T07:33:06.033Z</time>
      </trkpt>
      <trkpt lat="46.70078" lon="6.51048">
        <ele>582.2</ele>
        <time>2019-12-25T07:33:08.807Z</time>
      </trkpt>
      <trkpt lat="46.70089" lon="6.51046">
        <ele>583.2</ele>
        <time>2019-12-25T07:33:11.026Z</time>
      </trkpt>
      <trkpt lat="46.70094" lon="6.51035">
        <ele>583.2</ele>
        <time>2019-12-25T07:33:12.837Z</time>
      </trkpt>
      <trkpt lat="46.70097" lon="6.51021">
        <ele>582.2</ele>
        <time>2019-12-25T07:33:14.850Z</time>
      </trkpt>
      <trkpt lat="46.701" lon="6.51004">
        <ele>581.2</ele>
        <time>2019-12-25T07:33:17.260Z</time>
      </trkpt>
      <trkpt lat="46.70105" lon="6.50985">
        <ele>581.7</ele>
        <time>2019-12-25T07:33:20.053Z</time>
      </trkpt>
      <trkpt lat="46.7011" lon="6.50966">
        <ele>582.7</ele>
        <time>2019-12-25T07:33:22.846Z</time>
      </trkpt>
      <trkpt lat="46.70114" lon="6.50948">
        <ele>582.7</ele>
        <time>2019-12-25T07:33:25.443Z</time>
      </trkpt>
      <trkpt lat="46.70119" lon="6.5093">
        <ele>583.7</ele>
        <time>2019-12-25T07:33:28.109Z</time>
      </trkpt>
      <trkpt lat="46.70123" lon="6.50915">
        <ele>584.1</ele>
        <time>2019-12-25T07:33:30.318Z</time>
      </trkpt>
      <trkpt lat="46.7013" lon="6.50905">
        <ele>583.2</ele>
        <time>2019-12-25T07:33:32.279Z</time>
      </trkpt>
      <trkpt lat="46.70139" lon="6.50899">
        <ele>583.7</ele>
        <time>2019-12-25T07:33:34.260Z</time>
      </trkpt>
      <trkpt lat="46.70148" lon="6.50896">
        <ele>583.7</ele>
        <time>2019-12-25T07:33:36.108Z</time>
      </trkpt>
      <trkpt lat="46.70157" lon="6.50894">
        <ele>582.2</ele>
        <time>2019-12-25T07:33:37.930Z</time>
      </trkpt>
      <trkpt lat="46.70167" lon="6.50893">
        <ele>582.7</ele>
        <time>2019-12-25T07:33:39.936Z</time>
      </trkpt>
      <trkpt lat="46.70176" lon="6.50893">
        <ele>582.2</ele>
        <time>2019-12-25T07:33:41.737Z</time>
      </trkpt>
      <trkpt lat="46.70186" lon="6.50892">
        <ele>582.2</ele>
        <time>2019-12-25T07:33:43.743Z</time>
      </trkpt>
      <trkpt lat="46.70195" lon="6.50891">
        <ele>582.2</ele>
        <time>2019-12-25T07:33:45.550Z</time>
      </trkpt>
      <trkpt lat="46.70205" lon="6.50889">
        <ele>581.7</ele>
        <time>2019-12-25T07:33:47.570Z</time>
      </trkpt>
      <trkpt lat="46.70214" lon="6.50887">
        <ele>580.8</ele>
        <time>2019-12-25T07:33:49.392Z</time>
      </trkpt>
      <trkpt lat="46.70223" lon="6.50885">
        <ele>580.8</ele>
        <time>2019-12-25T07:33:51.214Z</time>
      </trkpt>
      <trkpt lat="46.70233" lon="6.50881">
        <ele>579.8</ele>
        <time>2019-12-25T07:33:53.289Z</time>
      </trkpt>
      <trkpt lat="46.70242" lon="6.50877">
        <ele>580.3</ele>
        <time>2019-12-25T07:33:55.172Z</time>
      </trkpt>
      <trkpt lat="46.70251" lon="6.50873">
        <ele>579.8</ele>
        <time>2019-12-25T07:33:57.055Z</time>
      </trkpt>
      <trkpt lat="46.70263" lon="6.50867">
        <ele>578.8</ele>
        <time>2019-12-25T07:33:59.594Z</time>
      </trkpt>
      <trkpt lat="46.70273" lon="6.50868">
        <ele>578.8</ele>
        <time>2019-12-25T07:34:01.600Z</time>
      </trkpt>
      <trkpt lat="46.70274" lon="6.50886">
        <ele>579.3</ele>
        <time>2019-12-25T07:34:04.079Z</time>
      </trkpt>
      <trkpt lat="46.70275" lon="6.509">
        <ele>578.8</ele>
        <time>2019-12-25T07:34:06.011Z</time>
      </trkpt>
      <trkpt lat="46.70278" lon="6.50914">
        <ele>578.8</ele>
        <time>2019-12-25T07:34:08.024Z</time>
      </trkpt>
      <trkpt lat="46.70282" lon="6.50928">
        <ele>578.4</ele>
        <time>2019-12-25T07:34:10.106Z</time>
      </trkpt>
      <trkpt lat="46.70285" lon="6.50943">
        <ele>578.4</ele>
        <time>2019-12-25T07:34:12.251Z</time>
      </trkpt>
      <trkpt lat="46.70289" lon="6.50958">
        <ele>578.4</ele>
        <time>2019-12-25T07:34:14.460Z</time>
      </trkpt>
      <trkpt lat="46.70293" lon="6.50973">
        <ele>577.4</ele>
        <time>2019-12-25T07:34:16.669Z</time>
      </trkpt>
      <trkpt lat="46.70298" lon="6.50987">
        <ele>577.4</ele>
        <time>2019-12-25T07:34:18.836Z</time>
      </trkpt>
      <trkpt lat="46.70303" lon="6.51002">
        <ele>577.4</ele>
        <time>2019-12-25T07:34:21.125Z</time>
      </trkpt>
      <trkpt lat="46.70309" lon="6.51016">
        <ele>577.4</ele>
        <time>2019-12-25T07:34:23.391Z</time>
      </trkpt>
      <trkpt lat="46.70316" lon="6.51028">
        <ele>577.4</ele>
        <time>2019-12-25T07:34:25.553Z</time>
      </trkpt>
      <trkpt lat="46.70322" lon="6.5104">
        <ele>577.4</ele>
        <time>2019-12-25T07:34:27.591Z</time>
      </trkpt>
      <trkpt lat="46.70328" lon="6.51051">
        <ele>576.9</ele>
        <time>2019-12-25T07:34:29.520Z</time>
      </trkpt>
      <trkpt lat="46.70335" lon="6.51067">
        <ele>576.9</ele>
        <time>2019-12-25T07:34:32.125Z</time>
      </trkpt>
      <trkpt lat="46.70341" lon="6.51081">
        <ele>576</ele>
        <time>2019-12-25T07:34:34.391Z</time>
      </trkpt>
      <trkpt lat="46.70347" lon="6.51096">
        <ele>576</ele>
        <time>2019-12-25T07:34:36.775Z</time>
      </trkpt>
      <trkpt lat="46.70354" lon="6.51111">
        <ele>575</ele>
        <time>2019-12-25T07:34:39.265Z</time>
      </trkpt>
      <trkpt lat="46.7036" lon="6.51125">
        <ele>574.5</ele>
        <time>2019-12-25T07:34:41.531Z</time>
      </trkpt>
      <trkpt lat="46.70367" lon="6.51139">
        <ele>574</ele>
        <time>2019-12-25T07:34:43.909Z</time>
      </trkpt>
      <trkpt lat="46.70375" lon="6.51154">
        <ele>573.6</ele>
        <time>2019-12-25T07:34:46.517Z</time>
      </trkpt>
      <trkpt lat="46.7038" lon="6.51166">
        <ele>573.1</ele>
        <time>2019-12-25T07:34:48.444Z</time>
      </trkpt>
      <trkpt lat="46.70385" lon="6.51178">
        <ele>572.6</ele>
        <time>2019-12-25T07:34:50.371Z</time>
      </trkpt>
      <trkpt lat="46.7039" lon="6.51191">
        <ele>572.1</ele>
        <time>2019-12-25T07:34:52.417Z</time>
      </trkpt>
      <trkpt lat="46.70394" lon="6.51205">
        <ele>573.6</ele>
        <time>2019-12-25T07:34:54.499Z</time>
      </trkpt>
      <trkpt lat="46.70398" lon="6.51222">
        <ele>572.1</ele>
        <time>2019-12-25T07:34:56.966Z</time>
      </trkpt>
      <trkpt lat="46.70405" lon="6.51238">
        <ele>572.6</ele>
        <time>2019-12-25T07:34:59.571Z</time>
      </trkpt>
      <trkpt lat="46.70412" lon="6.51255">
        <ele>572.6</ele>
        <time>2019-12-25T07:35:02.293Z</time>
      </trkpt>
      <trkpt lat="46.70421" lon="6.51272">
        <ele>573.1</ele>
        <time>2019-12-25T07:35:05.241Z</time>
      </trkpt>
      <trkpt lat="46.70428" lon="6.51289">
        <ele>574</ele>
        <time>2019-12-25T07:35:07.963Z</time>
      </trkpt>
      <trkpt lat="46.70435" lon="6.51306">
        <ele>575</ele>
        <time>2019-12-25T07:35:10.685Z</time>
      </trkpt>
      <trkpt lat="46.70441" lon="6.51322">
        <ele>575.5</ele>
        <time>2019-12-25T07:35:13.188Z</time>
      </trkpt>
      <trkpt lat="46.70447" lon="6.51336">
        <ele>576.5</ele>
        <time>2019-12-25T07:35:15.454Z</time>
      </trkpt>
      <trkpt lat="46.70453" lon="6.51353">
        <ele>577.4</ele>
        <time>2019-12-25T07:35:18.078Z</time>
      </trkpt>
      <trkpt lat="46.70461" lon="6.51363">
        <ele>577.4</ele>
        <time>2019-12-25T07:35:20.187Z</time>
      </trkpt>
      <trkpt lat="46.7047" lon="6.51364">
        <ele>577.4</ele>
        <time>2019-12-25T07:35:21.994Z</time>
      </trkpt>
      <trkpt lat="46.70479" lon="6.51365">
        <ele>576.9</ele>
        <time>2019-12-25T07:35:23.801Z</time>
      </trkpt>
      <trkpt lat="46.70489" lon="6.51366">
        <ele>577.4</ele>
        <time>2019-12-25T07:35:25.807Z</time>
      </trkpt>
      <trkpt lat="46.70498" lon="6.51365">
        <ele>577.4</ele>
        <time>2019-12-25T07:35:27.614Z</time>
      </trkpt>
      <trkpt lat="46.70508" lon="6.51365">
        <ele>576.9</ele>
        <time>2019-12-25T07:35:29.616Z</time>
      </trkpt>
      <trkpt lat="46.70519" lon="6.51365">
        <ele>576</ele>
        <time>2019-12-25T07:35:31.818Z</time>
      </trkpt>
      <trkpt lat="46.70529" lon="6.51366">
        <ele>576.5</ele>
        <time>2019-12-25T07:35:33.824Z</time>
      </trkpt>
      <trkpt lat="46.7054" lon="6.51366">
        <ele>576</ele>
        <time>2019-12-25T07:35:36.026Z</time>
      </trkpt>
      <trkpt lat="46.70551" lon="6.51366">
        <ele>576</ele>
        <time>2019-12-25T07:35:38.228Z</time>
      </trkpt>
      <trkpt lat="46.70562" lon="6.51367">
        <ele>576</ele>
        <time>2019-12-25T07:35:40.434Z</time>
      </trkpt>
      <trkpt lat="46.70573" lon="6.51367">
        <ele>576.5</ele>
        <time>2019-12-25T07:35:42.636Z</time>
      </trkpt>
      <trkpt lat="46.70584" lon="6.51368">
        <ele>576</ele>
        <time>2019-12-25T07:35:44.842Z</time>
      </trkpt>
      <trkpt lat="46.70595" lon="6.51369">
        <ele>575.5</ele>
        <time>2019-12-25T07:35:47.048Z</time>
      </trkpt>
      <trkpt lat="46.70606" lon="6.51369">
        <ele>575.5</ele>
        <time>2019-12-25T07:35:49.250Z</time>
      </trkpt>
      <trkpt lat="46.70616" lon="6.5137">
        <ele>576</ele>
        <time>2019-12-25T07:35:51.256Z</time>
      </trkpt>
      <trkpt lat="46.70626" lon="6.5137">
        <ele>575.5</ele>
        <time>2019-12-25T07:35:53.258Z</time>
      </trkpt>
      <trkpt lat="46.70636" lon="6.5137">
        <ele>575.5</ele>
        <time>2019-12-25T07:35:55.260Z</time>
      </trkpt>
      <trkpt lat="46.70646" lon="6.5137">
        <ele>575.5</ele>
        <time>2019-12-25T07:35:57.262Z</time>
      </trkpt>
      <trkpt lat="46.70656" lon="6.5137">
        <ele>574.5</ele>
        <time>2019-12-25T07:35:59.264Z</time>
      </trkpt>
      <trkpt lat="46.70666" lon="6.51371">
        <ele>574.5</ele>
        <time>2019-12-25T07:36:01.270Z</time>
      </trkpt>
      <trkpt lat="46.70676" lon="6.51371">
        <ele>574.5</ele>
        <time>2019-12-25T07:36:03.272Z</time>
      </trkpt>
      <trkpt lat="46.70686" lon="6.51371">
        <ele>574</ele>
        <time>2019-12-25T07:36:05.274Z</time>
      </trkpt>
      <trkpt lat="46.70696" lon="6.51372">
        <ele>574</ele>
        <time>2019-12-25T07:36:07.280Z</time>
      </trkpt>
      <trkpt lat="46.70706" lon="6.51373">
        <ele>573.1</ele>
        <time>2019-12-25T07:36:09.286Z</time>
      </trkpt>
      <trkpt lat="46.70716" lon="6.51373">
        <ele>573.6</ele>
        <time>2019-12-25T07:36:11.288Z</time>
      </trkpt>
      <trkpt lat="46.70726" lon="6.51374">
        <ele>573.1</ele>
        <time>2019-12-25T07:36:13.294Z</time>
      </trkpt>
      <trkpt lat="46.70735" lon="6.51375">
        <ele>573.1</ele>
        <time>2019-12-25T07:36:15.101Z</time>
      </trkpt>
      <trkpt lat="46.70745" lon="6.51379">
        <ele>573.6</ele>
        <time>2019-12-25T07:36:17.176Z</time>
      </trkpt>
      <trkpt lat="46.70756" lon="6.5138">
        <ele>574</ele>
        <time>2019-12-25T07:36:19.382Z</time>
      </trkpt>
      <trkpt lat="46.70766" lon="6.51382">
        <ele>573.6</ele>
        <time>2019-12-25T07:36:21.402Z</time>
      </trkpt>
      <trkpt lat="46.70777" lon="6.51383">
        <ele>574</ele>
        <time>2019-12-25T07:36:23.608Z</time>
      </trkpt>
      <trkpt lat="46.70789" lon="6.51386">
        <ele>573.6</ele>
        <time>2019-12-25T07:36:26.045Z</time>
      </trkpt>
      <trkpt lat="46.70801" lon="6.51388">
        <ele>574</ele>
        <time>2019-12-25T07:36:28.462Z</time>
      </trkpt>
      <trkpt lat="46.70813" lon="6.5139">
        <ele>574</ele>
        <time>2019-12-25T07:36:30.879Z</time>
      </trkpt>
      <trkpt lat="46.70825" lon="6.51391">
        <ele>574.5</ele>
        <time>2019-12-25T07:36:33.285Z</time>
      </trkpt>
      <trkpt lat="46.70837" lon="6.51393">
        <ele>575</ele>
        <time>2019-12-25T07:36:35.702Z</time>
      </trkpt>
      <trkpt lat="46.70848" lon="6.51395">
        <ele>573.1</ele>
        <time>2019-12-25T07:36:37.921Z</time>
      </trkpt>
      <trkpt lat="46.7086" lon="6.51398">
        <ele>573.6</ele>
        <time>2019-12-25T07:36:40.358Z</time>
      </trkpt>
      <trkpt lat="46.70872" lon="6.514">
        <ele>573.1</ele>
        <time>2019-12-25T07:36:42.775Z</time>
      </trkpt>
      <trkpt lat="46.70883" lon="6.51402">
        <ele>573.1</ele>
        <time>2019-12-25T07:36:44.994Z</time>
      </trkpt>
      <trkpt lat="46.70895" lon="6.51404">
        <ele>572.6</ele>
        <time>2019-12-25T07:36:47.411Z</time>
      </trkpt>
      <trkpt lat="46.70906" lon="6.51406">
        <ele>572.6</ele>
        <time>2019-12-25T07:36:49.630Z</time>
      </trkpt>
      <trkpt lat="46.70917" lon="6.51408">
        <ele>572.1</ele>
        <time>2019-12-25T07:36:51.849Z</time>
      </trkpt>
      <trkpt lat="46.70929" lon="6.5141">
        <ele>571.6</ele>
        <time>2019-12-25T07:36:54.266Z</time>
      </trkpt>
      <trkpt lat="46.7094" lon="6.51412">
        <ele>572.1</ele>
        <time>2019-12-25T07:36:56.485Z</time>
      </trkpt>
      <trkpt lat="46.70951" lon="6.51414">
        <ele>571.2</ele>
        <time>2019-12-25T07:36:58.704Z</time>
      </trkpt>
      <trkpt lat="46.70963" lon="6.51416">
        <ele>571.2</ele>
        <time>2019-12-25T07:37:01.121Z</time>
      </trkpt>
      <trkpt lat="46.70975" lon="6.51418">
        <ele>571.2</ele>
        <time>2019-12-25T07:37:03.538Z</time>
      </trkpt>
      <trkpt lat="46.70986" lon="6.5142">
        <ele>570.7</ele>
        <time>2019-12-25T07:37:05.757Z</time>
      </trkpt>
      <trkpt lat="46.70997" lon="6.51423">
        <ele>570.2</ele>
        <time>2019-12-25T07:37:07.997Z</time>
      </trkpt>
      <trkpt lat="46.71008" lon="6.51424">
        <ele>570.7</ele>
        <time>2019-12-25T07:37:10.203Z</time>
      </trkpt>
      <trkpt lat="46.71019" lon="6.51426">
        <ele>570.2</ele>
        <time>2019-12-25T07:37:12.422Z</time>
      </trkpt>
      <trkpt lat="46.7103" lon="6.51428">
        <ele>570.2</ele>
        <time>2019-12-25T07:37:14.641Z</time>
      </trkpt>
      <trkpt lat="46.71041" lon="6.5143">
        <ele>569.7</ele>
        <time>2019-12-25T07:37:16.860Z</time>
      </trkpt>
      <trkpt lat="46.71052" lon="6.51432">
        <ele>569.7</ele>
        <time>2019-12-25T07:37:19.079Z</time>
      </trkpt>
      <trkpt lat="46.71063" lon="6.51433">
        <ele>569.7</ele>
        <time>2019-12-25T07:37:21.285Z</time>
      </trkpt>
      <trkpt lat="46.71074" lon="6.51435">
        <ele>569.7</ele>
        <time>2019-12-25T07:37:23.504Z</time>
      </trkpt>
      <trkpt lat="46.71085" lon="6.51437">
        <ele>569.2</ele>
        <time>2019-12-25T07:37:25.723Z</time>
      </trkpt>
      <trkpt lat="46.71096" lon="6.51439">
        <ele>568.3</ele>
        <time>2019-12-25T07:37:27.942Z</time>
      </trkpt>
      <trkpt lat="46.71108" lon="6.51441">
        <ele>568.8</ele>
        <time>2019-12-25T07:37:30.359Z</time>
      </trkpt>
      <trkpt lat="46.71119" lon="6.51443">
        <ele>568.3</ele>
        <time>2019-12-25T07:37:32.578Z</time>
      </trkpt>
      <trkpt lat="46.71131" lon="6.51445">
        <ele>568.3</ele>
        <time>2019-12-25T07:37:34.995Z</time>
      </trkpt>
      <trkpt lat="46.71141" lon="6.51446">
        <ele>568.3</ele>
        <time>2019-12-25T07:37:37.001Z</time>
      </trkpt>
      <trkpt lat="46.71153" lon="6.51448">
        <ele>567.8</ele>
        <time>2019-12-25T07:37:39.418Z</time>
      </trkpt>
      <trkpt lat="46.71164" lon="6.5145">
        <ele>568.3</ele>
        <time>2019-12-25T07:37:41.637Z</time>
      </trkpt>
      <trkpt lat="46.71174" lon="6.51452">
        <ele>567.3</ele>
        <time>2019-12-25T07:37:43.657Z</time>
      </trkpt>
      <trkpt lat="46.71185" lon="6.51453">
        <ele>567.3</ele>
        <time>2019-12-25T07:37:45.863Z</time>
      </trkpt>
      <trkpt lat="46.71196" lon="6.51454">
        <ele>566.8</ele>
        <time>2019-12-25T07:37:48.069Z</time>
      </trkpt>
      <trkpt lat="46.71206" lon="6.51456">
        <ele>566.8</ele>
        <time>2019-12-25T07:37:50.089Z</time>
      </trkpt>
      <trkpt lat="46.71216" lon="6.51458">
        <ele>566.8</ele>
        <time>2019-12-25T07:37:52.109Z</time>
      </trkpt>
      <trkpt lat="46.71226" lon="6.5146">
        <ele>566.8</ele>
        <time>2019-12-25T07:37:54.129Z</time>
      </trkpt>
      <trkpt lat="46.71235" lon="6.51462">
        <ele>565.9</ele>
        <time>2019-12-25T07:37:55.951Z</time>
      </trkpt>
      <trkpt lat="46.71245" lon="6.51464">
        <ele>565.9</ele>
        <time>2019-12-25T07:37:57.971Z</time>
      </trkpt>
      <trkpt lat="46.71256" lon="6.51465">
        <ele>564.9</ele>
        <time>2019-12-25T07:38:00.177Z</time>
      </trkpt>
      <trkpt lat="46.71266" lon="6.51467">
        <ele>564.9</ele>
        <time>2019-12-25T07:38:02.197Z</time>
      </trkpt>
      <trkpt lat="46.71277" lon="6.5147">
        <ele>564.9</ele>
        <time>2019-12-25T07:38:04.437Z</time>
      </trkpt>
      <trkpt lat="46.71287" lon="6.51472">
        <ele>564.4</ele>
        <time>2019-12-25T07:38:06.457Z</time>
      </trkpt>
      <trkpt lat="46.71297" lon="6.51474">
        <ele>563.5</ele>
        <time>2019-12-25T07:38:08.477Z</time>
      </trkpt>
      <trkpt lat="46.71307" lon="6.51475">
        <ele>564</ele>
        <time>2019-12-25T07:38:10.483Z</time>
      </trkpt>
      <trkpt lat="46.71317" lon="6.51477">
        <ele>563.5</ele>
        <time>2019-12-25T07:38:12.503Z</time>
      </trkpt>
      <trkpt lat="46.71328" lon="6.51479">
        <ele>563</ele>
        <time>2019-12-25T07:38:14.722Z</time>
      </trkpt>
      <trkpt lat="46.71339" lon="6.51481">
        <ele>563</ele>
        <time>2019-12-25T07:38:16.941Z</time>
      </trkpt>
      <trkpt lat="46.71349" lon="6.51482">
        <ele>562.5</ele>
        <time>2019-12-25T07:38:18.947Z</time>
      </trkpt>
      <trkpt lat="46.71359" lon="6.51483">
        <ele>562</ele>
        <time>2019-12-25T07:38:20.953Z</time>
      </trkpt>
      <trkpt lat="46.71369" lon="6.51485">
        <ele>562</ele>
        <time>2019-12-25T07:38:22.973Z</time>
      </trkpt>
      <trkpt lat="46.71379" lon="6.51487">
        <ele>561.5</ele>
        <time>2019-12-25T07:38:24.993Z</time>
      </trkpt>
      <trkpt lat="46.71389" lon="6.51489">
        <ele>562</ele>
        <time>2019-12-25T07:38:27.013Z</time>
      </trkpt>
      <trkpt lat="46.71401" lon="6.51488">
        <ele>562</ele>
        <time>2019-12-25T07:38:29.419Z</time>
      </trkpt>
      <trkpt lat="46.71408" lon="6.51475">
        <ele>561.5</ele>
        <time>2019-12-25T07:38:31.687Z</time>
      </trkpt>
      <trkpt lat="46.71414" lon="6.51459">
        <ele>560.1</ele>
        <time>2019-12-25T07:38:34.190Z</time>
      </trkpt>
      <trkpt lat="46.71419" lon="6.51443">
        <ele>559.6</ele>
        <time>2019-12-25T07:38:36.603Z</time>
      </trkpt>
      <trkpt lat="46.71425" lon="6.51427">
        <ele>560.1</ele>
        <time>2019-12-25T07:38:39.106Z</time>
      </trkpt>
      <trkpt lat="46.71431" lon="6.51412">
        <ele>559.6</ele>
        <time>2019-12-25T07:38:41.489Z</time>
      </trkpt>
      <trkpt lat="46.71437" lon="6.51396">
        <ele>560.1</ele>
        <time>2019-12-25T07:38:43.992Z</time>
      </trkpt>
      <trkpt lat="46.71444" lon="6.5138">
        <ele>558.2</ele>
        <time>2019-12-25T07:38:46.597Z</time>
      </trkpt>
      <trkpt lat="46.71451" lon="6.51368">
        <ele>558.2</ele>
        <time>2019-12-25T07:38:48.759Z</time>
      </trkpt>
      <trkpt lat="46.71459" lon="6.51358">
        <ele>558.2</ele>
        <time>2019-12-25T07:38:50.868Z</time>
      </trkpt>
      <trkpt lat="46.71469" lon="6.51348">
        <ele>557.7</ele>
        <time>2019-12-25T07:38:53.295Z</time>
      </trkpt>
      <trkpt lat="46.71478" lon="6.5134">
        <ele>557.2</ele>
        <time>2019-12-25T07:38:55.405Z</time>
      </trkpt>
      <trkpt lat="46.71486" lon="6.51335">
        <ele>556.7</ele>
        <time>2019-12-25T07:38:57.147Z</time>
      </trkpt>
      <trkpt lat="46.71498" lon="6.51334">
        <ele>555.8</ele>
        <time>2019-12-25T07:38:59.553Z</time>
      </trkpt>
      <trkpt lat="46.71508" lon="6.51333">
        <ele>554.8</ele>
        <time>2019-12-25T07:39:01.559Z</time>
      </trkpt>
      <trkpt lat="46.71518" lon="6.51335">
        <ele>553.9</ele>
        <time>2019-12-25T07:39:03.579Z</time>
      </trkpt>
      <trkpt lat="46.71528" lon="6.51335">
        <ele>552.4</ele>
        <time>2019-12-25T07:39:05.581Z</time>
      </trkpt>
      <trkpt lat="46.71539" lon="6.51335">
        <ele>551.5</ele>
        <time>2019-12-25T07:39:07.783Z</time>
      </trkpt>
      <trkpt lat="46.71549" lon="6.51334">
        <ele>550.5</ele>
        <time>2019-12-25T07:39:09.789Z</time>
      </trkpt>
      <trkpt lat="46.71559" lon="6.51333">
        <ele>549</ele>
        <time>2019-12-25T07:39:11.795Z</time>
      </trkpt>
      <trkpt lat="46.71569" lon="6.51331">
        <ele>548.1</ele>
        <time>2019-12-25T07:39:13.815Z</time>
      </trkpt>
      <trkpt lat="46.7158" lon="6.5133">
        <ele>546.2</ele>
        <time>2019-12-25T07:39:16.021Z</time>
      </trkpt>
      <trkpt lat="46.71591" lon="6.51326">
        <ele>545.2</ele>
        <time>2019-12-25T07:39:18.290Z</time>
      </trkpt>
      <trkpt lat="46.71603" lon="6.51323">
        <ele>544.2</ele>
        <time>2019-12-25T07:39:20.727Z</time>
      </trkpt>
      <trkpt lat="46.71614" lon="6.5132">
        <ele>543.3</ele>
        <time>2019-12-25T07:39:22.967Z</time>
      </trkpt>
      <trkpt lat="46.71626" lon="6.51316">
        <ele>541.8</ele>
        <time>2019-12-25T07:39:25.431Z</time>
      </trkpt>
      <trkpt lat="46.71637" lon="6.51311">
        <ele>540.4</ele>
        <time>2019-12-25T07:39:27.737Z</time>
      </trkpt>
      <trkpt lat="46.71648" lon="6.51308">
        <ele>539.9</ele>
        <time>2019-12-25T07:39:29.977Z</time>
      </trkpt>
      <trkpt lat="46.71659" lon="6.51306">
        <ele>539</ele>
        <time>2019-12-25T07:39:32.196Z</time>
      </trkpt>
      <trkpt lat="46.71671" lon="6.51304">
        <ele>538.5</ele>
        <time>2019-12-25T07:39:34.613Z</time>
      </trkpt>
      <trkpt lat="46.71682" lon="6.51301">
        <ele>537</ele>
        <time>2019-12-25T07:39:36.853Z</time>
      </trkpt>
      <trkpt lat="46.71693" lon="6.51297">
        <ele>536.1</ele>
        <time>2019-12-25T07:39:39.122Z</time>
      </trkpt>
      <trkpt lat="46.71703" lon="6.51295">
        <ele>534.6</ele>
        <time>2019-12-25T07:39:41.142Z</time>
      </trkpt>
      <trkpt lat="46.71714" lon="6.5129">
        <ele>534.2</ele>
        <time>2019-12-25T07:39:43.448Z</time>
      </trkpt>
      <trkpt lat="46.71725" lon="6.51285">
        <ele>533.2</ele>
        <time>2019-12-25T07:39:45.754Z</time>
      </trkpt>
      <trkpt lat="46.71735" lon="6.51279">
        <ele>531.8</ele>
        <time>2019-12-25T07:39:47.918Z</time>
      </trkpt>
      <trkpt lat="46.71746" lon="6.51274">
        <ele>531.3</ele>
        <time>2019-12-25T07:39:50.224Z</time>
      </trkpt>
      <trkpt lat="46.71755" lon="6.5127">
        <ele>530.8</ele>
        <time>2019-12-25T07:39:52.107Z</time>
      </trkpt>
      <trkpt lat="46.71765" lon="6.51266">
        <ele>529.8</ele>
        <time>2019-12-25T07:39:54.182Z</time>
      </trkpt>
      <trkpt lat="46.71775" lon="6.51261">
        <ele>527.9</ele>
        <time>2019-12-25T07:39:56.298Z</time>
      </trkpt>
      <trkpt lat="46.71784" lon="6.51256">
        <ele>526.5</ele>
        <time>2019-12-25T07:39:58.226Z</time>
      </trkpt>
      <trkpt lat="46.71794" lon="6.5125">
        <ele>525</ele>
        <time>2019-12-25T07:40:00.390Z</time>
      </trkpt>
      <trkpt lat="46.71804" lon="6.51243">
        <ele>524.1</ele>
        <time>2019-12-25T07:40:02.610Z</time>
      </trkpt>
      <trkpt lat="46.71813" lon="6.51236">
        <ele>522.1</ele>
        <time>2019-12-25T07:40:04.651Z</time>
      </trkpt>
      <trkpt lat="46.71821" lon="6.51229">
        <ele>521.2</ele>
        <time>2019-12-25T07:40:06.518Z</time>
      </trkpt>
      <trkpt lat="46.71831" lon="6.51219">
        <ele>520.2</ele>
        <time>2019-12-25T07:40:08.945Z</time>
      </trkpt>
      <trkpt lat="46.71839" lon="6.5121">
        <ele>518.8</ele>
        <time>2019-12-25T07:40:10.967Z</time>
      </trkpt>
      <trkpt lat="46.71848" lon="6.51203">
        <ele>517.3</ele>
        <time>2019-12-25T07:40:13.008Z</time>
      </trkpt>
      <trkpt lat="46.71855" lon="6.51194">
        <ele>516.8</ele>
        <time>2019-12-25T07:40:14.876Z</time>
      </trkpt>
      <trkpt lat="46.71863" lon="6.51185">
        <ele>515.9</ele>
        <time>2019-12-25T07:40:16.898Z</time>
      </trkpt>
      <trkpt lat="46.71873" lon="6.51177">
        <ele>514.9</ele>
        <time>2019-12-25T07:40:19.181Z</time>
      </trkpt>
      <trkpt lat="46.71885" lon="6.51169">
        <ele>514</ele>
        <time>2019-12-25T07:40:21.822Z</time>
      </trkpt>
      <trkpt lat="46.71894" lon="6.51167">
        <ele>513.5</ele>
        <time>2019-12-25T07:40:23.644Z</time>
      </trkpt>
      <trkpt lat="46.71903" lon="6.51165">
        <ele>512</ele>
        <time>2019-12-25T07:40:25.466Z</time>
      </trkpt>
      <trkpt lat="46.71913" lon="6.51155">
        <ele>513</ele>
        <time>2019-12-25T07:40:27.893Z</time>
      </trkpt>
      <trkpt lat="46.71915" lon="6.51143">
        <ele>513</ele>
        <time>2019-12-25T07:40:29.588Z</time>
      </trkpt>
      <trkpt lat="46.71922" lon="6.5113">
        <ele>513.5</ele>
        <time>2019-12-25T07:40:31.856Z</time>
      </trkpt>
      <trkpt lat="46.7193" lon="6.51123">
        <ele>514</ele>
        <time>2019-12-25T07:40:33.723Z</time>
      </trkpt>
      <trkpt lat="46.7194" lon="6.51118">
        <ele>515.4</ele>
        <time>2019-12-25T07:40:35.839Z</time>
      </trkpt>
      <trkpt lat="46.71952" lon="6.51109">
        <ele>516.4</ele>
        <time>2019-12-25T07:40:38.540Z</time>
      </trkpt>
      <trkpt lat="46.71965" lon="6.51094">
        <ele>518.8</ele>
        <time>2019-12-25T07:40:41.858Z</time>
      </trkpt>
      <trkpt lat="46.71972" lon="6.51085">
        <ele>519.2</ele>
        <time>2019-12-25T07:40:43.726Z</time>
      </trkpt>
      <trkpt lat="46.71978" lon="6.51076">
        <ele>519.2</ele>
        <time>2019-12-25T07:40:45.449Z</time>
      </trkpt>
      <trkpt lat="46.71988" lon="6.51056">
        <ele>521.2</ele>
        <time>2019-12-25T07:40:48.846Z</time>
      </trkpt>
      <trkpt lat="46.71995" lon="6.51036">
        <ele>521.7</ele>
        <time>2019-12-25T07:40:51.927Z</time>
      </trkpt>
      <trkpt lat="46.72" lon="6.51018">
        <ele>523.6</ele>
        <time>2019-12-25T07:40:54.592Z</time>
      </trkpt>
      <trkpt lat="46.72005" lon="6.51002">
        <ele>524.1</ele>
        <time>2019-12-25T07:40:57.005Z</time>
      </trkpt>
      <trkpt lat="46.72008" lon="6.50989">
        <ele>524.1</ele>
        <time>2019-12-25T07:40:58.887Z</time>
      </trkpt>
      <trkpt lat="46.72014" lon="6.50978">
        <ele>524.5</ele>
        <time>2019-12-25T07:41:00.816Z</time>
      </trkpt>
      <trkpt lat="46.72026" lon="6.5098">
        <ele>525</ele>
        <time>2019-12-25T07:41:03.233Z</time>
      </trkpt>
      <trkpt lat="46.72039" lon="6.50985">
        <ele>526.9</ele>
        <time>2019-12-25T07:41:05.924Z</time>
      </trkpt>
      <trkpt lat="46.72053" lon="6.50989">
        <ele>528.9</ele>
        <time>2019-12-25T07:41:08.779Z</time>
      </trkpt>
      <trkpt lat="46.72068" lon="6.50993">
        <ele>529.3</ele>
        <time>2019-12-25T07:41:11.831Z</time>
      </trkpt>
      <trkpt lat="46.72084" lon="6.50996">
        <ele>529.8</ele>
        <time>2019-12-25T07:41:15.060Z</time>
      </trkpt>
      <trkpt lat="46.72099" lon="6.50999">
        <ele>531.8</ele>
        <time>2019-12-25T07:41:18.090Z</time>
      </trkpt>
      <trkpt lat="46.72112" lon="6.51002">
        <ele>531.3</ele>
        <time>2019-12-25T07:41:20.724Z</time>
      </trkpt>
      <trkpt lat="46.72125" lon="6.51005">
        <ele>532.7</ele>
        <time>2019-12-25T07:41:23.358Z</time>
      </trkpt>
      <trkpt lat="46.72136" lon="6.51006">
        <ele>533.2</ele>
        <time>2019-12-25T07:41:25.564Z</time>
      </trkpt>
      <trkpt lat="46.72144" lon="6.50999">
        <ele>533.7</ele>
        <time>2019-12-25T07:41:27.431Z</time>
      </trkpt>
      <trkpt lat="46.72151" lon="6.50983">
        <ele>532.7</ele>
        <time>2019-12-25T07:41:30.035Z</time>
      </trkpt>
      <trkpt lat="46.7216" lon="6.50979">
        <ele>532.7</ele>
        <time>2019-12-25T07:41:31.918Z</time>
      </trkpt>
      <trkpt lat="46.7217" lon="6.50984">
        <ele>533.7</ele>
        <time>2019-12-25T07:41:34.034Z</time>
      </trkpt>
      <trkpt lat="46.7218" lon="6.50993">
        <ele>533.7</ele>
        <time>2019-12-25T07:41:36.386Z</time>
      </trkpt>
      <trkpt lat="46.72189" lon="6.51001">
        <ele>534.2</ele>
        <time>2019-12-25T07:41:38.495Z</time>
      </trkpt>
      <trkpt lat="46.72198" lon="6.51005">
        <ele>534.2</ele>
        <time>2019-12-25T07:41:40.378Z</time>
      </trkpt>
      <trkpt lat="46.72207" lon="6.51009">
        <ele>534.2</ele>
        <time>2019-12-25T07:41:42.261Z</time>
      </trkpt>
      <trkpt lat="46.72216" lon="6.51013">
        <ele>534.2</ele>
        <time>2019-12-25T07:41:44.144Z</time>
      </trkpt>
      <trkpt lat="46.72228" lon="6.51019">
        <ele>534.2</ele>
        <time>2019-12-25T07:41:46.683Z</time>
      </trkpt>
      <trkpt lat="46.72241" lon="6.51025">
        <ele>533.7</ele>
        <time>2019-12-25T07:41:49.412Z</time>
      </trkpt>
      <trkpt lat="46.72252" lon="6.5103">
        <ele>533.2</ele>
        <time>2019-12-25T07:41:51.718Z</time>
      </trkpt>
      <trkpt lat="46.72263" lon="6.51035">
        <ele>532.7</ele>
        <time>2019-12-25T07:41:54.024Z</time>
      </trkpt>
      <trkpt lat="46.72276" lon="6.5104">
        <ele>532.2</ele>
        <time>2019-12-25T07:41:56.715Z</time>
      </trkpt>
      <trkpt lat="46.72289" lon="6.51044">
        <ele>532.7</ele>
        <time>2019-12-25T07:41:59.374Z</time>
      </trkpt>
      <trkpt lat="46.72302" lon="6.51048">
        <ele>532.2</ele>
        <time>2019-12-25T07:42:02.033Z</time>
      </trkpt>
      <trkpt lat="46.72314" lon="6.5105">
        <ele>531.8</ele>
        <time>2019-12-25T07:42:04.450Z</time>
      </trkpt>
      <trkpt lat="46.72326" lon="6.51053">
        <ele>532.2</ele>
        <time>2019-12-25T07:42:06.887Z</time>
      </trkpt>
      <trkpt lat="46.72337" lon="6.51056">
        <ele>531.3</ele>
        <time>2019-12-25T07:42:09.127Z</time>
      </trkpt>
      <trkpt lat="46.72347" lon="6.51058">
        <ele>530.8</ele>
        <time>2019-12-25T07:42:11.147Z</time>
      </trkpt>
      <trkpt lat="46.72356" lon="6.51058">
        <ele>530.3</ele>
        <time>2019-12-25T07:42:12.948Z</time>
      </trkpt>
      <trkpt lat="46.7236" lon="6.51069">
        <ele>529.3</ele>
        <time>2019-12-25T07:42:14.656Z</time>
      </trkpt>
      <trkpt lat="46.72362" lon="6.51085">
        <ele>529.3</ele>
        <time>2019-12-25T07:42:16.888Z</time>
      </trkpt>
      <trkpt lat="46.72363" lon="6.511">
        <ele>527.9</ele>
        <time>2019-12-25T07:42:18.956Z</time>
      </trkpt>
      <trkpt lat="46.72363" lon="6.51117">
        <ele>527.4</ele>
        <time>2019-12-25T07:42:21.289Z</time>
      </trkpt>
      <trkpt lat="46.72363" lon="6.51133">
        <ele>525.5</ele>
        <time>2019-12-25T07:42:23.484Z</time>
      </trkpt>
      <trkpt lat="46.72364" lon="6.51148">
        <ele>524.1</ele>
        <time>2019-12-25T07:42:25.552Z</time>
      </trkpt>
      <trkpt lat="46.72364" lon="6.51164">
        <ele>524.1</ele>
        <time>2019-12-25T07:42:27.747Z</time>
      </trkpt>
      <trkpt lat="46.72364" lon="6.51179">
        <ele>522.1</ele>
        <time>2019-12-25T07:42:29.805Z</time>
      </trkpt>
      <trkpt lat="46.7237" lon="6.51192">
        <ele>521.7</ele>
        <time>2019-12-25T07:42:31.955Z</time>
      </trkpt>
      <trkpt lat="46.7238" lon="6.51202">
        <ele>520.7</ele>
        <time>2019-12-25T07:42:34.382Z</time>
      </trkpt>
      <trkpt lat="46.7239" lon="6.51209">
        <ele>520.2</ele>
        <time>2019-12-25T07:42:36.602Z</time>
      </trkpt>
      <trkpt lat="46.724" lon="6.5122">
        <ele>519.7</ele>
        <time>2019-12-25T07:42:39.109Z</time>
      </trkpt>
      <trkpt lat="46.72408" lon="6.51233">
        <ele>517.8</ele>
        <time>2019-12-25T07:42:41.506Z</time>
      </trkpt>
      <trkpt lat="46.72415" lon="6.51243">
        <ele>517.3</ele>
        <time>2019-12-25T07:42:43.467Z</time>
      </trkpt>
      <trkpt lat="46.72426" lon="6.51249">
        <ele>517.3</ele>
        <time>2019-12-25T07:42:45.818Z</time>
      </trkpt>
      <trkpt lat="46.72433" lon="6.51256">
        <ele>516.8</ele>
        <time>2019-12-25T07:42:47.517Z</time>
      </trkpt>
      <trkpt lat="46.72444" lon="6.51265">
        <ele>515.4</ele>
        <time>2019-12-25T07:42:50.041Z</time>
      </trkpt>
      <trkpt lat="46.72456" lon="6.5127">
        <ele>514.9</ele>
        <time>2019-12-25T07:42:52.539Z</time>
      </trkpt>
      <trkpt lat="46.72469" lon="6.51276">
        <ele>514.4</ele>
        <time>2019-12-25T07:42:55.268Z</time>
      </trkpt>
      <trkpt lat="46.72483" lon="6.51285">
        <ele>513.5</ele>
        <time>2019-12-25T07:42:58.330Z</time>
      </trkpt>
      <trkpt lat="46.72493" lon="6.51296">
        <ele>513.5</ele>
        <time>2019-12-25T07:43:00.837Z</time>
      </trkpt>
      <trkpt lat="46.725" lon="6.51308">
        <ele>511.1</ele>
        <time>2019-12-25T07:43:02.999Z</time>
      </trkpt>
      <trkpt lat="46.72507" lon="6.51319">
        <ele>509.6</ele>
        <time>2019-12-25T07:43:05.058Z</time>
      </trkpt>
      <trkpt lat="46.72514" lon="6.51329">
        <ele>507.7</ele>
        <time>2019-12-25T07:43:07.019Z</time>
      </trkpt>
      <trkpt lat="46.72521" lon="6.51341">
        <ele>506.3</ele>
        <time>2019-12-25T07:43:09.181Z</time>
      </trkpt>
      <trkpt lat="46.7252" lon="6.51354">
        <ele>503.4</ele>
        <time>2019-12-25T07:43:10.976Z</time>
      </trkpt>
      <trkpt lat="46.7251" lon="6.51362">
        <ele>501.5</ele>
        <time>2019-12-25T07:43:13.259Z</time>
      </trkpt>
      <trkpt lat="46.72502" lon="6.5137">
        <ele>500.5</ele>
        <time>2019-12-25T07:43:15.200Z</time>
      </trkpt>
      <trkpt lat="46.72509" lon="6.51376">
        <ele>499.5</ele>
        <time>2019-12-25T07:43:16.825Z</time>
      </trkpt>
      <trkpt lat="46.72519" lon="6.51381">
        <ele>499.1</ele>
        <time>2019-12-25T07:43:18.941Z</time>
      </trkpt>
      <trkpt lat="46.72528" lon="6.51384">
        <ele>497.6</ele>
        <time>2019-12-25T07:43:20.789Z</time>
      </trkpt>
      <trkpt lat="46.7254" lon="6.51387">
        <ele>494.7</ele>
        <time>2019-12-25T07:43:23.226Z</time>
      </trkpt>
      <trkpt lat="46.72551" lon="6.5139">
        <ele>494.7</ele>
        <time>2019-12-25T07:43:25.466Z</time>
      </trkpt>
      <trkpt lat="46.72563" lon="6.51391">
        <ele>492.8</ele>
        <time>2019-12-25T07:43:27.872Z</time>
      </trkpt>
      <trkpt lat="46.72575" lon="6.51393">
        <ele>490.9</ele>
        <time>2019-12-25T07:43:30.289Z</time>
      </trkpt>
      <trkpt lat="46.72586" lon="6.51401">
        <ele>489.9</ele>
        <time>2019-12-25T07:43:32.749Z</time>
      </trkpt>
      <trkpt lat="46.72591" lon="6.51415">
        <ele>488</ele>
        <time>2019-12-25T07:43:34.915Z</time>
      </trkpt>
      <trkpt lat="46.72595" lon="6.51429">
        <ele>487.5</ele>
        <time>2019-12-25T07:43:36.996Z</time>
      </trkpt>
      <trkpt lat="46.72603" lon="6.51441">
        <ele>485.6</ele>
        <time>2019-12-25T07:43:39.293Z</time>
      </trkpt>
      <trkpt lat="46.72609" lon="6.51452">
        <ele>485.1</ele>
        <time>2019-12-25T07:43:41.222Z</time>
      </trkpt>
      <trkpt lat="46.72618" lon="6.51461">
        <ele>484.6</ele>
        <time>2019-12-25T07:43:43.406Z</time>
      </trkpt>
      <trkpt lat="46.72628" lon="6.51455">
        <ele>483.7</ele>
        <time>2019-12-25T07:43:45.570Z</time>
      </trkpt>
      <trkpt lat="46.72638" lon="6.51451">
        <ele>483.2</ele>
        <time>2019-12-25T07:43:47.645Z</time>
      </trkpt>
      <trkpt lat="46.72647" lon="6.51461">
        <ele>484.2</ele>
        <time>2019-12-25T07:43:49.909Z</time>
      </trkpt>
      <trkpt lat="46.72656" lon="6.51469">
        <ele>484.2</ele>
        <time>2019-12-25T07:43:52.018Z</time>
      </trkpt>
      <trkpt lat="46.72656" lon="6.51468">
        <ele>483.2</ele>
        <time>2019-12-25T07:43:52.155Z</time>
      </trkpt>
      <trkpt lat="46.72663" lon="6.51472">
        <ele>484.6</ele>
        <time>2019-12-25T07:43:53.660Z</time>
      </trkpt>
      <trkpt lat="46.72673" lon="6.51457">
        <ele>486.1</ele>
        <time>2019-12-25T07:43:56.531Z</time>
      </trkpt>
      <trkpt lat="46.72678" lon="6.5145">
        <ele>487</ele>
        <time>2019-12-25T07:43:57.918Z</time>
      </trkpt>
      <trkpt lat="46.72687" lon="6.51434">
        <ele>488.5</ele>
        <time>2019-12-25T07:44:00.758Z</time>
      </trkpt>
      <trkpt lat="46.72691" lon="6.51427">
        <ele>489.5</ele>
        <time>2019-12-25T07:44:02.008Z</time>
      </trkpt>
      <trkpt lat="46.727" lon="6.51411">
        <ele>490.4</ele>
        <time>2019-12-25T07:44:04.848Z</time>
      </trkpt>
      <trkpt lat="46.72705" lon="6.51417">
        <ele>491.9</ele>
        <time>2019-12-25T07:44:06.144Z</time>
      </trkpt>
      <trkpt lat="46.72698" lon="6.51427">
        <ele>492.8</ele>
        <time>2019-12-25T07:44:08.105Z</time>
      </trkpt>
      <trkpt lat="46.72689" lon="6.51443">
        <ele>494.7</ele>
        <time>2019-12-25T07:44:10.945Z</time>
      </trkpt>
      <trkpt lat="46.72681" lon="6.51458">
        <ele>495.2</ele>
        <time>2019-12-25T07:44:13.553Z</time>
      </trkpt>
      <trkpt lat="46.72673" lon="6.51476">
        <ele>496.2</ele>
        <time>2019-12-25T07:44:16.496Z</time>
      </trkpt>
      <trkpt lat="46.72678" lon="6.51482">
        <ele>497.1</ele>
        <time>2019-12-25T07:44:17.792Z</time>
      </trkpt>
      <trkpt lat="46.72685" lon="6.51469">
        <ele>499.1</ele>
        <time>2019-12-25T07:44:20.060Z</time>
      </trkpt>
      <trkpt lat="46.72695" lon="6.5145">
        <ele>501</ele>
        <time>2019-12-25T07:44:23.347Z</time>
      </trkpt>
      <trkpt lat="46.72702" lon="6.5144">
        <ele>502.9</ele>
        <time>2019-12-25T07:44:25.308Z</time>
      </trkpt>
      <trkpt lat="46.72709" lon="6.51427">
        <ele>503.9</ele>
        <time>2019-12-25T07:44:27.576Z</time>
      </trkpt>
      <trkpt lat="46.72716" lon="6.51414">
        <ele>505.3</ele>
        <time>2019-12-25T07:44:29.844Z</time>
      </trkpt>
      <trkpt lat="46.72723" lon="6.51401">
        <ele>506.8</ele>
        <time>2019-12-25T07:44:32.112Z</time>
      </trkpt>
      <trkpt lat="46.7273" lon="6.51387">
        <ele>507.7</ele>
        <time>2019-12-25T07:44:34.489Z</time>
      </trkpt>
      <trkpt lat="46.72737" lon="6.51375">
        <ele>508.7</ele>
        <time>2019-12-25T07:44:36.651Z</time>
      </trkpt>
      <trkpt lat="46.72743" lon="6.51364">
        <ele>509.2</ele>
        <time>2019-12-25T07:44:38.580Z</time>
      </trkpt>
      <trkpt lat="46.7275" lon="6.51353">
        <ele>510.6</ele>
        <time>2019-12-25T07:44:40.639Z</time>
      </trkpt>
      <trkpt lat="46.72757" lon="6.51342">
        <ele>511.1</ele>
        <time>2019-12-25T07:44:42.698Z</time>
      </trkpt>
      <trkpt lat="46.72762" lon="6.51331">
        <ele>511.6</ele>
        <time>2019-12-25T07:44:44.509Z</time>
      </trkpt>
      <trkpt lat="46.72772" lon="6.51308">
        <ele>513</ele>
        <time>2019-12-25T07:44:48.246Z</time>
      </trkpt>
      <trkpt lat="46.72782" lon="6.51287">
        <ele>514</ele>
        <time>2019-12-25T07:44:51.754Z</time>
      </trkpt>
      <trkpt lat="46.72794" lon="6.51271">
        <ele>514.4</ele>
        <time>2019-12-25T07:44:55.008Z</time>
      </trkpt>
      <trkpt lat="46.72809" lon="6.51266">
        <ele>515.4</ele>
        <time>2019-12-25T07:44:58.088Z</time>
      </trkpt>
      <trkpt lat="46.72825" lon="6.51269">
        <ele>516.8</ele>
        <time>2019-12-25T07:45:01.317Z</time>
      </trkpt>
      <trkpt lat="46.72839" lon="6.51274">
        <ele>517.8</ele>
        <time>2019-12-25T07:45:04.202Z</time>
      </trkpt>
      <trkpt lat="46.72847" lon="6.51284">
        <ele>518.3</ele>
        <time>2019-12-25T07:45:06.311Z</time>
      </trkpt>
      <trkpt lat="46.72847" lon="6.51297">
        <ele>518.8</ele>
        <time>2019-12-25T07:45:08.095Z</time>
      </trkpt>
      <trkpt lat="46.72842" lon="6.51314">
        <ele>518.8</ele>
        <time>2019-12-25T07:45:10.633Z</time>
      </trkpt>
      <trkpt lat="46.72836" lon="6.51332">
        <ele>519.2</ele>
        <time>2019-12-25T07:45:13.379Z</time>
      </trkpt>
      <trkpt lat="46.72831" lon="6.51351">
        <ele>520.2</ele>
        <time>2019-12-25T07:45:16.171Z</time>
      </trkpt>
      <trkpt lat="46.7283" lon="6.5137">
        <ele>520.2</ele>
        <time>2019-12-25T07:45:18.785Z</time>
      </trkpt>
      <trkpt lat="46.72829" lon="6.51388">
        <ele>520.7</ele>
        <time>2019-12-25T07:45:21.263Z</time>
      </trkpt>
      <trkpt lat="46.7283" lon="6.51406">
        <ele>520.7</ele>
        <time>2019-12-25T07:45:23.741Z</time>
      </trkpt>
      <trkpt lat="46.72831" lon="6.51424">
        <ele>520.2</ele>
        <time>2019-12-25T07:45:26.219Z</time>
      </trkpt>
      <trkpt lat="46.72833" lon="6.51441">
        <ele>520.7</ele>
        <time>2019-12-25T07:45:28.585Z</time>
      </trkpt>
      <trkpt lat="46.72834" lon="6.51457">
        <ele>520.7</ele>
        <time>2019-12-25T07:45:30.789Z</time>
      </trkpt>
      <trkpt lat="46.72835" lon="6.51472">
        <ele>520.7</ele>
        <time>2019-12-25T07:45:32.857Z</time>
      </trkpt>
      <trkpt lat="46.72835" lon="6.51493">
        <ele>520.2</ele>
        <time>2019-12-25T07:45:35.738Z</time>
      </trkpt>
      <trkpt lat="46.72833" lon="6.5151">
        <ele>519.2</ele>
        <time>2019-12-25T07:45:38.104Z</time>
      </trkpt>
      <trkpt lat="46.72827" lon="6.5152">
        <ele>519.2</ele>
        <time>2019-12-25T07:45:39.927Z</time>
      </trkpt>
      <trkpt lat="46.72815" lon="6.51519">
        <ele>519.2</ele>
        <time>2019-12-25T07:45:42.333Z</time>
      </trkpt>
      <trkpt lat="46.728" lon="6.51518">
        <ele>520.2</ele>
        <time>2019-12-25T07:45:45.338Z</time>
      </trkpt>
      <trkpt lat="46.72784" lon="6.51517">
        <ele>519.7</ele>
        <time>2019-12-25T07:45:48.543Z</time>
      </trkpt>
      <trkpt lat="46.72768" lon="6.51516">
        <ele>520.7</ele>
        <time>2019-12-25T07:45:51.748Z</time>
      </trkpt>
      <trkpt lat="46.72754" lon="6.51515">
        <ele>522.1</ele>
        <time>2019-12-25T07:45:54.553Z</time>
      </trkpt>
      <trkpt lat="46.72742" lon="6.51514">
        <ele>522.6</ele>
        <time>2019-12-25T07:45:56.959Z</time>
      </trkpt>
      <trkpt lat="46.72733" lon="6.51513">
        <ele>522.6</ele>
        <time>2019-12-25T07:45:58.766Z</time>
      </trkpt>
      <trkpt lat="46.7272" lon="6.51518">
        <ele>521.7</ele>
        <time>2019-12-25T07:46:01.457Z</time>
      </trkpt>
      <trkpt lat="46.72716" lon="6.51535">
        <ele>522.1</ele>
        <time>2019-12-25T07:46:03.923Z</time>
      </trkpt>
      <trkpt lat="46.72717" lon="6.51548">
        <ele>521.7</ele>
        <time>2019-12-25T07:46:05.718Z</time>
      </trkpt>
      <trkpt lat="46.72725" lon="6.51563">
        <ele>522.1</ele>
        <time>2019-12-25T07:46:08.326Z</time>
      </trkpt>
      <trkpt lat="46.72733" lon="6.51577">
        <ele>522.6</ele>
        <time>2019-12-25T07:46:10.827Z</time>
      </trkpt>
      <trkpt lat="46.72738" lon="6.51591">
        <ele>521.7</ele>
        <time>2019-12-25T07:46:12.993Z</time>
      </trkpt>
      <trkpt lat="46.72743" lon="6.51606">
        <ele>520.2</ele>
        <time>2019-12-25T07:46:15.281Z</time>
      </trkpt>
      <trkpt lat="46.72748" lon="6.51621">
        <ele>519.7</ele>
        <time>2019-12-25T07:46:17.569Z</time>
      </trkpt>
      <trkpt lat="46.72753" lon="6.51638">
        <ele>518.8</ele>
        <time>2019-12-25T07:46:20.107Z</time>
      </trkpt>
      <trkpt lat="46.72756" lon="6.51652">
        <ele>518.3</ele>
        <time>2019-12-25T07:46:22.119Z</time>
      </trkpt>
      <trkpt lat="46.7276" lon="6.51667">
        <ele>518.3</ele>
        <time>2019-12-25T07:46:24.327Z</time>
      </trkpt>
      <trkpt lat="46.72762" lon="6.51684">
        <ele>519.2</ele>
        <time>2019-12-25T07:46:26.693Z</time>
      </trkpt>
      <trkpt lat="46.72763" lon="6.51698">
        <ele>520.2</ele>
        <time>2019-12-25T07:46:28.624Z</time>
      </trkpt>
      <trkpt lat="46.72764" lon="6.51716">
        <ele>520.2</ele>
        <time>2019-12-25T07:46:31.102Z</time>
      </trkpt>
      <trkpt lat="46.72766" lon="6.5173">
        <ele>518.8</ele>
        <time>2019-12-25T07:46:33.064Z</time>
      </trkpt>
      <trkpt lat="46.72771" lon="6.51743">
        <ele>517.8</ele>
        <time>2019-12-25T07:46:35.109Z</time>
      </trkpt>
      <trkpt lat="46.7278" lon="6.51749">
        <ele>516.4</ele>
        <time>2019-12-25T07:46:37.090Z</time>
      </trkpt>
      <trkpt lat="46.72792" lon="6.51755">
        <ele>515.4</ele>
        <time>2019-12-25T07:46:39.629Z</time>
      </trkpt>
      <trkpt lat="46.72802" lon="6.51755">
        <ele>515.4</ele>
        <time>2019-12-25T07:46:41.631Z</time>
      </trkpt>
      <trkpt lat="46.72812" lon="6.51753">
        <ele>515.4</ele>
        <time>2019-12-25T07:46:43.651Z</time>
      </trkpt>
      <trkpt lat="46.72822" lon="6.51745">
        <ele>516.8</ele>
        <time>2019-12-25T07:46:45.934Z</time>
      </trkpt>
      <trkpt lat="46.72828" lon="6.51729">
        <ele>517.8</ele>
        <time>2019-12-25T07:46:48.436Z</time>
      </trkpt>
      <trkpt lat="46.72834" lon="6.51712">
        <ele>517.8</ele>
        <time>2019-12-25T07:46:51.059Z</time>
      </trkpt>
      <trkpt lat="46.72844" lon="6.517">
        <ele>519.2</ele>
        <time>2019-12-25T07:46:53.651Z</time>
      </trkpt>
      <trkpt lat="46.72859" lon="6.51691">
        <ele>521.2</ele>
        <time>2019-12-25T07:46:56.897Z</time>
      </trkpt>
      <trkpt lat="46.72876" lon="6.51681">
        <ele>523.1</ele>
        <time>2019-12-25T07:47:00.566Z</time>
      </trkpt>
      <trkpt lat="46.7289" lon="6.51673">
        <ele>524.1</ele>
        <time>2019-12-25T07:47:03.575Z</time>
      </trkpt>
      <trkpt lat="46.72903" lon="6.51666">
        <ele>525</ele>
        <time>2019-12-25T07:47:06.349Z</time>
      </trkpt>
      <trkpt lat="46.72915" lon="6.51665">
        <ele>525.5</ele>
        <time>2019-12-25T07:47:08.755Z</time>
      </trkpt>
      <trkpt lat="46.72927" lon="6.51672">
        <ele>526</ele>
        <time>2019-12-25T07:47:11.342Z</time>
      </trkpt>
      <trkpt lat="46.72937" lon="6.51681">
        <ele>526</ele>
        <time>2019-12-25T07:47:13.694Z</time>
      </trkpt>
      <trkpt lat="46.72947" lon="6.51689">
        <ele>526</ele>
        <time>2019-12-25T07:47:15.977Z</time>
      </trkpt>
      <trkpt lat="46.72956" lon="6.51697">
        <ele>526</ele>
        <time>2019-12-25T07:47:18.086Z</time>
      </trkpt>
      <trkpt lat="46.72969" lon="6.51706">
        <ele>526.9</ele>
        <time>2019-12-25T07:47:20.966Z</time>
      </trkpt>
      <trkpt lat="46.72979" lon="6.51699">
        <ele>526.9</ele>
        <time>2019-12-25T07:47:23.186Z</time>
      </trkpt>
      <trkpt lat="46.72983" lon="6.51685">
        <ele>527.4</ele>
        <time>2019-12-25T07:47:25.267Z</time>
      </trkpt>
      <trkpt lat="46.72993" lon="6.51672">
        <ele>526.9</ele>
        <time>2019-12-25T07:47:27.948Z</time>
      </trkpt>
      <trkpt lat="46.73004" lon="6.51673">
        <ele>527.4</ele>
        <time>2019-12-25T07:47:30.154Z</time>
      </trkpt>
      <trkpt lat="46.73013" lon="6.5168">
        <ele>526.9</ele>
        <time>2019-12-25T07:47:32.195Z</time>
      </trkpt>
      <trkpt lat="46.73023" lon="6.51687">
        <ele>526.9</ele>
        <time>2019-12-25T07:47:34.415Z</time>
      </trkpt>
      <trkpt lat="46.73034" lon="6.51696">
        <ele>526.9</ele>
        <time>2019-12-25T07:47:36.939Z</time>
      </trkpt>
      <trkpt lat="46.73044" lon="6.51704">
        <ele>526.9</ele>
        <time>2019-12-25T07:47:39.222Z</time>
      </trkpt>
      <trkpt lat="46.73055" lon="6.51712">
        <ele>526.9</ele>
        <time>2019-12-25T07:47:41.682Z</time>
      </trkpt>
      <trkpt lat="46.73065" lon="6.5172">
        <ele>526.5</ele>
        <time>2019-12-25T07:47:43.965Z</time>
      </trkpt>
      <trkpt lat="46.73076" lon="6.51728">
        <ele>527.4</ele>
        <time>2019-12-25T07:47:46.425Z</time>
      </trkpt>
      <trkpt lat="46.73086" lon="6.51735">
        <ele>527.4</ele>
        <time>2019-12-25T07:47:48.645Z</time>
      </trkpt>
      <trkpt lat="46.73096" lon="6.51743">
        <ele>526.5</ele>
        <time>2019-12-25T07:47:50.928Z</time>
      </trkpt>
      <trkpt lat="46.73106" lon="6.51751">
        <ele>526.5</ele>
        <time>2019-12-25T07:47:53.211Z</time>
      </trkpt>
      <trkpt lat="46.73117" lon="6.51759">
        <ele>526</ele>
        <time>2019-12-25T07:47:55.671Z</time>
      </trkpt>
      <trkpt lat="46.73127" lon="6.51767">
        <ele>526.5</ele>
        <time>2019-12-25T07:47:57.954Z</time>
      </trkpt>
      <trkpt lat="46.73137" lon="6.51774">
        <ele>526</ele>
        <time>2019-12-25T07:48:00.174Z</time>
      </trkpt>
      <trkpt lat="46.73147" lon="6.51781">
        <ele>526</ele>
        <time>2019-12-25T07:48:02.394Z</time>
      </trkpt>
      <trkpt lat="46.73156" lon="6.51789">
        <ele>526</ele>
        <time>2019-12-25T07:48:04.503Z</time>
      </trkpt>
      <trkpt lat="46.73165" lon="6.51796">
        <ele>526</ele>
        <time>2019-12-25T07:48:06.544Z</time>
      </trkpt>
      <trkpt lat="46.73174" lon="6.51803">
        <ele>525.5</ele>
        <time>2019-12-25T07:48:08.585Z</time>
      </trkpt>
      <trkpt lat="46.73183" lon="6.51809">
        <ele>525.5</ele>
        <time>2019-12-25T07:48:10.566Z</time>
      </trkpt>
      <trkpt lat="46.73191" lon="6.51815">
        <ele>525.5</ele>
        <time>2019-12-25T07:48:12.366Z</time>
      </trkpt>
      <trkpt lat="46.73199" lon="6.51822">
        <ele>525.5</ele>
        <time>2019-12-25T07:48:14.233Z</time>
      </trkpt>
      <trkpt lat="46.73211" lon="6.51831">
        <ele>525</ele>
        <time>2019-12-25T07:48:16.934Z</time>
      </trkpt>
      <trkpt lat="46.73222" lon="6.51839">
        <ele>523.6</ele>
        <time>2019-12-25T07:48:19.394Z</time>
      </trkpt>
      <trkpt lat="46.73234" lon="6.51847">
        <ele>522.6</ele>
        <time>2019-12-25T07:48:22.035Z</time>
      </trkpt>
      <trkpt lat="46.73245" lon="6.51857">
        <ele>521.7</ele>
        <time>2019-12-25T07:48:24.629Z</time>
      </trkpt>
      <trkpt lat="46.73254" lon="6.51863">
        <ele>520.7</ele>
        <time>2019-12-25T07:48:26.610Z</time>
      </trkpt>
      <trkpt lat="46.73262" lon="6.5187">
        <ele>520.7</ele>
        <time>2019-12-25T07:48:28.477Z</time>
      </trkpt>
      <trkpt lat="46.73271" lon="6.51876">
        <ele>520.2</ele>
        <time>2019-12-25T07:48:30.458Z</time>
      </trkpt>
      <trkpt lat="46.73281" lon="6.51884">
        <ele>520.2</ele>
        <time>2019-12-25T07:48:32.741Z</time>
      </trkpt>
      <trkpt lat="46.7329" lon="6.51891">
        <ele>519.7</ele>
        <time>2019-12-25T07:48:34.782Z</time>
      </trkpt>
      <trkpt lat="46.73299" lon="6.519">
        <ele>519.2</ele>
        <time>2019-12-25T07:48:36.966Z</time>
      </trkpt>
      <trkpt lat="46.73307" lon="6.51906">
        <ele>518.8</ele>
        <time>2019-12-25T07:48:38.766Z</time>
      </trkpt>
      <trkpt lat="46.73318" lon="6.519">
        <ele>519.2</ele>
        <time>2019-12-25T07:48:41.116Z</time>
      </trkpt>
      <trkpt lat="46.73323" lon="6.51886">
        <ele>520.7</ele>
        <time>2019-12-25T07:48:43.282Z</time>
      </trkpt>
      <trkpt lat="46.73329" lon="6.51866">
        <ele>522.1</ele>
        <time>2019-12-25T07:48:46.277Z</time>
      </trkpt>
      <trkpt lat="46.73336" lon="6.51844">
        <ele>522.6</ele>
        <time>2019-12-25T07:48:49.604Z</time>
      </trkpt>
      <trkpt lat="46.73344" lon="6.51821">
        <ele>523.1</ele>
        <time>2019-12-25T07:48:53.142Z</time>
      </trkpt>
      <trkpt lat="46.73348" lon="6.51809">
        <ele>523.6</ele>
        <time>2019-12-25T07:48:54.973Z</time>
      </trkpt>
      <trkpt lat="46.73356" lon="6.51784">
        <ele>523.6</ele>
        <time>2019-12-25T07:48:58.758Z</time>
      </trkpt>
      <trkpt lat="46.7336" lon="6.51772">
        <ele>524.5</ele>
        <time>2019-12-25T07:49:00.589Z</time>
      </trkpt>
      <trkpt lat="46.73367" lon="6.51748">
        <ele>525.5</ele>
        <time>2019-12-25T07:49:04.167Z</time>
      </trkpt>
      <trkpt lat="46.73375" lon="6.51727">
        <ele>527.4</ele>
        <time>2019-12-25T07:49:07.463Z</time>
      </trkpt>
      <trkpt lat="46.73381" lon="6.51708">
        <ele>527.9</ele>
        <time>2019-12-25T07:49:10.333Z</time>
      </trkpt>
      <trkpt lat="46.73386" lon="6.5169">
        <ele>528.4</ele>
        <time>2019-12-25T07:49:12.997Z</time>
      </trkpt>
      <trkpt lat="46.73391" lon="6.51675">
        <ele>528.9</ele>
        <time>2019-12-25T07:49:15.285Z</time>
      </trkpt>
      <trkpt lat="46.73396" lon="6.5166">
        <ele>528.4</ele>
        <time>2019-12-25T07:49:17.573Z</time>
      </trkpt>
      <trkpt lat="46.734" lon="6.51647">
        <ele>528.9</ele>
        <time>2019-12-25T07:49:19.528Z</time>
      </trkpt>
      <trkpt lat="46.73405" lon="6.51635">
        <ele>527.9</ele>
        <time>2019-12-25T07:49:21.454Z</time>
      </trkpt>
      <trkpt lat="46.73409" lon="6.51621">
        <ele>528.4</ele>
        <time>2019-12-25T07:49:23.535Z</time>
      </trkpt>
      <trkpt lat="46.73413" lon="6.51609">
        <ele>527.4</ele>
        <time>2019-12-25T07:49:25.366Z</time>
      </trkpt>
      <trkpt lat="46.73417" lon="6.51596">
        <ele>526.9</ele>
        <time>2019-12-25T07:49:27.321Z</time>
      </trkpt>
      <trkpt lat="46.73422" lon="6.51579">
        <ele>526.5</ele>
        <time>2019-12-25T07:49:29.859Z</time>
      </trkpt>
      <trkpt lat="46.73431" lon="6.51573">
        <ele>526.5</ele>
        <time>2019-12-25T07:49:31.839Z</time>
      </trkpt>
      <trkpt lat="46.73442" lon="6.51576">
        <ele>526.9</ele>
        <time>2019-12-25T07:49:34.079Z</time>
      </trkpt>
      <trkpt lat="46.73455" lon="6.51576">
        <ele>526.5</ele>
        <time>2019-12-25T07:49:36.681Z</time>
      </trkpt>
      <trkpt lat="46.73469" lon="6.51574">
        <ele>526.5</ele>
        <time>2019-12-25T07:49:39.497Z</time>
      </trkpt>
      <trkpt lat="46.73482" lon="6.5157">
        <ele>526.5</ele>
        <time>2019-12-25T07:49:42.156Z</time>
      </trkpt>
      <trkpt lat="46.73496" lon="6.51565">
        <ele>526</ele>
        <time>2019-12-25T07:49:45.041Z</time>
      </trkpt>
      <trkpt lat="46.7351" lon="6.5156">
        <ele>526.5</ele>
        <time>2019-12-25T07:49:47.926Z</time>
      </trkpt>
      <trkpt lat="46.73524" lon="6.51555">
        <ele>526</ele>
        <time>2019-12-25T07:49:50.811Z</time>
      </trkpt>
      <trkpt lat="46.73538" lon="6.51553">
        <ele>526</ele>
        <time>2019-12-25T07:49:53.627Z</time>
      </trkpt>
      <trkpt lat="46.73552" lon="6.51553">
        <ele>526</ele>
        <time>2019-12-25T07:49:56.429Z</time>
      </trkpt>
      <trkpt lat="46.73565" lon="6.51553">
        <ele>525.5</ele>
        <time>2019-12-25T07:49:59.031Z</time>
      </trkpt>
      <trkpt lat="46.73579" lon="6.51554">
        <ele>525.5</ele>
        <time>2019-12-25T07:50:01.836Z</time>
      </trkpt>
      <trkpt lat="46.73593" lon="6.51557">
        <ele>525.5</ele>
        <time>2019-12-25T07:50:04.668Z</time>
      </trkpt>
      <trkpt lat="46.73606" lon="6.51559">
        <ele>525</ele>
        <time>2019-12-25T07:50:07.284Z</time>
      </trkpt>
      <trkpt lat="46.73619" lon="6.51564">
        <ele>524.5</ele>
        <time>2019-12-25T07:50:09.975Z</time>
      </trkpt>
      <trkpt lat="46.73632" lon="6.51571">
        <ele>525.5</ele>
        <time>2019-12-25T07:50:12.748Z</time>
      </trkpt>
      <trkpt lat="46.73645" lon="6.51581">
        <ele>525</ele>
        <time>2019-12-25T07:50:15.689Z</time>
      </trkpt>
      <trkpt lat="46.73657" lon="6.5159">
        <ele>524.1</ele>
        <time>2019-12-25T07:50:18.390Z</time>
      </trkpt>
      <trkpt lat="46.73669" lon="6.51599">
        <ele>524.1</ele>
        <time>2019-12-25T07:50:21.091Z</time>
      </trkpt>
      <trkpt lat="46.73682" lon="6.51607">
        <ele>523.6</ele>
        <time>2019-12-25T07:50:23.915Z</time>
      </trkpt>
      <trkpt lat="46.73695" lon="6.51615">
        <ele>523.6</ele>
        <time>2019-12-25T07:50:26.739Z</time>
      </trkpt>
      <trkpt lat="46.73707" lon="6.51624">
        <ele>523.6</ele>
        <time>2019-12-25T07:50:29.440Z</time>
      </trkpt>
      <trkpt lat="46.7372" lon="6.51634">
        <ele>523.6</ele>
        <time>2019-12-25T07:50:32.381Z</time>
      </trkpt>
      <trkpt lat="46.73731" lon="6.51643">
        <ele>523.1</ele>
        <time>2019-12-25T07:50:34.905Z</time>
      </trkpt>
      <trkpt lat="46.73742" lon="6.51654">
        <ele>523.1</ele>
        <time>2019-12-25T07:50:37.574Z</time>
      </trkpt>
      <trkpt lat="46.73754" lon="6.51664">
        <ele>522.6</ele>
        <time>2019-12-25T07:50:40.340Z</time>
      </trkpt>
      <trkpt lat="46.73766" lon="6.51673">
        <ele>523.1</ele>
        <time>2019-12-25T07:50:43.041Z</time>
      </trkpt>
      <trkpt lat="46.73779" lon="6.5168">
        <ele>521.7</ele>
        <time>2019-12-25T07:50:45.814Z</time>
      </trkpt>
      <trkpt lat="46.73793" lon="6.51686">
        <ele>522.1</ele>
        <time>2019-12-25T07:50:48.734Z</time>
      </trkpt>
      <trkpt lat="46.73807" lon="6.51693">
        <ele>521.7</ele>
        <time>2019-12-25T07:50:51.696Z</time>
      </trkpt>
      <trkpt lat="46.73821" lon="6.517">
        <ele>521.7</ele>
        <time>2019-12-25T07:50:54.658Z</time>
      </trkpt>
      <trkpt lat="46.73835" lon="6.51708">
        <ele>521.2</ele>
        <time>2019-12-25T07:50:57.667Z</time>
      </trkpt>
      <trkpt lat="46.73849" lon="6.51717">
        <ele>521.7</ele>
        <time>2019-12-25T07:51:00.729Z</time>
      </trkpt>
      <trkpt lat="46.73863" lon="6.51727">
        <ele>521.7</ele>
        <time>2019-12-25T07:51:03.849Z</time>
      </trkpt>
      <trkpt lat="46.73877" lon="6.51736">
        <ele>521.2</ele>
        <time>2019-12-25T07:51:06.911Z</time>
      </trkpt>
      <trkpt lat="46.73891" lon="6.51744">
        <ele>521.2</ele>
        <time>2019-12-25T07:51:09.920Z</time>
      </trkpt>
      <trkpt lat="46.73905" lon="6.51752">
        <ele>520.7</ele>
        <time>2019-12-25T07:51:12.929Z</time>
      </trkpt>
      <trkpt lat="46.73919" lon="6.51761">
        <ele>521.2</ele>
        <time>2019-12-25T07:51:15.991Z</time>
      </trkpt>
      <trkpt lat="46.73932" lon="6.5177">
        <ele>520.7</ele>
        <time>2019-12-25T07:51:18.871Z</time>
      </trkpt>
      <trkpt lat="46.73946" lon="6.51779">
        <ele>520.7</ele>
        <time>2019-12-25T07:51:21.933Z</time>
      </trkpt>
      <trkpt lat="46.73959" lon="6.51788">
        <ele>521.2</ele>
        <time>2019-12-25T07:51:24.813Z</time>
      </trkpt>
      <trkpt lat="46.73973" lon="6.51797">
        <ele>520.2</ele>
        <time>2019-12-25T07:51:27.875Z</time>
      </trkpt>
      <trkpt lat="46.73987" lon="6.51805">
        <ele>521.2</ele>
        <time>2019-12-25T07:51:30.884Z</time>
      </trkpt>
      <trkpt lat="46.74" lon="6.51814">
        <ele>520.7</ele>
        <time>2019-12-25T07:51:33.764Z</time>
      </trkpt>
      <trkpt lat="46.74015" lon="6.51823">
        <ele>520.7</ele>
        <time>2019-12-25T07:51:37.010Z</time>
      </trkpt>
      <trkpt lat="46.7403" lon="6.51832">
        <ele>520.2</ele>
        <time>2019-12-25T07:51:40.256Z</time>
      </trkpt>
      <trkpt lat="46.74044" lon="6.51841">
        <ele>520.7</ele>
        <time>2019-12-25T07:51:43.318Z</time>
      </trkpt>
      <trkpt lat="46.74058" lon="6.51849">
        <ele>520.7</ele>
        <time>2019-12-25T07:51:46.327Z</time>
      </trkpt>
      <trkpt lat="46.74073" lon="6.51857">
        <ele>520.2</ele>
        <time>2019-12-25T07:51:49.524Z</time>
      </trkpt>
      <trkpt lat="46.74087" lon="6.51866">
        <ele>520.2</ele>
        <time>2019-12-25T07:51:52.586Z</time>
      </trkpt>
      <trkpt lat="46.74102" lon="6.51874">
        <ele>520.2</ele>
        <time>2019-12-25T07:51:55.783Z</time>
      </trkpt>
      <trkpt lat="46.74116" lon="6.51882">
        <ele>520.2</ele>
        <time>2019-12-25T07:51:58.792Z</time>
      </trkpt>
      <trkpt lat="46.74129" lon="6.5189">
        <ele>520.2</ele>
        <time>2019-12-25T07:52:01.616Z</time>
      </trkpt>
      <trkpt lat="46.74146" lon="6.51892">
        <ele>520.7</ele>
        <time>2019-12-25T07:52:05.030Z</time>
      </trkpt>
      <trkpt lat="46.74162" lon="6.51888">
        <ele>520.7</ele>
        <time>2019-12-25T07:52:08.279Z</time>
      </trkpt>
      <trkpt lat="46.74175" lon="6.51885">
        <ele>520.7</ele>
        <time>2019-12-25T07:52:10.913Z</time>
      </trkpt>
      <trkpt lat="46.74187" lon="6.51882">
        <ele>520.7</ele>
        <time>2019-12-25T07:52:13.350Z</time>
      </trkpt>
      <trkpt lat="46.74199" lon="6.51879">
        <ele>521.2</ele>
        <time>2019-12-25T07:52:15.787Z</time>
      </trkpt>
      <trkpt lat="46.74212" lon="6.51875">
        <ele>522.1</ele>
        <time>2019-12-25T07:52:18.446Z</time>
      </trkpt>
      <trkpt lat="46.74224" lon="6.51877">
        <ele>521.7</ele>
        <time>2019-12-25T07:52:20.863Z</time>
      </trkpt>
      <trkpt lat="46.74235" lon="6.51881">
        <ele>521.7</ele>
        <time>2019-12-25T07:52:23.132Z</time>
      </trkpt>
      <trkpt lat="46.74246" lon="6.51884">
        <ele>521.7</ele>
        <time>2019-12-25T07:52:25.372Z</time>
      </trkpt>
      <trkpt lat="46.74256" lon="6.51889">
        <ele>521.7</ele>
        <time>2019-12-25T07:52:27.488Z</time>
      </trkpt>
      <trkpt lat="46.74266" lon="6.51892">
        <ele>522.1</ele>
        <time>2019-12-25T07:52:29.531Z</time>
      </trkpt>
      <trkpt lat="46.74276" lon="6.51894">
        <ele>522.6</ele>
        <time>2019-12-25T07:52:31.551Z</time>
      </trkpt>
      <trkpt lat="46.74289" lon="6.51898">
        <ele>522.6</ele>
        <time>2019-12-25T07:52:34.210Z</time>
      </trkpt>
      <trkpt lat="46.74298" lon="6.519">
        <ele>522.6</ele>
        <time>2019-12-25T07:52:36.032Z</time>
      </trkpt>
      <trkpt lat="46.74312" lon="6.51903">
        <ele>521.2</ele>
        <time>2019-12-25T07:52:38.864Z</time>
      </trkpt>
      <trkpt lat="46.74322" lon="6.51905">
        <ele>520.7</ele>
        <time>2019-12-25T07:52:40.884Z</time>
      </trkpt>
      <trkpt lat="46.74332" lon="6.51907">
        <ele>519.7</ele>
        <time>2019-12-25T07:52:42.904Z</time>
      </trkpt>
      <trkpt lat="46.74343" lon="6.51909">
        <ele>520.2</ele>
        <time>2019-12-25T07:52:45.123Z</time>
      </trkpt>
      <trkpt lat="46.74355" lon="6.51909">
        <ele>519.7</ele>
        <time>2019-12-25T07:52:47.525Z</time>
      </trkpt>
      <trkpt lat="46.74368" lon="6.51907">
        <ele>520.2</ele>
        <time>2019-12-25T07:52:50.141Z</time>
      </trkpt>
      <trkpt lat="46.74382" lon="6.51904">
        <ele>520.7</ele>
        <time>2019-12-25T07:52:52.973Z</time>
      </trkpt>
      <trkpt lat="46.74395" lon="6.519">
        <ele>521.7</ele>
        <time>2019-12-25T07:52:55.632Z</time>
      </trkpt>
      <trkpt lat="46.74407" lon="6.51898">
        <ele>523.1</ele>
        <time>2019-12-25T07:52:58.049Z</time>
      </trkpt>
      <trkpt lat="46.74417" lon="6.51898">
        <ele>525</ele>
        <time>2019-12-25T07:53:00.051Z</time>
      </trkpt>
      <trkpt lat="46.74429" lon="6.51897">
        <ele>526</ele>
        <time>2019-12-25T07:53:02.457Z</time>
      </trkpt>
      <trkpt lat="46.7444" lon="6.51891">
        <ele>526.9</ele>
        <time>2019-12-25T07:53:04.807Z</time>
      </trkpt>
      <trkpt lat="46.7445" lon="6.51884">
        <ele>528.4</ele>
        <time>2019-12-25T07:53:07.027Z</time>
      </trkpt>
      <trkpt lat="46.7446" lon="6.51876">
        <ele>528.4</ele>
        <time>2019-12-25T07:53:09.310Z</time>
      </trkpt>
      <trkpt lat="46.74468" lon="6.51866">
        <ele>528.4</ele>
        <time>2019-12-25T07:53:11.418Z</time>
      </trkpt>
      <trkpt lat="46.74476" lon="6.51855">
        <ele>529.3</ele>
        <time>2019-12-25T07:53:13.618Z</time>
      </trkpt>
      <trkpt lat="46.74486" lon="6.51845">
        <ele>530.8</ele>
        <time>2019-12-25T07:53:16.044Z</time>
      </trkpt>
      <trkpt lat="46.74496" lon="6.51838">
        <ele>531.8</ele>
        <time>2019-12-25T07:53:18.264Z</time>
      </trkpt>
      <trkpt lat="46.74507" lon="6.51834">
        <ele>532.7</ele>
        <time>2019-12-25T07:53:20.533Z</time>
      </trkpt>
      <trkpt lat="46.74519" lon="6.51833">
        <ele>533.7</ele>
        <time>2019-12-25T07:53:22.939Z</time>
      </trkpt>
      <trkpt lat="46.74532" lon="6.51831">
        <ele>534.2</ele>
        <time>2019-12-25T07:53:25.555Z</time>
      </trkpt>
      <trkpt lat="46.74542" lon="6.5183">
        <ele>535.1</ele>
        <time>2019-12-25T07:53:27.561Z</time>
      </trkpt>
      <trkpt lat="46.74553" lon="6.51833">
        <ele>536.5</ele>
        <time>2019-12-25T07:53:29.801Z</time>
      </trkpt>
      <trkpt lat="46.74563" lon="6.51841">
        <ele>537</ele>
        <time>2019-12-25T07:53:32.084Z</time>
      </trkpt>
      <trkpt lat="46.74572" lon="6.51848">
        <ele>536.1</ele>
        <time>2019-12-25T07:53:34.125Z</time>
      </trkpt>
      <trkpt lat="46.74581" lon="6.51857">
        <ele>535.6</ele>
        <time>2019-12-25T07:53:36.309Z</time>
      </trkpt>
      <trkpt lat="46.7459" lon="6.51865">
        <ele>533.7</ele>
        <time>2019-12-25T07:53:38.418Z</time>
      </trkpt>
      <trkpt lat="46.74601" lon="6.51875">
        <ele>533.2</ele>
        <time>2019-12-25T07:53:41.012Z</time>
      </trkpt>
      <trkpt lat="46.7461" lon="6.51883">
        <ele>531.8</ele>
        <time>2019-12-25T07:53:43.121Z</time>
      </trkpt>
      <trkpt lat="46.74621" lon="6.51893">
        <ele>531.3</ele>
        <time>2019-12-25T07:53:45.715Z</time>
      </trkpt>
      <trkpt lat="46.74635" lon="6.51902">
        <ele>531.8</ele>
        <time>2019-12-25T07:53:48.777Z</time>
      </trkpt>
      <trkpt lat="46.74649" lon="6.5191">
        <ele>532.7</ele>
        <time>2019-12-25T07:53:51.786Z</time>
      </trkpt>
      <trkpt lat="46.74662" lon="6.51917">
        <ele>533.7</ele>
        <time>2019-12-25T07:53:54.559Z</time>
      </trkpt>
      <trkpt lat="46.74674" lon="6.51923">
        <ele>534.6</ele>
        <time>2019-12-25T07:53:57.098Z</time>
      </trkpt>
      <trkpt lat="46.74685" lon="6.51928">
        <ele>535.1</ele>
        <time>2019-12-25T07:53:59.404Z</time>
      </trkpt>
      <trkpt lat="46.74698" lon="6.51935">
        <ele>535.6</ele>
        <time>2019-12-25T07:54:02.177Z</time>
      </trkpt>
      <trkpt lat="46.74707" lon="6.51946">
        <ele>534.2</ele>
        <time>2019-12-25T07:54:04.527Z</time>
      </trkpt>
      <trkpt lat="46.74714" lon="6.5196">
        <ele>533.7</ele>
        <time>2019-12-25T07:54:06.904Z</time>
      </trkpt>
      <trkpt lat="46.7472" lon="6.51973">
        <ele>532.2</ele>
        <time>2019-12-25T07:54:09.054Z</time>
      </trkpt>
      <trkpt lat="46.74727" lon="6.51987">
        <ele>531.3</ele>
        <time>2019-12-25T07:54:11.431Z</time>
      </trkpt>
      <trkpt lat="46.74734" lon="6.52003">
        <ele>529.8</ele>
        <time>2019-12-25T07:54:14.034Z</time>
      </trkpt>
      <trkpt lat="46.7474" lon="6.5202">
        <ele>528.9</ele>
        <time>2019-12-25T07:54:16.657Z</time>
      </trkpt>
      <trkpt lat="46.74746" lon="6.52032">
        <ele>527.9</ele>
        <time>2019-12-25T07:54:18.694Z</time>
      </trkpt>
      <trkpt lat="46.74753" lon="6.52046">
        <ele>527.4</ele>
        <time>2019-12-25T07:54:21.071Z</time>
      </trkpt>
      <trkpt lat="46.74764" lon="6.52061">
        <ele>526.9</ele>
        <time>2019-12-25T07:54:24.084Z</time>
      </trkpt>
      <trkpt lat="46.74777" lon="6.52073">
        <ele>526.9</ele>
        <time>2019-12-25T07:54:27.163Z</time>
      </trkpt>
      <trkpt lat="46.7479" lon="6.52084">
        <ele>527.4</ele>
        <time>2019-12-25T07:54:30.171Z</time>
      </trkpt>
      <trkpt lat="46.74803" lon="6.52094">
        <ele>527.4</ele>
        <time>2019-12-25T07:54:33.112Z</time>
      </trkpt>
      <trkpt lat="46.74817" lon="6.52103">
        <ele>528.4</ele>
        <time>2019-12-25T07:54:36.174Z</time>
      </trkpt>
      <trkpt lat="46.7483" lon="6.52112">
        <ele>528.4</ele>
        <time>2019-12-25T07:54:39.054Z</time>
      </trkpt>
      <trkpt lat="46.74844" lon="6.52122">
        <ele>527.9</ele>
        <time>2019-12-25T07:54:42.174Z</time>
      </trkpt>
      <trkpt lat="46.74858" lon="6.52132">
        <ele>528.4</ele>
        <time>2019-12-25T07:54:45.294Z</time>
      </trkpt>
      <trkpt lat="46.74871" lon="6.52142">
        <ele>529.3</ele>
        <time>2019-12-25T07:54:48.235Z</time>
      </trkpt>
      <trkpt lat="46.74885" lon="6.52152">
        <ele>529.8</ele>
        <time>2019-12-25T07:54:51.355Z</time>
      </trkpt>
      <trkpt lat="46.74898" lon="6.52161">
        <ele>531.3</ele>
        <time>2019-12-25T07:54:54.235Z</time>
      </trkpt>
      <trkpt lat="46.74909" lon="6.52168">
        <ele>531.8</ele>
        <time>2019-12-25T07:54:56.637Z</time>
      </trkpt>
      <trkpt lat="46.74918" lon="6.52176">
        <ele>531.8</ele>
        <time>2019-12-25T07:54:58.746Z</time>
      </trkpt>
      <trkpt lat="46.74931" lon="6.52184">
        <ele>531.8</ele>
        <time>2019-12-25T07:55:01.570Z</time>
      </trkpt>
      <trkpt lat="46.74943" lon="6.52191">
        <ele>530.8</ele>
        <time>2019-12-25T07:55:04.157Z</time>
      </trkpt>
      <trkpt lat="46.74955" lon="6.52197">
        <ele>530.3</ele>
        <time>2019-12-25T07:55:06.696Z</time>
      </trkpt>
      <trkpt lat="46.74967" lon="6.52204">
        <ele>529.8</ele>
        <time>2019-12-25T07:55:09.283Z</time>
      </trkpt>
      <trkpt lat="46.74975" lon="6.52208">
        <ele>528.9</ele>
        <time>2019-12-25T07:55:10.976Z</time>
      </trkpt>
      <trkpt lat="46.74984" lon="6.52213">
        <ele>528.4</ele>
        <time>2019-12-25T07:55:12.903Z</time>
      </trkpt>
      <trkpt lat="46.74996" lon="6.52219">
        <ele>527.4</ele>
        <time>2019-12-25T07:55:15.442Z</time>
      </trkpt>
      <trkpt lat="46.75008" lon="6.52225">
        <ele>526.9</ele>
        <time>2019-12-25T07:55:17.981Z</time>
      </trkpt>
      <trkpt lat="46.7502" lon="6.5223">
        <ele>526</ele>
        <time>2019-12-25T07:55:20.479Z</time>
      </trkpt>
      <trkpt lat="46.75031" lon="6.52239">
        <ele>525.5</ele>
        <time>2019-12-25T07:55:23.003Z</time>
      </trkpt>
      <trkpt lat="46.75034" lon="6.52254">
        <ele>524.5</ele>
        <time>2019-12-25T07:55:25.146Z</time>
      </trkpt>
      <trkpt lat="46.7503" lon="6.52271">
        <ele>523.6</ele>
        <time>2019-12-25T07:55:27.611Z</time>
      </trkpt>
      <trkpt lat="46.75026" lon="6.5229">
        <ele>522.1</ele>
        <time>2019-12-25T07:55:30.337Z</time>
      </trkpt>
      <trkpt lat="46.75022" lon="6.52303">
        <ele>520.7</ele>
        <time>2019-12-25T07:55:32.291Z</time>
      </trkpt>
      <trkpt lat="46.75019" lon="6.52316">
        <ele>520.7</ele>
        <time>2019-12-25T07:55:34.172Z</time>
      </trkpt>
      <trkpt lat="46.75017" lon="6.52329">
        <ele>519.2</ele>
        <time>2019-12-25T07:55:35.999Z</time>
      </trkpt>
      <trkpt lat="46.75022" lon="6.52342">
        <ele>519.7</ele>
        <time>2019-12-25T07:55:38.043Z</time>
      </trkpt>
      <trkpt lat="46.75034" lon="6.52348">
        <ele>520.2</ele>
        <time>2019-12-25T07:55:40.582Z</time>
      </trkpt>
      <trkpt lat="46.75047" lon="6.52353">
        <ele>520.7</ele>
        <time>2019-12-25T07:55:43.273Z</time>
      </trkpt>
      <trkpt lat="46.7506" lon="6.52359">
        <ele>521.2</ele>
        <time>2019-12-25T07:55:46.002Z</time>
      </trkpt>
      <trkpt lat="46.75073" lon="6.52363">
        <ele>520.7</ele>
        <time>2019-12-25T07:55:48.661Z</time>
      </trkpt>
      <trkpt lat="46.75085" lon="6.52369">
        <ele>521.2</ele>
        <time>2019-12-25T07:55:51.200Z</time>
      </trkpt>
      <trkpt lat="46.75098" lon="6.52374">
        <ele>520.7</ele>
        <time>2019-12-25T07:55:53.891Z</time>
      </trkpt>
      <trkpt lat="46.7511" lon="6.52379">
        <ele>521.2</ele>
        <time>2019-12-25T07:55:56.389Z</time>
      </trkpt>
      <trkpt lat="46.75121" lon="6.52384">
        <ele>521.2</ele>
        <time>2019-12-25T07:55:58.695Z</time>
      </trkpt>
      <trkpt lat="46.75132" lon="6.52389">
        <ele>520.7</ele>
        <time>2019-12-25T07:56:01.001Z</time>
      </trkpt>
      <trkpt lat="46.75144" lon="6.52395">
        <ele>521.2</ele>
        <time>2019-12-25T07:56:03.540Z</time>
      </trkpt>
      <trkpt lat="46.75156" lon="6.524">
        <ele>521.2</ele>
        <time>2019-12-25T07:56:06.038Z</time>
      </trkpt>
      <trkpt lat="46.75168" lon="6.52404">
        <ele>521.2</ele>
        <time>2019-12-25T07:56:08.502Z</time>
      </trkpt>
      <trkpt lat="46.75181" lon="6.52406">
        <ele>520.7</ele>
        <time>2019-12-25T07:56:11.118Z</time>
      </trkpt>
      <trkpt lat="46.75193" lon="6.52407">
        <ele>520.7</ele>
        <time>2019-12-25T07:56:13.524Z</time>
      </trkpt>
      <trkpt lat="46.75205" lon="6.52408">
        <ele>520.7</ele>
        <time>2019-12-25T07:56:15.930Z</time>
      </trkpt>
      <trkpt lat="46.75217" lon="6.52407">
        <ele>520.7</ele>
        <time>2019-12-25T07:56:18.336Z</time>
      </trkpt>
      <trkpt lat="46.75228" lon="6.52407">
        <ele>520.7</ele>
        <time>2019-12-25T07:56:20.538Z</time>
      </trkpt>
      <trkpt lat="46.75239" lon="6.52408">
        <ele>520.7</ele>
        <time>2019-12-25T07:56:22.744Z</time>
      </trkpt>
      <trkpt lat="46.7525" lon="6.52408">
        <ele>520.2</ele>
        <time>2019-12-25T07:56:24.946Z</time>
      </trkpt>
      <trkpt lat="46.7526" lon="6.52409">
        <ele>520.7</ele>
        <time>2019-12-25T07:56:26.952Z</time>
      </trkpt>
      <trkpt lat="46.7527" lon="6.52409">
        <ele>519.7</ele>
        <time>2019-12-25T07:56:28.954Z</time>
      </trkpt>
      <trkpt lat="46.75279" lon="6.52409">
        <ele>519.7</ele>
        <time>2019-12-25T07:56:30.755Z</time>
      </trkpt>
      <trkpt lat="46.75293" lon="6.52408">
        <ele>519.2</ele>
        <time>2019-12-25T07:56:33.560Z</time>
      </trkpt>
      <trkpt lat="46.75303" lon="6.52418">
        <ele>518.8</ele>
        <time>2019-12-25T07:56:35.986Z</time>
      </trkpt>
      <trkpt lat="46.75305" lon="6.52438">
        <ele>518.8</ele>
        <time>2019-12-25T07:56:38.758Z</time>
      </trkpt>
      <trkpt lat="46.75307" lon="6.52456">
        <ele>518.3</ele>
        <time>2019-12-25T07:56:41.259Z</time>
      </trkpt>
      <trkpt lat="46.75312" lon="6.52473">
        <ele>517.8</ele>
        <time>2019-12-25T07:56:43.796Z</time>
      </trkpt>
      <trkpt lat="46.75317" lon="6.52488">
        <ele>517.3</ele>
        <time>2019-12-25T07:56:46.084Z</time>
      </trkpt>
      <trkpt lat="46.75324" lon="6.52503">
        <ele>516.4</ele>
        <time>2019-12-25T07:56:48.573Z</time>
      </trkpt>
      <trkpt lat="46.7533" lon="6.52517">
        <ele>515.4</ele>
        <time>2019-12-25T07:56:50.838Z</time>
      </trkpt>
      <trkpt lat="46.75334" lon="6.52534">
        <ele>514.9</ele>
        <time>2019-12-25T07:56:53.303Z</time>
      </trkpt>
      <trkpt lat="46.75336" lon="6.52551">
        <ele>514.4</ele>
        <time>2019-12-25T07:56:55.668Z</time>
      </trkpt>
      <trkpt lat="46.75341" lon="6.52566">
        <ele>513</ele>
        <time>2019-12-25T07:56:57.955Z</time>
      </trkpt>
      <trkpt lat="46.75353" lon="6.52565">
        <ele>512.5</ele>
        <time>2019-12-25T07:57:00.361Z</time>
      </trkpt>
      <trkpt lat="46.75366" lon="6.52562">
        <ele>512</ele>
        <time>2019-12-25T07:57:02.995Z</time>
      </trkpt>
      <trkpt lat="46.75378" lon="6.5256">
        <ele>512</ele>
        <time>2019-12-25T07:57:05.412Z</time>
      </trkpt>
      <trkpt lat="46.75388" lon="6.5256">
        <ele>510.6</ele>
        <time>2019-12-25T07:57:07.414Z</time>
      </trkpt>
      <trkpt lat="46.75399" lon="6.52563">
        <ele>510.6</ele>
        <time>2019-12-25T07:57:09.654Z</time>
      </trkpt>
      <trkpt lat="46.75413" lon="6.52567">
        <ele>509.6</ele>
        <time>2019-12-25T07:57:12.509Z</time>
      </trkpt>
      <trkpt lat="46.75427" lon="6.52572">
        <ele>509.6</ele>
        <time>2019-12-25T07:57:15.394Z</time>
      </trkpt>
      <trkpt lat="46.75442" lon="6.52579">
        <ele>510.1</ele>
        <time>2019-12-25T07:57:18.546Z</time>
      </trkpt>
      <trkpt lat="46.75458" lon="6.52585">
        <ele>510.6</ele>
        <time>2019-12-25T07:57:21.852Z</time>
      </trkpt>
      <trkpt lat="46.7547" lon="6.52594">
        <ele>512</ele>
        <time>2019-12-25T07:57:24.552Z</time>
      </trkpt>
      <trkpt lat="46.75482" lon="6.52605">
        <ele>513.5</ele>
        <time>2019-12-25T07:57:27.388Z</time>
      </trkpt>
      <trkpt lat="46.75495" lon="6.52616">
        <ele>514.4</ele>
        <time>2019-12-25T07:57:30.396Z</time>
      </trkpt>
      <trkpt lat="46.75503" lon="6.52623">
        <ele>515.4</ele>
        <time>2019-12-25T07:57:32.263Z</time>
      </trkpt>
      <trkpt lat="46.75511" lon="6.52632">
        <ele>516.4</ele>
        <time>2019-12-25T07:57:34.285Z</time>
      </trkpt>
      <trkpt lat="46.75519" lon="6.52641">
        <ele>516.4</ele>
        <time>2019-12-25T07:57:36.307Z</time>
      </trkpt>
      <trkpt lat="46.75527" lon="6.5265">
        <ele>517.8</ele>
        <time>2019-12-25T07:57:38.329Z</time>
      </trkpt>
      <trkpt lat="46.75535" lon="6.52658">
        <ele>518.8</ele>
        <time>2019-12-25T07:57:40.270Z</time>
      </trkpt>
      <trkpt lat="46.7555" lon="6.52673">
        <ele>521.2</ele>
        <time>2019-12-25T07:57:43.909Z</time>
      </trkpt>
      <trkpt lat="46.75562" lon="6.52686">
        <ele>521.2</ele>
        <time>2019-12-25T07:57:46.900Z</time>
      </trkpt>
      <trkpt lat="46.75572" lon="6.52697">
        <ele>522.1</ele>
        <time>2019-12-25T07:57:49.406Z</time>
      </trkpt>
      <trkpt lat="46.75579" lon="6.52709">
        <ele>522.1</ele>
        <time>2019-12-25T07:57:51.567Z</time>
      </trkpt>
      <trkpt lat="46.75583" lon="6.52723">
        <ele>521.7</ele>
        <time>2019-12-25T07:57:53.647Z</time>
      </trkpt>
      <trkpt lat="46.75587" lon="6.52736">
        <ele>521.7</ele>
        <time>2019-12-25T07:57:55.601Z</time>
      </trkpt>
      <trkpt lat="46.75595" lon="6.52743">
        <ele>523.1</ele>
        <time>2019-12-25T07:57:57.468Z</time>
      </trkpt>
      <trkpt lat="46.75604" lon="6.52739">
        <ele>525</ele>
        <time>2019-12-25T07:57:59.351Z</time>
      </trkpt>
      <trkpt lat="46.75614" lon="6.5273">
        <ele>526.9</ele>
        <time>2019-12-25T07:58:01.702Z</time>
      </trkpt>
      <trkpt lat="46.75626" lon="6.5272">
        <ele>529.8</ele>
        <time>2019-12-25T07:58:04.468Z</time>
      </trkpt>
      <trkpt lat="46.75637" lon="6.52711">
        <ele>530.8</ele>
        <time>2019-12-25T07:58:06.992Z</time>
      </trkpt>
      <trkpt lat="46.75643" lon="6.52701">
        <ele>532.2</ele>
        <time>2019-12-25T07:58:08.815Z</time>
      </trkpt>
      <trkpt lat="46.75651" lon="6.52695">
        <ele>532.7</ele>
        <time>2019-12-25T07:58:10.615Z</time>
      </trkpt>
      <trkpt lat="46.75662" lon="6.52703">
        <ele>533.7</ele>
        <time>2019-12-25T07:58:13.075Z</time>
      </trkpt>
      <trkpt lat="46.75673" lon="6.527">
        <ele>535.1</ele>
        <time>2019-12-25T07:58:15.315Z</time>
      </trkpt>
      <trkpt lat="46.75683" lon="6.52687">
        <ele>535.6</ele>
        <time>2019-12-25T07:58:17.995Z</time>
      </trkpt>
      <trkpt lat="46.75686" lon="6.52671">
        <ele>537.5</ele>
        <time>2019-12-25T07:58:20.270Z</time>
      </trkpt>
      <trkpt lat="46.7568" lon="6.52652">
        <ele>539</ele>
        <time>2019-12-25T07:58:23.139Z</time>
      </trkpt>
      <trkpt lat="46.75677" lon="6.52639">
        <ele>539.9</ele>
        <time>2019-12-25T07:58:25.020Z</time>
      </trkpt>
      <trkpt lat="46.75673" lon="6.52627">
        <ele>539.9</ele>
        <time>2019-12-25T07:58:26.850Z</time>
      </trkpt>
      <trkpt lat="46.75669" lon="6.52614">
        <ele>540.9</ele>
        <time>2019-12-25T07:58:28.804Z</time>
      </trkpt>
      <trkpt lat="46.75662" lon="6.5259">
        <ele>542.3</ele>
        <time>2019-12-25T07:58:32.381Z</time>
      </trkpt>
      <trkpt lat="46.75655" lon="6.52568">
        <ele>543.3</ele>
        <time>2019-12-25T07:58:35.707Z</time>
      </trkpt>
      <trkpt lat="46.75649" lon="6.52548">
        <ele>543.8</ele>
        <time>2019-12-25T07:58:38.701Z</time>
      </trkpt>
      <trkpt lat="46.75644" lon="6.52532">
        <ele>545.2</ele>
        <time>2019-12-25T07:58:41.112Z</time>
      </trkpt>
      <trkpt lat="46.75641" lon="6.52518">
        <ele>545.7</ele>
        <time>2019-12-25T07:58:43.123Z</time>
      </trkpt>
      <trkpt lat="46.75651" lon="6.52509">
        <ele>547.6</ele>
        <time>2019-12-25T07:58:45.474Z</time>
      </trkpt>
      <trkpt lat="46.75663" lon="6.52505">
        <ele>551.5</ele>
        <time>2019-12-25T07:58:47.938Z</time>
      </trkpt>
      <trkpt lat="46.75678" lon="6.52501">
        <ele>553.4</ele>
        <time>2019-12-25T07:58:50.990Z</time>
      </trkpt>
      <trkpt lat="46.75694" lon="6.52498">
        <ele>555.8</ele>
        <time>2019-12-25T07:58:54.219Z</time>
      </trkpt>
      <trkpt lat="46.75709" lon="6.52501">
        <ele>557.2</ele>
        <time>2019-12-25T07:58:57.249Z</time>
      </trkpt>
      <trkpt lat="46.75724" lon="6.52508">
        <ele>558.7</ele>
        <time>2019-12-25T07:59:00.401Z</time>
      </trkpt>
      <trkpt lat="46.75738" lon="6.52516">
        <ele>560.1</ele>
        <time>2019-12-25T07:59:03.410Z</time>
      </trkpt>
      <trkpt lat="46.75751" lon="6.52523">
        <ele>560.1</ele>
        <time>2019-12-25T07:59:06.183Z</time>
      </trkpt>
      <trkpt lat="46.75762" lon="6.5253">
        <ele>560.6</ele>
        <time>2019-12-25T07:59:08.585Z</time>
      </trkpt>
      <trkpt lat="46.75771" lon="6.52546">
        <ele>561.5</ele>
        <time>2019-12-25T07:59:11.424Z</time>
      </trkpt>
      <trkpt lat="46.75779" lon="6.52567">
        <ele>561.1</ele>
        <time>2019-12-25T07:59:14.719Z</time>
      </trkpt>
      <trkpt lat="46.75784" lon="6.52579">
        <ele>560.6</ele>
        <time>2019-12-25T07:59:16.645Z</time>
      </trkpt>
      <trkpt lat="46.75788" lon="6.52591">
        <ele>560.6</ele>
        <time>2019-12-25T07:59:18.475Z</time>
      </trkpt>
      <trkpt lat="46.75792" lon="6.52604">
        <ele>561.1</ele>
        <time>2019-12-25T07:59:20.429Z</time>
      </trkpt>
      <trkpt lat="46.75795" lon="6.52617">
        <ele>561.5</ele>
        <time>2019-12-25T07:59:22.310Z</time>
      </trkpt>
      <trkpt lat="46.75798" lon="6.52632">
        <ele>562</ele>
        <time>2019-12-25T07:59:24.453Z</time>
      </trkpt>
      <trkpt lat="46.75801" lon="6.52646">
        <ele>562.5</ele>
        <time>2019-12-25T07:59:26.464Z</time>
      </trkpt>
      <trkpt lat="46.75804" lon="6.52661">
        <ele>563</ele>
        <time>2019-12-25T07:59:28.607Z</time>
      </trkpt>
      <trkpt lat="46.75807" lon="6.52675">
        <ele>563.5</ele>
        <time>2019-12-25T07:59:30.618Z</time>
      </trkpt>
      <trkpt lat="46.7581" lon="6.5269">
        <ele>564.4</ele>
        <time>2019-12-25T07:59:32.761Z</time>
      </trkpt>
      <trkpt lat="46.75813" lon="6.52704">
        <ele>564.9</ele>
        <time>2019-12-25T07:59:34.772Z</time>
      </trkpt>
      <trkpt lat="46.75816" lon="6.52717">
        <ele>565.4</ele>
        <time>2019-12-25T07:59:36.653Z</time>
      </trkpt>
      <trkpt lat="46.75819" lon="6.5273">
        <ele>565.9</ele>
        <time>2019-12-25T07:59:38.534Z</time>
      </trkpt>
      <trkpt lat="46.75821" lon="6.52743">
        <ele>566.3</ele>
        <time>2019-12-25T07:59:40.361Z</time>
      </trkpt>
      <trkpt lat="46.75826" lon="6.52767">
        <ele>566.8</ele>
        <time>2019-12-25T07:59:43.801Z</time>
      </trkpt>
      <trkpt lat="46.75831" lon="6.5279">
        <ele>567.8</ele>
        <time>2019-12-25T07:59:47.110Z</time>
      </trkpt>
      <trkpt lat="46.75836" lon="6.5281">
        <ele>568.3</ele>
        <time>2019-12-25T07:59:50.029Z</time>
      </trkpt>
      <trkpt lat="46.75842" lon="6.52827">
        <ele>568.8</ele>
        <time>2019-12-25T07:59:52.651Z</time>
      </trkpt>
      <trkpt lat="46.75853" lon="6.5284">
        <ele>569.7</ele>
        <time>2019-12-25T07:59:55.484Z</time>
      </trkpt>
      <trkpt lat="46.75866" lon="6.52845">
        <ele>570.2</ele>
        <time>2019-12-25T07:59:58.175Z</time>
      </trkpt>
      <trkpt lat="46.75878" lon="6.52847">
        <ele>571.2</ele>
        <time>2019-12-25T08:00:00.592Z</time>
      </trkpt>
      <trkpt lat="46.75887" lon="6.52854">
        <ele>571.6</ele>
        <time>2019-12-25T08:00:02.633Z</time>
      </trkpt>
      <trkpt lat="46.75895" lon="6.52864">
        <ele>571.6</ele>
        <time>2019-12-25T08:00:04.741Z</time>
      </trkpt>
      <trkpt lat="46.75904" lon="6.52874">
        <ele>571.6</ele>
        <time>2019-12-25T08:00:07.005Z</time>
      </trkpt>
      <trkpt lat="46.75913" lon="6.52885">
        <ele>571.6</ele>
        <time>2019-12-25T08:00:09.354Z</time>
      </trkpt>
      <trkpt lat="46.75921" lon="6.52894">
        <ele>571.6</ele>
        <time>2019-12-25T08:00:11.376Z</time>
      </trkpt>
      <trkpt lat="46.75929" lon="6.52904">
        <ele>572.1</ele>
        <time>2019-12-25T08:00:13.484Z</time>
      </trkpt>
      <trkpt lat="46.75937" lon="6.52911">
        <ele>572.6</ele>
        <time>2019-12-25T08:00:15.351Z</time>
      </trkpt>
      <trkpt lat="46.75945" lon="6.52918">
        <ele>571.6</ele>
        <time>2019-12-25T08:00:17.218Z</time>
      </trkpt>
      <trkpt lat="46.75953" lon="6.52926">
        <ele>571.6</ele>
        <time>2019-12-25T08:00:19.159Z</time>
      </trkpt>
      <trkpt lat="46.75965" lon="6.52933">
        <ele>571.6</ele>
        <time>2019-12-25T08:00:21.745Z</time>
      </trkpt>
      <trkpt lat="46.75974" lon="6.52942">
        <ele>571.2</ele>
        <time>2019-12-25T08:00:23.929Z</time>
      </trkpt>
      <trkpt lat="46.75974" lon="6.52958">
        <ele>569.7</ele>
        <time>2019-12-25T08:00:26.123Z</time>
      </trkpt>
      <trkpt lat="46.75976" lon="6.52975">
        <ele>569.7</ele>
        <time>2019-12-25T08:00:28.488Z</time>
      </trkpt>
      <trkpt lat="46.75983" lon="6.52989">
        <ele>569.7</ele>
        <time>2019-12-25T08:00:30.865Z</time>
      </trkpt>
      <trkpt lat="46.75991" lon="6.53001">
        <ele>569.2</ele>
        <time>2019-12-25T08:00:33.161Z</time>
      </trkpt>
      <trkpt lat="46.76002" lon="6.53008">
        <ele>568.8</ele>
        <time>2019-12-25T08:00:35.563Z</time>
      </trkpt>
      <trkpt lat="46.76011" lon="6.53014">
        <ele>569.2</ele>
        <time>2019-12-25T08:00:37.543Z</time>
      </trkpt>
      <trkpt lat="46.76011" lon="6.53031">
        <ele>567.8</ele>
        <time>2019-12-25T08:00:39.874Z</time>
      </trkpt>
      <trkpt lat="46.7601" lon="6.53044">
        <ele>567.8</ele>
        <time>2019-12-25T08:00:41.668Z</time>
      </trkpt>
      <trkpt lat="46.76009" lon="6.53058">
        <ele>566.8</ele>
        <time>2019-12-25T08:00:43.598Z</time>
      </trkpt>
      <trkpt lat="46.76008" lon="6.53072">
        <ele>565.9</ele>
        <time>2019-12-25T08:00:45.528Z</time>
      </trkpt>
      <trkpt lat="46.76007" lon="6.53088">
        <ele>564.9</ele>
        <time>2019-12-25T08:00:47.731Z</time>
      </trkpt>
      <trkpt lat="46.76007" lon="6.53104">
        <ele>564</ele>
        <time>2019-12-25T08:00:49.925Z</time>
      </trkpt>
      <trkpt lat="46.76004" lon="6.53117">
        <ele>563.5</ele>
        <time>2019-12-25T08:00:51.806Z</time>
      </trkpt>
      <trkpt lat="46.75999" lon="6.53128">
        <ele>561.5</ele>
        <time>2019-12-25T08:00:53.616Z</time>
      </trkpt>
      <trkpt lat="46.75994" lon="6.5314">
        <ele>560.6</ele>
        <time>2019-12-25T08:00:55.542Z</time>
      </trkpt>
      <trkpt lat="46.75991" lon="6.53153">
        <ele>560.1</ele>
        <time>2019-12-25T08:00:57.423Z</time>
      </trkpt>
      <trkpt lat="46.75984" lon="6.53166">
        <ele>557.7</ele>
        <time>2019-12-25T08:00:59.690Z</time>
      </trkpt>
      <trkpt lat="46.75977" lon="6.53177">
        <ele>556.7</ele>
        <time>2019-12-25T08:01:01.749Z</time>
      </trkpt>
      <trkpt lat="46.75971" lon="6.53187">
        <ele>555.3</ele>
        <time>2019-12-25T08:01:03.572Z</time>
      </trkpt>
      <trkpt lat="46.75966" lon="6.53198">
        <ele>552.9</ele>
        <time>2019-12-25T08:01:05.382Z</time>
      </trkpt>
      <trkpt lat="46.75958" lon="6.53209">
        <ele>551.9</ele>
        <time>2019-12-25T08:01:07.582Z</time>
      </trkpt>
      <trkpt lat="46.75952" lon="6.53219">
        <ele>550.5</ele>
        <time>2019-12-25T08:01:09.405Z</time>
      </trkpt>
      <trkpt lat="46.75946" lon="6.5323">
        <ele>549</ele>
        <time>2019-12-25T08:01:11.333Z</time>
      </trkpt>
      <trkpt lat="46.7594" lon="6.53241">
        <ele>547.1</ele>
        <time>2019-12-25T08:01:13.261Z</time>
      </trkpt>
      <trkpt lat="46.75934" lon="6.53252">
        <ele>545.2</ele>
        <time>2019-12-25T08:01:15.189Z</time>
      </trkpt>
      <trkpt lat="46.75928" lon="6.53265">
        <ele>544.2</ele>
        <time>2019-12-25T08:01:17.338Z</time>
      </trkpt>
      <trkpt lat="46.75921" lon="6.53277">
        <ele>542.8</ele>
        <time>2019-12-25T08:01:19.499Z</time>
      </trkpt>
      <trkpt lat="46.75913" lon="6.53289">
        <ele>541.8</ele>
        <time>2019-12-25T08:01:21.795Z</time>
      </trkpt>
      <trkpt lat="46.75903" lon="6.53294">
        <ele>540.9</ele>
        <time>2019-12-25T08:01:23.911Z</time>
      </trkpt>
      <trkpt lat="46.7589" lon="6.53289">
        <ele>540.9</ele>
        <time>2019-12-25T08:01:26.602Z</time>
      </trkpt>
      <trkpt lat="46.75882" lon="6.53284">
        <ele>540.4</ele>
        <time>2019-12-25T08:01:28.344Z</time>
      </trkpt>
      <trkpt lat="46.75873" lon="6.53278">
        <ele>539.9</ele>
        <time>2019-12-25T08:01:30.324Z</time>
      </trkpt>
      <trkpt lat="46.75865" lon="6.53273">
        <ele>539.4</ele>
        <time>2019-12-25T08:01:32.066Z</time>
      </trkpt>
      <trkpt lat="46.75856" lon="6.53268">
        <ele>539.4</ele>
        <time>2019-12-25T08:01:33.993Z</time>
      </trkpt>
      <trkpt lat="46.75848" lon="6.53263">
        <ele>538.5</ele>
        <time>2019-12-25T08:01:35.735Z</time>
      </trkpt>
      <trkpt lat="46.75839" lon="6.53258">
        <ele>538.5</ele>
        <time>2019-12-25T08:01:37.662Z</time>
      </trkpt>
      <trkpt lat="46.75829" lon="6.53252">
        <ele>538.5</ele>
        <time>2019-12-25T08:01:39.826Z</time>
      </trkpt>
      <trkpt lat="46.75821" lon="6.53247">
        <ele>538</ele>
        <time>2019-12-25T08:01:41.568Z</time>
      </trkpt>
      <trkpt lat="46.75813" lon="6.5324">
        <ele>537.5</ele>
        <time>2019-12-25T08:01:43.435Z</time>
      </trkpt>
      <trkpt lat="46.75802" lon="6.53229">
        <ele>537</ele>
        <time>2019-12-25T08:01:46.104Z</time>
      </trkpt>
      <trkpt lat="46.75795" lon="6.53215">
        <ele>536.1</ele>
        <time>2019-12-25T08:01:48.481Z</time>
      </trkpt>
      <trkpt lat="46.7579" lon="6.53201">
        <ele>535.6</ele>
        <time>2019-12-25T08:01:50.646Z</time>
      </trkpt>
      <trkpt lat="46.75786" lon="6.53185">
        <ele>535.6</ele>
        <time>2019-12-25T08:01:52.981Z</time>
      </trkpt>
      <trkpt lat="46.75784" lon="6.53168">
        <ele>535.6</ele>
        <time>2019-12-25T08:01:55.346Z</time>
      </trkpt>
      <trkpt lat="46.75783" lon="6.53151">
        <ele>536.1</ele>
        <time>2019-12-25T08:01:57.686Z</time>
      </trkpt>
      <trkpt lat="46.75783" lon="6.53135">
        <ele>536.5</ele>
        <time>2019-12-25T08:01:59.880Z</time>
      </trkpt>
      <trkpt lat="46.75784" lon="6.5312">
        <ele>536.5</ele>
        <time>2019-12-25T08:02:01.947Z</time>
      </trkpt>
      <trkpt lat="46.7579" lon="6.53103">
        <ele>536.5</ele>
        <time>2019-12-25T08:02:04.569Z</time>
      </trkpt>
      <trkpt lat="46.75798" lon="6.53089">
        <ele>536.5</ele>
        <time>2019-12-25T08:02:07.069Z</time>
      </trkpt>
      <trkpt lat="46.75805" lon="6.53078">
        <ele>536.5</ele>
        <time>2019-12-25T08:02:09.128Z</time>
      </trkpt>
      <trkpt lat="46.75812" lon="6.53066">
        <ele>535.6</ele>
        <time>2019-12-25T08:02:11.289Z</time>
      </trkpt>
      <trkpt lat="46.75815" lon="6.53054">
        <ele>534.6</ele>
        <time>2019-12-25T08:02:13.041Z</time>
      </trkpt>
      <trkpt lat="46.75811" lon="6.53039">
        <ele>533.2</ele>
        <time>2019-12-25T08:02:15.248Z</time>
      </trkpt>
      <trkpt lat="46.75803" lon="6.5303">
        <ele>531.3</ele>
        <time>2019-12-25T08:02:17.270Z</time>
      </trkpt>
      <trkpt lat="46.75793" lon="6.53027">
        <ele>529.3</ele>
        <time>2019-12-25T08:02:19.313Z</time>
      </trkpt>
      <trkpt lat="46.75784" lon="6.53025">
        <ele>528.4</ele>
        <time>2019-12-25T08:02:21.135Z</time>
      </trkpt>
      <trkpt lat="46.75773" lon="6.53022">
        <ele>526.5</ele>
        <time>2019-12-25T08:02:23.375Z</time>
      </trkpt>
      <trkpt lat="46.75764" lon="6.53016">
        <ele>525</ele>
        <time>2019-12-25T08:02:25.355Z</time>
      </trkpt>
      <trkpt lat="46.75755" lon="6.53012">
        <ele>524.1</ele>
        <time>2019-12-25T08:02:27.238Z</time>
      </trkpt>
      <trkpt lat="46.75744" lon="6.53013">
        <ele>522.6</ele>
        <time>2019-12-25T08:02:29.444Z</time>
      </trkpt>
      <trkpt lat="46.75734" lon="6.53016">
        <ele>520.2</ele>
        <time>2019-12-25T08:02:31.487Z</time>
      </trkpt>
      <trkpt lat="46.75725" lon="6.53017">
        <ele>518.8</ele>
        <time>2019-12-25T08:02:33.294Z</time>
      </trkpt>
      <trkpt lat="46.75714" lon="6.53017">
        <ele>517.3</ele>
        <time>2019-12-25T08:02:35.496Z</time>
      </trkpt>
      <trkpt lat="46.75703" lon="6.53018">
        <ele>515.4</ele>
        <time>2019-12-25T08:02:37.702Z</time>
      </trkpt>
      <trkpt lat="46.75694" lon="6.53019">
        <ele>514</ele>
        <time>2019-12-25T08:02:39.509Z</time>
      </trkpt>
      <trkpt lat="46.75685" lon="6.53019">
        <ele>513.5</ele>
        <time>2019-12-25T08:02:41.310Z</time>
      </trkpt>
      <trkpt lat="46.75675" lon="6.53019">
        <ele>511.6</ele>
        <time>2019-12-25T08:02:43.312Z</time>
      </trkpt>
      <trkpt lat="46.75665" lon="6.53019">
        <ele>510.6</ele>
        <time>2019-12-25T08:02:45.314Z</time>
      </trkpt>
      <trkpt lat="46.75655" lon="6.5302">
        <ele>509.2</ele>
        <time>2019-12-25T08:02:47.320Z</time>
      </trkpt>
      <trkpt lat="46.75645" lon="6.53022">
        <ele>507.7</ele>
        <time>2019-12-25T08:02:49.340Z</time>
      </trkpt>
      <trkpt lat="46.75635" lon="6.53023">
        <ele>506.8</ele>
        <time>2019-12-25T08:02:51.346Z</time>
      </trkpt>
      <trkpt lat="46.75625" lon="6.53024">
        <ele>505.8</ele>
        <time>2019-12-25T08:02:53.352Z</time>
      </trkpt>
      <trkpt lat="46.75614" lon="6.53026">
        <ele>504.8</ele>
        <time>2019-12-25T08:02:55.571Z</time>
      </trkpt>
      <trkpt lat="46.75604" lon="6.53028">
        <ele>503.4</ele>
        <time>2019-12-25T08:02:57.591Z</time>
      </trkpt>
      <trkpt lat="46.75593" lon="6.53033">
        <ele>501.5</ele>
        <time>2019-12-25T08:02:59.897Z</time>
      </trkpt>
      <trkpt lat="46.75583" lon="6.53036">
        <ele>500</ele>
        <time>2019-12-25T08:03:01.940Z</time>
      </trkpt>
      <trkpt lat="46.75574" lon="6.5304">
        <ele>500</ele>
        <time>2019-12-25T08:03:03.823Z</time>
      </trkpt>
      <trkpt lat="46.75564" lon="6.53045">
        <ele>498.6</ele>
        <time>2019-12-25T08:03:05.939Z</time>
      </trkpt>
      <trkpt lat="46.75552" lon="6.5305">
        <ele>498.1</ele>
        <time>2019-12-25T08:03:08.437Z</time>
      </trkpt>
      <trkpt lat="46.75542" lon="6.53053">
        <ele>497.6</ele>
        <time>2019-12-25T08:03:10.480Z</time>
      </trkpt>
      <trkpt lat="46.75531" lon="6.53056">
        <ele>496.7</ele>
        <time>2019-12-25T08:03:12.720Z</time>
      </trkpt>
      <trkpt lat="46.7552" lon="6.53061">
        <ele>496.7</ele>
        <time>2019-12-25T08:03:15.026Z</time>
      </trkpt>
      <trkpt lat="46.75507" lon="6.53064">
        <ele>496.2</ele>
        <time>2019-12-25T08:03:17.660Z</time>
      </trkpt>
      <trkpt lat="46.75495" lon="6.53065">
        <ele>496.7</ele>
        <time>2019-12-25T08:03:20.066Z</time>
      </trkpt>
      <trkpt lat="46.75483" lon="6.53065">
        <ele>496.7</ele>
        <time>2019-12-25T08:03:22.468Z</time>
      </trkpt>
      <trkpt lat="46.75471" lon="6.53064">
        <ele>496.7</ele>
        <time>2019-12-25T08:03:24.874Z</time>
      </trkpt>
      <trkpt lat="46.7546" lon="6.53063">
        <ele>496.7</ele>
        <time>2019-12-25T08:03:27.080Z</time>
      </trkpt>
      <trkpt lat="46.7545" lon="6.53063">
        <ele>496.7</ele>
        <time>2019-12-25T08:03:29.082Z</time>
      </trkpt>
      <trkpt lat="46.7544" lon="6.53062">
        <ele>497.1</ele>
        <time>2019-12-25T08:03:31.088Z</time>
      </trkpt>
      <trkpt lat="46.75433" lon="6.53052">
        <ele>496.7</ele>
        <time>2019-12-25T08:03:33.048Z</time>
      </trkpt>
      <trkpt lat="46.75437" lon="6.5304">
        <ele>497.6</ele>
        <time>2019-12-25T08:03:34.878Z</time>
      </trkpt>
      <trkpt lat="46.75444" lon="6.53024">
        <ele>497.6</ele>
        <time>2019-12-25T08:03:37.481Z</time>
      </trkpt>
      <trkpt lat="46.75448" lon="6.53001">
        <ele>497.6</ele>
        <time>2019-12-25T08:03:40.735Z</time>
      </trkpt>
      <trkpt lat="46.75448" lon="6.52977">
        <ele>499.1</ele>
        <time>2019-12-25T08:03:44.026Z</time>
      </trkpt>
      <trkpt lat="46.75446" lon="6.52965">
        <ele>499.1</ele>
        <time>2019-12-25T08:03:45.720Z</time>
      </trkpt>
      <trkpt lat="46.75442" lon="6.52951">
        <ele>500</ele>
        <time>2019-12-25T08:03:47.800Z</time>
      </trkpt>
      <trkpt lat="46.75438" lon="6.52938">
        <ele>500.5</ele>
        <time>2019-12-25T08:03:49.754Z</time>
      </trkpt>
      <trkpt lat="46.75433" lon="6.52925">
        <ele>501</ele>
        <time>2019-12-25T08:03:51.798Z</time>
      </trkpt>
      <trkpt lat="46.75427" lon="6.52913">
        <ele>502.4</ele>
        <time>2019-12-25T08:03:53.835Z</time>
      </trkpt>
      <trkpt lat="46.7542" lon="6.52902">
        <ele>502.9</ele>
        <time>2019-12-25T08:03:55.894Z</time>
      </trkpt>
      <trkpt lat="46.75413" lon="6.52892">
        <ele>503.9</ele>
        <time>2019-12-25T08:03:57.854Z</time>
      </trkpt>
      <trkpt lat="46.75406" lon="6.52883">
        <ele>504.8</ele>
        <time>2019-12-25T08:03:59.721Z</time>
      </trkpt>
      <trkpt lat="46.75394" lon="6.52865">
        <ele>507.2</ele>
        <time>2019-12-25T08:04:03.165Z</time>
      </trkpt>
      <trkpt lat="46.75384" lon="6.52847">
        <ele>507.7</ele>
        <time>2019-12-25T08:04:06.343Z</time>
      </trkpt>
      <trkpt lat="46.75374" lon="6.52827">
        <ele>508.7</ele>
        <time>2019-12-25T08:04:09.738Z</time>
      </trkpt>
      <trkpt lat="46.75363" lon="6.52805">
        <ele>509.2</ele>
        <time>2019-12-25T08:04:13.473Z</time>
      </trkpt>
      <trkpt lat="46.75359" lon="6.52794">
        <ele>509.6</ele>
        <time>2019-12-25T08:04:15.181Z</time>
      </trkpt>
      <trkpt lat="46.75352" lon="6.52771">
        <ele>511.1</ele>
        <time>2019-12-25T08:04:18.632Z</time>
      </trkpt>
      <trkpt lat="46.75347" lon="6.52747">
        <ele>511.6</ele>
        <time>2019-12-25T08:04:22.072Z</time>
      </trkpt>
      <trkpt lat="46.75342" lon="6.52726">
        <ele>513</ele>
        <time>2019-12-25T08:04:25.121Z</time>
      </trkpt>
      <trkpt lat="46.75336" lon="6.52706">
        <ele>513.5</ele>
        <time>2019-12-25T08:04:28.115Z</time>
      </trkpt>
      <trkpt lat="46.75331" lon="6.52688">
        <ele>514</ele>
        <time>2019-12-25T08:04:30.779Z</time>
      </trkpt>
      <trkpt lat="46.75326" lon="6.52671">
        <ele>514.9</ele>
        <time>2019-12-25T08:04:33.316Z</time>
      </trkpt>
      <trkpt lat="46.75321" lon="6.52656">
        <ele>514.4</ele>
        <time>2019-12-25T08:04:35.604Z</time>
      </trkpt>
      <trkpt lat="46.75316" lon="6.52642">
        <ele>514.9</ele>
        <time>2019-12-25T08:04:37.769Z</time>
      </trkpt>
      <trkpt lat="46.75311" lon="6.52623">
        <ele>514.9</ele>
        <time>2019-12-25T08:04:40.560Z</time>
      </trkpt>
      <trkpt lat="46.75301" lon="6.52617">
        <ele>514.4</ele>
        <time>2019-12-25T08:04:42.724Z</time>
      </trkpt>
      <trkpt lat="46.75291" lon="6.52627">
        <ele>513.5</ele>
        <time>2019-12-25T08:04:45.150Z</time>
      </trkpt>
      <trkpt lat="46.75281" lon="6.52636">
        <ele>513</ele>
        <time>2019-12-25T08:04:47.501Z</time>
      </trkpt>
      <trkpt lat="46.7527" lon="6.52641">
        <ele>511.6</ele>
        <time>2019-12-25T08:04:49.807Z</time>
      </trkpt>
      <trkpt lat="46.75258" lon="6.5264">
        <ele>511.1</ele>
        <time>2019-12-25T08:04:52.213Z</time>
      </trkpt>
      <trkpt lat="46.75246" lon="6.52643">
        <ele>510.1</ele>
        <time>2019-12-25T08:04:54.650Z</time>
      </trkpt>
      <trkpt lat="46.75234" lon="6.52647">
        <ele>509.6</ele>
        <time>2019-12-25T08:04:57.114Z</time>
      </trkpt>
      <trkpt lat="46.75222" lon="6.52647">
        <ele>508.7</ele>
        <time>2019-12-25T08:04:59.516Z</time>
      </trkpt>
      <trkpt lat="46.75209" lon="6.52648">
        <ele>507.7</ele>
        <time>2019-12-25T08:05:02.122Z</time>
      </trkpt>
      <trkpt lat="46.75197" lon="6.52648">
        <ele>506.3</ele>
        <time>2019-12-25T08:05:04.524Z</time>
      </trkpt>
      <trkpt lat="46.75184" lon="6.52649">
        <ele>505.8</ele>
        <time>2019-12-25T08:05:07.130Z</time>
      </trkpt>
      <trkpt lat="46.7517" lon="6.52648">
        <ele>504.4</ele>
        <time>2019-12-25T08:05:09.935Z</time>
      </trkpt>
      <trkpt lat="46.75161" lon="6.52649">
        <ele>504.4</ele>
        <time>2019-12-25T08:05:11.742Z</time>
      </trkpt>
      <trkpt lat="46.75151" lon="6.52649">
        <ele>503.9</ele>
        <time>2019-12-25T08:05:13.744Z</time>
      </trkpt>
      <trkpt lat="46.7514" lon="6.52649">
        <ele>503.4</ele>
        <time>2019-12-25T08:05:15.946Z</time>
      </trkpt>
      <trkpt lat="46.75131" lon="6.52653">
        <ele>503.4</ele>
        <time>2019-12-25T08:05:17.829Z</time>
      </trkpt>
      <trkpt lat="46.75122" lon="6.5266">
        <ele>502.9</ele>
        <time>2019-12-25T08:05:19.870Z</time>
      </trkpt>
      <trkpt lat="46.75114" lon="6.5267">
        <ele>502.4</ele>
        <time>2019-12-25T08:05:21.978Z</time>
      </trkpt>
      <trkpt lat="46.75107" lon="6.52681">
        <ele>502</ele>
        <time>2019-12-25T08:05:24.037Z</time>
      </trkpt>
      <trkpt lat="46.751" lon="6.52692">
        <ele>501.5</ele>
        <time>2019-12-25T08:05:26.096Z</time>
      </trkpt>
      <trkpt lat="46.75093" lon="6.52706">
        <ele>502</ele>
        <time>2019-12-25T08:05:28.473Z</time>
      </trkpt>
      <trkpt lat="46.75088" lon="6.5272">
        <ele>501.5</ele>
        <time>2019-12-25T08:05:30.638Z</time>
      </trkpt>
      <trkpt lat="46.75082" lon="6.52734">
        <ele>501</ele>
        <time>2019-12-25T08:05:32.903Z</time>
      </trkpt>
      <trkpt lat="46.75074" lon="6.52744">
        <ele>501.5</ele>
        <time>2019-12-25T08:05:35.011Z</time>
      </trkpt>
      <trkpt lat="46.75063" lon="6.5275">
        <ele>502</ele>
        <time>2019-12-25T08:05:37.361Z</time>
      </trkpt>
      <trkpt lat="46.75052" lon="6.52744">
        <ele>501.5</ele>
        <time>2019-12-25T08:05:39.711Z</time>
      </trkpt>
      <trkpt lat="46.75041" lon="6.52732">
        <ele>501</ele>
        <time>2019-12-25T08:05:42.460Z</time>
      </trkpt>
      <trkpt lat="46.75029" lon="6.52719">
        <ele>501.5</ele>
        <time>2019-12-25T08:05:45.451Z</time>
      </trkpt>
      <trkpt lat="46.75018" lon="6.52706">
        <ele>501.5</ele>
        <time>2019-12-25T08:05:48.284Z</time>
      </trkpt>
      <trkpt lat="46.75006" lon="6.52693">
        <ele>501.5</ele>
        <time>2019-12-25T08:05:51.275Z</time>
      </trkpt>
      <trkpt lat="46.74994" lon="6.5268">
        <ele>501.5</ele>
        <time>2019-12-25T08:05:54.266Z</time>
      </trkpt>
      <trkpt lat="46.74982" lon="6.52665">
        <ele>502</ele>
        <time>2019-12-25T08:05:57.428Z</time>
      </trkpt>
      <trkpt lat="46.74969" lon="6.52651">
        <ele>502.4</ele>
        <time>2019-12-25T08:06:00.662Z</time>
      </trkpt>
      <trkpt lat="46.74958" lon="6.52636">
        <ele>502</ele>
        <time>2019-12-25T08:06:03.675Z</time>
      </trkpt>
      <trkpt lat="46.74946" lon="6.52622">
        <ele>502</ele>
        <time>2019-12-25T08:06:06.750Z</time>
      </trkpt>
      <trkpt lat="46.74934" lon="6.52608">
        <ele>502.4</ele>
        <time>2019-12-25T08:06:09.825Z</time>
      </trkpt>
      <trkpt lat="46.74922" lon="6.52593">
        <ele>503.4</ele>
        <time>2019-12-25T08:06:12.987Z</time>
      </trkpt>
      <trkpt lat="46.7491" lon="6.52579">
        <ele>502.9</ele>
        <time>2019-12-25T08:06:16.062Z</time>
      </trkpt>
      <trkpt lat="46.74898" lon="6.52565">
        <ele>503.4</ele>
        <time>2019-12-25T08:06:19.137Z</time>
      </trkpt>
      <trkpt lat="46.74885" lon="6.52551">
        <ele>502.9</ele>
        <time>2019-12-25T08:06:22.371Z</time>
      </trkpt>
      <trkpt lat="46.74873" lon="6.52537">
        <ele>503.9</ele>
        <time>2019-12-25T08:06:25.446Z</time>
      </trkpt>
      <trkpt lat="46.74861" lon="6.52522">
        <ele>503.9</ele>
        <time>2019-12-25T08:06:28.608Z</time>
      </trkpt>
      <trkpt lat="46.74849" lon="6.52508">
        <ele>504.4</ele>
        <time>2019-12-25T08:06:31.683Z</time>
      </trkpt>
      <trkpt lat="46.74837" lon="6.52494">
        <ele>504.4</ele>
        <time>2019-12-25T08:06:34.758Z</time>
      </trkpt>
      <trkpt lat="46.74825" lon="6.52481">
        <ele>504.8</ele>
        <time>2019-12-25T08:06:37.749Z</time>
      </trkpt>
      <trkpt lat="46.74812" lon="6.52467">
        <ele>504.8</ele>
        <time>2019-12-25T08:06:40.983Z</time>
      </trkpt>
      <trkpt lat="46.748" lon="6.52453">
        <ele>505.3</ele>
        <time>2019-12-25T08:06:44.058Z</time>
      </trkpt>
      <trkpt lat="46.74787" lon="6.52438">
        <ele>505.8</ele>
        <time>2019-12-25T08:06:47.375Z</time>
      </trkpt>
      <trkpt lat="46.74774" lon="6.52423">
        <ele>505.8</ele>
        <time>2019-12-25T08:06:50.692Z</time>
      </trkpt>
      <trkpt lat="46.74762" lon="6.52409">
        <ele>506.3</ele>
        <time>2019-12-25T08:06:53.767Z</time>
      </trkpt>
      <trkpt lat="46.74749" lon="6.52395">
        <ele>506.3</ele>
        <time>2019-12-25T08:06:57.001Z</time>
      </trkpt>
      <trkpt lat="46.74736" lon="6.52381">
        <ele>506.8</ele>
        <time>2019-12-25T08:07:00.235Z</time>
      </trkpt>
      <trkpt lat="46.74723" lon="6.52368">
        <ele>507.2</ele>
        <time>2019-12-25T08:07:03.389Z</time>
      </trkpt>
      <trkpt lat="46.7471" lon="6.52355">
        <ele>507.2</ele>
        <time>2019-12-25T08:07:06.543Z</time>
      </trkpt>
      <trkpt lat="46.74697" lon="6.52343">
        <ele>507.2</ele>
        <time>2019-12-25T08:07:09.622Z</time>
      </trkpt>
      <trkpt lat="46.74682" lon="6.52333">
        <ele>507.7</ele>
        <time>2019-12-25T08:07:12.923Z</time>
      </trkpt>
      <trkpt lat="46.74668" lon="6.52324">
        <ele>508.2</ele>
        <time>2019-12-25T08:07:15.985Z</time>
      </trkpt>
      <trkpt lat="46.74654" lon="6.52315">
        <ele>507.7</ele>
        <time>2019-12-25T08:07:19.047Z</time>
      </trkpt>
      <trkpt lat="46.7464" lon="6.52306">
        <ele>507.7</ele>
        <time>2019-12-25T08:07:22.109Z</time>
      </trkpt>
      <trkpt lat="46.74626" lon="6.52296">
        <ele>508.2</ele>
        <time>2019-12-25T08:07:25.229Z</time>
      </trkpt>
      <trkpt lat="46.74612" lon="6.52287">
        <ele>508.2</ele>
        <time>2019-12-25T08:07:28.291Z</time>
      </trkpt>
      <trkpt lat="46.74597" lon="6.52278">
        <ele>508.2</ele>
        <time>2019-12-25T08:07:31.537Z</time>
      </trkpt>
      <trkpt lat="46.74582" lon="6.52268">
        <ele>508.2</ele>
        <time>2019-12-25T08:07:34.838Z</time>
      </trkpt>
      <trkpt lat="46.74567" lon="6.52258">
        <ele>508.7</ele>
        <time>2019-12-25T08:07:38.139Z</time>
      </trkpt>
      <trkpt lat="46.74552" lon="6.52248">
        <ele>508.7</ele>
        <time>2019-12-25T08:07:41.440Z</time>
      </trkpt>
      <trkpt lat="46.74536" lon="6.52238">
        <ele>509.2</ele>
        <time>2019-12-25T08:07:44.924Z</time>
      </trkpt>
      <trkpt lat="46.74521" lon="6.52229">
        <ele>509.6</ele>
        <time>2019-12-25T08:07:48.170Z</time>
      </trkpt>
      <trkpt lat="46.74505" lon="6.52222">
        <ele>510.6</ele>
        <time>2019-12-25T08:07:51.513Z</time>
      </trkpt>
      <trkpt lat="46.7449" lon="6.52216">
        <ele>510.6</ele>
        <time>2019-12-25T08:07:54.626Z</time>
      </trkpt>
      <trkpt lat="46.74476" lon="6.52213">
        <ele>511.6</ele>
        <time>2019-12-25T08:07:57.458Z</time>
      </trkpt>
      <trkpt lat="46.74462" lon="6.52211">
        <ele>511.6</ele>
        <time>2019-12-25T08:08:00.274Z</time>
      </trkpt>
      <trkpt lat="46.74449" lon="6.52209">
        <ele>511.6</ele>
        <time>2019-12-25T08:08:02.890Z</time>
      </trkpt>
      <trkpt lat="46.74435" lon="6.52208">
        <ele>512</ele>
        <time>2019-12-25T08:08:05.695Z</time>
      </trkpt>
      <trkpt lat="46.74422" lon="6.52208">
        <ele>512</ele>
        <time>2019-12-25T08:08:08.297Z</time>
      </trkpt>
      <trkpt lat="46.74409" lon="6.52208">
        <ele>512.5</ele>
        <time>2019-12-25T08:08:10.899Z</time>
      </trkpt>
      <trkpt lat="46.74397" lon="6.52211">
        <ele>512.5</ele>
        <time>2019-12-25T08:08:13.336Z</time>
      </trkpt>
      <trkpt lat="46.74384" lon="6.52213">
        <ele>512.5</ele>
        <time>2019-12-25T08:08:15.952Z</time>
      </trkpt>
      <trkpt lat="46.74373" lon="6.52218">
        <ele>513</ele>
        <time>2019-12-25T08:08:18.258Z</time>
      </trkpt>
      <trkpt lat="46.74362" lon="6.52224">
        <ele>513</ele>
        <time>2019-12-25T08:08:20.608Z</time>
      </trkpt>
      <trkpt lat="46.74352" lon="6.52231">
        <ele>513.5</ele>
        <time>2019-12-25T08:08:22.828Z</time>
      </trkpt>
      <trkpt lat="46.74343" lon="6.52238">
        <ele>513</ele>
        <time>2019-12-25T08:08:24.869Z</time>
      </trkpt>
      <trkpt lat="46.74334" lon="6.52246">
        <ele>513</ele>
        <time>2019-12-25T08:08:26.978Z</time>
      </trkpt>
      <trkpt lat="46.74327" lon="6.52254">
        <ele>512.5</ele>
        <time>2019-12-25T08:08:28.758Z</time>
      </trkpt>
      <trkpt lat="46.74319" lon="6.52262">
        <ele>512</ele>
        <time>2019-12-25T08:08:30.699Z</time>
      </trkpt>
      <trkpt lat="46.74311" lon="6.5227">
        <ele>511.6</ele>
        <time>2019-12-25T08:08:32.640Z</time>
      </trkpt>
      <trkpt lat="46.74303" lon="6.52279">
        <ele>511.6</ele>
        <time>2019-12-25T08:08:34.662Z</time>
      </trkpt>
      <trkpt lat="46.74294" lon="6.52287">
        <ele>511.1</ele>
        <time>2019-12-25T08:08:36.771Z</time>
      </trkpt>
      <trkpt lat="46.74286" lon="6.52295">
        <ele>510.6</ele>
        <time>2019-12-25T08:08:38.712Z</time>
      </trkpt>
      <trkpt lat="46.74278" lon="6.52303">
        <ele>509.6</ele>
        <time>2019-12-25T08:08:40.653Z</time>
      </trkpt>
      <trkpt lat="46.7427" lon="6.52313">
        <ele>509.2</ele>
        <time>2019-12-25T08:08:42.761Z</time>
      </trkpt>
      <trkpt lat="46.74262" lon="6.52325">
        <ele>509.6</ele>
        <time>2019-12-25T08:08:45.057Z</time>
      </trkpt>
      <trkpt lat="46.74258" lon="6.52341">
        <ele>509.2</ele>
        <time>2019-12-25T08:08:47.393Z</time>
      </trkpt>
      <trkpt lat="46.74255" lon="6.52357">
        <ele>509.6</ele>
        <time>2019-12-25T08:08:49.668Z</time>
      </trkpt>
      <trkpt lat="46.74252" lon="6.52372">
        <ele>509.6</ele>
        <time>2019-12-25T08:08:51.811Z</time>
      </trkpt>
      <trkpt lat="46.74249" lon="6.52387">
        <ele>509.6</ele>
        <time>2019-12-25T08:08:53.954Z</time>
      </trkpt>
      <trkpt lat="46.74246" lon="6.52403">
        <ele>510.1</ele>
        <time>2019-12-25T08:08:56.229Z</time>
      </trkpt>
      <trkpt lat="46.74243" lon="6.52418">
        <ele>510.1</ele>
        <time>2019-12-25T08:08:58.372Z</time>
      </trkpt>
      <trkpt lat="46.7424" lon="6.52433">
        <ele>510.6</ele>
        <time>2019-12-25T08:09:00.515Z</time>
      </trkpt>
      <trkpt lat="46.74237" lon="6.52447">
        <ele>510.6</ele>
        <time>2019-12-25T08:09:02.527Z</time>
      </trkpt>
      <trkpt lat="46.74234" lon="6.52466">
        <ele>510.6</ele>
        <time>2019-12-25T08:09:05.201Z</time>
      </trkpt>
      <trkpt lat="46.7423" lon="6.52481">
        <ele>510.6</ele>
        <time>2019-12-25T08:09:07.409Z</time>
      </trkpt>
      <trkpt lat="46.74223" lon="6.52489">
        <ele>509.2</ele>
        <time>2019-12-25T08:09:09.189Z</time>
      </trkpt>
      <trkpt lat="46.74213" lon="6.52488">
        <ele>508.7</ele>
        <time>2019-12-25T08:09:11.195Z</time>
      </trkpt>
      <trkpt lat="46.74202" lon="6.52484">
        <ele>506.8</ele>
        <time>2019-12-25T08:09:13.464Z</time>
      </trkpt>
      <trkpt lat="46.74191" lon="6.52479">
        <ele>505.8</ele>
        <time>2019-12-25T08:09:15.770Z</time>
      </trkpt>
      <trkpt lat="46.74181" lon="6.52475">
        <ele>504.4</ele>
        <time>2019-12-25T08:09:17.845Z</time>
      </trkpt>
      <trkpt lat="46.74171" lon="6.52471">
        <ele>503.9</ele>
        <time>2019-12-25T08:09:19.920Z</time>
      </trkpt>
      <trkpt lat="46.7416" lon="6.52467">
        <ele>503.4</ele>
        <time>2019-12-25T08:09:22.189Z</time>
      </trkpt>
      <trkpt lat="46.74149" lon="6.52461">
        <ele>502.4</ele>
        <time>2019-12-25T08:09:24.539Z</time>
      </trkpt>
      <trkpt lat="46.74138" lon="6.52456">
        <ele>502</ele>
        <time>2019-12-25T08:09:26.845Z</time>
      </trkpt>
      <trkpt lat="46.74127" lon="6.52453">
        <ele>502.4</ele>
        <time>2019-12-25T08:09:29.085Z</time>
      </trkpt>
      <trkpt lat="46.74122" lon="6.52464">
        <ele>504.4</ele>
        <time>2019-12-25T08:09:30.896Z</time>
      </trkpt>
      <trkpt lat="46.74121" lon="6.52483">
        <ele>505.8</ele>
        <time>2019-12-25T08:09:33.510Z</time>
      </trkpt>
      <trkpt lat="46.7412" lon="6.525">
        <ele>507.7</ele>
        <time>2019-12-25T08:09:35.850Z</time>
      </trkpt>
      <trkpt lat="46.7412" lon="6.52516">
        <ele>509.2</ele>
        <time>2019-12-25T08:09:38.045Z</time>
      </trkpt>
      <trkpt lat="46.74119" lon="6.52531">
        <ele>510.1</ele>
        <time>2019-12-25T08:09:40.112Z</time>
      </trkpt>
      <trkpt lat="46.74119" lon="6.52547">
        <ele>510.1</ele>
        <time>2019-12-25T08:09:42.307Z</time>
      </trkpt>
      <trkpt lat="46.74118" lon="6.52563">
        <ele>510.6</ele>
        <time>2019-12-25T08:09:44.511Z</time>
      </trkpt>
      <trkpt lat="46.74118" lon="6.52578">
        <ele>511.1</ele>
        <time>2019-12-25T08:09:46.568Z</time>
      </trkpt>
      <trkpt lat="46.74117" lon="6.52593">
        <ele>510.6</ele>
        <time>2019-12-25T08:09:48.635Z</time>
      </trkpt>
      <trkpt lat="46.74117" lon="6.52607">
        <ele>510.1</ele>
        <time>2019-12-25T08:09:50.555Z</time>
      </trkpt>
      <trkpt lat="46.74116" lon="6.52621">
        <ele>510.1</ele>
        <time>2019-12-25T08:09:52.486Z</time>
      </trkpt>
      <trkpt lat="46.74116" lon="6.52635">
        <ele>509.6</ele>
        <time>2019-12-25T08:09:54.406Z</time>
      </trkpt>
      <trkpt lat="46.74115" lon="6.52649">
        <ele>510.1</ele>
        <time>2019-12-25T08:09:56.337Z</time>
      </trkpt>
      <trkpt lat="46.74114" lon="6.52664">
        <ele>509.6</ele>
        <time>2019-12-25T08:09:58.404Z</time>
      </trkpt>
      <trkpt lat="46.74114" lon="6.5268">
        <ele>508.7</ele>
        <time>2019-12-25T08:10:00.599Z</time>
      </trkpt>
      <trkpt lat="46.74114" lon="6.52695">
        <ele>509.6</ele>
        <time>2019-12-25T08:10:02.656Z</time>
      </trkpt>
      <trkpt lat="46.74113" lon="6.5271">
        <ele>509.2</ele>
        <time>2019-12-25T08:10:04.723Z</time>
      </trkpt>
      <trkpt lat="46.74113" lon="6.52725">
        <ele>508.7</ele>
        <time>2019-12-25T08:10:06.780Z</time>
      </trkpt>
      <trkpt lat="46.74112" lon="6.52739">
        <ele>509.2</ele>
        <time>2019-12-25T08:10:08.711Z</time>
      </trkpt>
      <trkpt lat="46.74111" lon="6.52754">
        <ele>508.7</ele>
        <time>2019-12-25T08:10:10.778Z</time>
      </trkpt>
      <trkpt lat="46.74111" lon="6.52769">
        <ele>508.2</ele>
        <time>2019-12-25T08:10:12.835Z</time>
      </trkpt>
      <trkpt lat="46.7411" lon="6.52784">
        <ele>508.2</ele>
        <time>2019-12-25T08:10:14.902Z</time>
      </trkpt>
      <trkpt lat="46.7411" lon="6.52799">
        <ele>508.2</ele>
        <time>2019-12-25T08:10:16.959Z</time>
      </trkpt>
      <trkpt lat="46.74109" lon="6.52813">
        <ele>508.2</ele>
        <time>2019-12-25T08:10:18.890Z</time>
      </trkpt>
      <trkpt lat="46.74109" lon="6.52827">
        <ele>507.7</ele>
        <time>2019-12-25T08:10:20.810Z</time>
      </trkpt>
      <trkpt lat="46.74107" lon="6.52846">
        <ele>508.2</ele>
        <time>2019-12-25T08:10:23.447Z</time>
      </trkpt>
      <trkpt lat="46.74107" lon="6.52862">
        <ele>507.2</ele>
        <time>2019-12-25T08:10:25.642Z</time>
      </trkpt>
      <trkpt lat="46.74106" lon="6.52878">
        <ele>506.3</ele>
        <time>2019-12-25T08:10:27.846Z</time>
      </trkpt>
      <trkpt lat="46.74106" lon="6.52895">
        <ele>504.8</ele>
        <time>2019-12-25T08:10:30.178Z</time>
      </trkpt>
      <trkpt lat="46.74104" lon="6.52911">
        <ele>504.4</ele>
        <time>2019-12-25T08:10:32.409Z</time>
      </trkpt>
      <trkpt lat="46.74105" lon="6.52928">
        <ele>502.9</ele>
        <time>2019-12-25T08:10:34.749Z</time>
      </trkpt>
      <trkpt lat="46.74105" lon="6.52944">
        <ele>502</ele>
        <time>2019-12-25T08:10:36.944Z</time>
      </trkpt>
      <trkpt lat="46.74104" lon="6.52963">
        <ele>501</ele>
        <time>2019-12-25T08:10:39.558Z</time>
      </trkpt>
      <trkpt lat="46.74103" lon="6.5298">
        <ele>500.5</ele>
        <time>2019-12-25T08:10:41.898Z</time>
      </trkpt>
      <trkpt lat="46.74103" lon="6.52997">
        <ele>500</ele>
        <time>2019-12-25T08:10:44.230Z</time>
      </trkpt>
      <trkpt lat="46.74102" lon="6.53013">
        <ele>499.5</ele>
        <time>2019-12-25T08:10:46.434Z</time>
      </trkpt>
      <trkpt lat="46.74102" lon="6.53029">
        <ele>498.1</ele>
        <time>2019-12-25T08:10:48.629Z</time>
      </trkpt>
      <trkpt lat="46.74101" lon="6.53044">
        <ele>497.1</ele>
        <time>2019-12-25T08:10:50.696Z</time>
      </trkpt>
      <trkpt lat="46.741" lon="6.5306">
        <ele>495.2</ele>
        <time>2019-12-25T08:10:52.900Z</time>
      </trkpt>
      <trkpt lat="46.74099" lon="6.53079">
        <ele>494.7</ele>
        <time>2019-12-25T08:10:55.514Z</time>
      </trkpt>
      <trkpt lat="46.74099" lon="6.53093">
        <ele>493.3</ele>
        <time>2019-12-25T08:10:57.434Z</time>
      </trkpt>
      <trkpt lat="46.74098" lon="6.53114">
        <ele>491.9</ele>
        <time>2019-12-25T08:11:00.321Z</time>
      </trkpt>
      <trkpt lat="46.74095" lon="6.53129">
        <ele>491.4</ele>
        <time>2019-12-25T08:11:02.464Z</time>
      </trkpt>
      <trkpt lat="46.74083" lon="6.53126">
        <ele>491.9</ele>
        <time>2019-12-25T08:11:04.901Z</time>
      </trkpt>
      <trkpt lat="46.74074" lon="6.53121">
        <ele>492.3</ele>
        <time>2019-12-25T08:11:06.828Z</time>
      </trkpt>
      <trkpt lat="46.74064" lon="6.53115">
        <ele>491.9</ele>
        <time>2019-12-25T08:11:08.992Z</time>
      </trkpt>
      <trkpt lat="46.74055" lon="6.5311">
        <ele>491.9</ele>
        <time>2019-12-25T08:11:10.919Z</time>
      </trkpt>
      <trkpt lat="46.74045" lon="6.53104">
        <ele>491.4</ele>
        <time>2019-12-25T08:11:13.083Z</time>
      </trkpt>
      <trkpt lat="46.74035" lon="6.53099">
        <ele>490.9</ele>
        <time>2019-12-25T08:11:15.199Z</time>
      </trkpt>
      <trkpt lat="46.74026" lon="6.53094">
        <ele>490.9</ele>
        <time>2019-12-25T08:11:17.126Z</time>
      </trkpt>
      <trkpt lat="46.74017" lon="6.53088">
        <ele>490.4</ele>
        <time>2019-12-25T08:11:19.106Z</time>
      </trkpt>
      <trkpt lat="46.74008" lon="6.53082">
        <ele>490.4</ele>
        <time>2019-12-25T08:11:21.086Z</time>
      </trkpt>
      <trkpt lat="46.73999" lon="6.53075">
        <ele>490.4</ele>
        <time>2019-12-25T08:11:23.127Z</time>
      </trkpt>
      <trkpt lat="46.7399" lon="6.53067">
        <ele>489.5</ele>
        <time>2019-12-25T08:11:25.236Z</time>
      </trkpt>
      <trkpt lat="46.73978" lon="6.53057">
        <ele>488</ele>
        <time>2019-12-25T08:11:28.002Z</time>
      </trkpt>
      <trkpt lat="46.73968" lon="6.53064">
        <ele>488</ele>
        <time>2019-12-25T08:11:30.222Z</time>
      </trkpt>
      <trkpt lat="46.73967" lon="6.53079">
        <ele>488</ele>
        <time>2019-12-25T08:11:32.289Z</time>
      </trkpt>
      <trkpt lat="46.73969" lon="6.53094">
        <ele>487.5</ele>
        <time>2019-12-25T08:11:34.385Z</time>
      </trkpt>
      <trkpt lat="46.73971" lon="6.5311">
        <ele>487.5</ele>
        <time>2019-12-25T08:11:36.616Z</time>
      </trkpt>
      <trkpt lat="46.73972" lon="6.53126">
        <ele>487</ele>
        <time>2019-12-25T08:11:38.820Z</time>
      </trkpt>
      <trkpt lat="46.73974" lon="6.53141">
        <ele>487</ele>
        <time>2019-12-25T08:11:40.916Z</time>
      </trkpt>
      <trkpt lat="46.73976" lon="6.53157">
        <ele>486.6</ele>
        <time>2019-12-25T08:11:43.147Z</time>
      </trkpt>
      <trkpt lat="46.73978" lon="6.53172">
        <ele>486.1</ele>
        <time>2019-12-25T08:11:45.243Z</time>
      </trkpt>
      <trkpt lat="46.7398" lon="6.53188">
        <ele>485.1</ele>
        <time>2019-12-25T08:11:47.474Z</time>
      </trkpt>
      <trkpt lat="46.73982" lon="6.53204">
        <ele>485.1</ele>
        <time>2019-12-25T08:11:49.705Z</time>
      </trkpt>
      <trkpt lat="46.73982" lon="6.53219">
        <ele>484.6</ele>
        <time>2019-12-25T08:11:51.762Z</time>
      </trkpt>
      <trkpt lat="46.73977" lon="6.53232">
        <ele>484.6</ele>
        <time>2019-12-25T08:11:53.807Z</time>
      </trkpt>
      <trkpt lat="46.73965" lon="6.53241">
        <ele>485.1</ele>
        <time>2019-12-25T08:11:56.507Z</time>
      </trkpt>
      <trkpt lat="46.7395" lon="6.5325">
        <ele>487</ele>
        <time>2019-12-25T08:11:59.753Z</time>
      </trkpt>
      <trkpt lat="46.73942" lon="6.53255">
        <ele>487.5</ele>
        <time>2019-12-25T08:12:01.495Z</time>
      </trkpt>
      <trkpt lat="46.73933" lon="6.53261">
        <ele>489</ele>
        <time>2019-12-25T08:12:03.475Z</time>
      </trkpt>
      <trkpt lat="46.73924" lon="6.53267">
        <ele>489.9</ele>
        <time>2019-12-25T08:12:05.455Z</time>
      </trkpt>
      <trkpt lat="46.73915" lon="6.53273">
        <ele>490.4</ele>
        <time>2019-12-25T08:12:07.435Z</time>
      </trkpt>
      <trkpt lat="46.73905" lon="6.53279">
        <ele>490.9</ele>
        <time>2019-12-25T08:12:09.599Z</time>
      </trkpt>
      <trkpt lat="46.73896" lon="6.53284">
        <ele>490.9</ele>
        <time>2019-12-25T08:12:11.527Z</time>
      </trkpt>
      <trkpt lat="46.73887" lon="6.53289">
        <ele>491.4</ele>
        <time>2019-12-25T08:12:13.455Z</time>
      </trkpt>
      <trkpt lat="46.73878" lon="6.53294">
        <ele>492.3</ele>
        <time>2019-12-25T08:12:15.383Z</time>
      </trkpt>
      <trkpt lat="46.73869" lon="6.53297">
        <ele>493.3</ele>
        <time>2019-12-25T08:12:17.231Z</time>
      </trkpt>
      <trkpt lat="46.73859" lon="6.533">
        <ele>492.8</ele>
        <time>2019-12-25T08:12:19.274Z</time>
      </trkpt>
      <trkpt lat="46.73849" lon="6.53302">
        <ele>493.3</ele>
        <time>2019-12-25T08:12:21.294Z</time>
      </trkpt>
      <trkpt lat="46.73839" lon="6.53303">
        <ele>493.8</ele>
        <time>2019-12-25T08:12:23.300Z</time>
      </trkpt>
      <trkpt lat="46.73829" lon="6.53304">
        <ele>494.7</ele>
        <time>2019-12-25T08:12:25.306Z</time>
      </trkpt>
      <trkpt lat="46.73819" lon="6.53305">
        <ele>495.7</ele>
        <time>2019-12-25T08:12:27.312Z</time>
      </trkpt>
      <trkpt lat="46.73809" lon="6.53306">
        <ele>496.7</ele>
        <time>2019-12-25T08:12:29.318Z</time>
      </trkpt>
      <trkpt lat="46.73799" lon="6.53307">
        <ele>497.1</ele>
        <time>2019-12-25T08:12:31.324Z</time>
      </trkpt>
      <trkpt lat="46.73789" lon="6.53307">
        <ele>497.6</ele>
        <time>2019-12-25T08:12:33.326Z</time>
      </trkpt>
      <trkpt lat="46.7378" lon="6.53307">
        <ele>498.6</ele>
        <time>2019-12-25T08:12:35.127Z</time>
      </trkpt>
      <trkpt lat="46.73762" lon="6.53307">
        <ele>499.5</ele>
        <time>2019-12-25T08:12:38.730Z</time>
      </trkpt>
      <trkpt lat="46.73745" lon="6.53305">
        <ele>500</ele>
        <time>2019-12-25T08:12:42.144Z</time>
      </trkpt>
      <trkpt lat="46.73729" lon="6.53302">
        <ele>500.5</ele>
        <time>2019-12-25T08:12:45.373Z</time>
      </trkpt>
      <trkpt lat="46.73713" lon="6.53302">
        <ele>500</ele>
        <time>2019-12-25T08:12:48.575Z</time>
      </trkpt>
      <trkpt lat="46.73696" lon="6.53305">
        <ele>501.5</ele>
        <time>2019-12-25T08:12:52.002Z</time>
      </trkpt>
      <trkpt lat="46.73681" lon="6.53309">
        <ele>501</ele>
        <time>2019-12-25T08:12:55.054Z</time>
      </trkpt>
      <trkpt lat="46.73665" lon="6.53313">
        <ele>502.4</ele>
        <time>2019-12-25T08:12:58.303Z</time>
      </trkpt>
      <trkpt lat="46.73649" lon="6.53317">
        <ele>502.4</ele>
        <time>2019-12-25T08:13:01.552Z</time>
      </trkpt>
      <trkpt lat="46.73634" lon="6.5332">
        <ele>502.4</ele>
        <time>2019-12-25T08:13:04.582Z</time>
      </trkpt>
      <trkpt lat="46.7362" lon="6.53323">
        <ele>502.9</ele>
        <time>2019-12-25T08:13:07.414Z</time>
      </trkpt>
      <trkpt lat="46.73607" lon="6.53325">
        <ele>503.4</ele>
        <time>2019-12-25T08:13:10.030Z</time>
      </trkpt>
      <trkpt lat="46.73593" lon="6.53327">
        <ele>504.8</ele>
        <time>2019-12-25T08:13:12.846Z</time>
      </trkpt>
      <trkpt lat="46.7358" lon="6.5333">
        <ele>504.4</ele>
        <time>2019-12-25T08:13:15.480Z</time>
      </trkpt>
      <trkpt lat="46.73566" lon="6.53332">
        <ele>505.3</ele>
        <time>2019-12-25T08:13:18.296Z</time>
      </trkpt>
      <trkpt lat="46.73551" lon="6.53335">
        <ele>504.8</ele>
        <time>2019-12-25T08:13:21.326Z</time>
      </trkpt>
      <trkpt lat="46.73536" lon="6.53337">
        <ele>505.3</ele>
        <time>2019-12-25T08:13:24.341Z</time>
      </trkpt>
      <trkpt lat="46.73521" lon="6.53338">
        <ele>505.3</ele>
        <time>2019-12-25T08:13:27.346Z</time>
      </trkpt>
      <trkpt lat="46.73507" lon="6.53339">
        <ele>505.8</ele>
        <time>2019-12-25T08:13:30.151Z</time>
      </trkpt>
      <trkpt lat="46.73493" lon="6.53339">
        <ele>506.3</ele>
        <time>2019-12-25T08:13:32.953Z</time>
      </trkpt>
      <trkpt lat="46.7348" lon="6.53336">
        <ele>506.3</ele>
        <time>2019-12-25T08:13:35.587Z</time>
      </trkpt>
      <trkpt lat="46.73467" lon="6.53332">
        <ele>506.3</ele>
        <time>2019-12-25T08:13:38.246Z</time>
      </trkpt>
      <trkpt lat="46.73454" lon="6.53327">
        <ele>506.8</ele>
        <time>2019-12-25T08:13:40.937Z</time>
      </trkpt>
      <trkpt lat="46.73442" lon="6.53322">
        <ele>507.2</ele>
        <time>2019-12-25T08:13:43.435Z</time>
      </trkpt>
      <trkpt lat="46.7343" lon="6.53317">
        <ele>507.2</ele>
        <time>2019-12-25T08:13:45.933Z</time>
      </trkpt>
      <trkpt lat="46.73419" lon="6.53312">
        <ele>507.2</ele>
        <time>2019-12-25T08:13:48.239Z</time>
      </trkpt>
      <trkpt lat="46.73408" lon="6.53308">
        <ele>507.2</ele>
        <time>2019-12-25T08:13:50.508Z</time>
      </trkpt>
      <trkpt lat="46.73397" lon="6.53303">
        <ele>507.7</ele>
        <time>2019-12-25T08:13:52.814Z</time>
      </trkpt>
      <trkpt lat="46.73387" lon="6.53299">
        <ele>507.7</ele>
        <time>2019-12-25T08:13:54.889Z</time>
      </trkpt>
      <trkpt lat="46.73378" lon="6.53296">
        <ele>507.7</ele>
        <time>2019-12-25T08:13:56.737Z</time>
      </trkpt>
      <trkpt lat="46.73369" lon="6.53292">
        <ele>507.7</ele>
        <time>2019-12-25T08:13:58.620Z</time>
      </trkpt>
      <trkpt lat="46.73357" lon="6.53286">
        <ele>506.8</ele>
        <time>2019-12-25T08:14:01.159Z</time>
      </trkpt>
      <trkpt lat="46.73345" lon="6.5328">
        <ele>506.3</ele>
        <time>2019-12-25T08:14:03.698Z</time>
      </trkpt>
      <trkpt lat="46.73333" lon="6.53274">
        <ele>505.8</ele>
        <time>2019-12-25T08:14:06.237Z</time>
      </trkpt>
      <trkpt lat="46.73322" lon="6.53266">
        <ele>505.3</ele>
        <time>2019-12-25T08:14:08.697Z</time>
      </trkpt>
      <trkpt lat="46.73311" lon="6.53257">
        <ele>504.8</ele>
        <time>2019-12-25T08:14:11.221Z</time>
      </trkpt>
      <trkpt lat="46.73301" lon="6.53248">
        <ele>503.4</ele>
        <time>2019-12-25T08:14:13.573Z</time>
      </trkpt>
      <trkpt lat="46.73291" lon="6.53239">
        <ele>502.9</ele>
        <time>2019-12-25T08:14:15.925Z</time>
      </trkpt>
      <trkpt lat="46.73281" lon="6.5323">
        <ele>502</ele>
        <time>2019-12-25T08:14:18.277Z</time>
      </trkpt>
      <trkpt lat="46.73269" lon="6.53225">
        <ele>501.5</ele>
        <time>2019-12-25T08:14:20.775Z</time>
      </trkpt>
      <trkpt lat="46.73257" lon="6.5322">
        <ele>500.5</ele>
        <time>2019-12-25T08:14:23.273Z</time>
      </trkpt>
      <trkpt lat="46.73245" lon="6.53214">
        <ele>499.5</ele>
        <time>2019-12-25T08:14:25.812Z</time>
      </trkpt>
      <trkpt lat="46.73233" lon="6.5321">
        <ele>499.1</ele>
        <time>2019-12-25T08:14:28.276Z</time>
      </trkpt>
      <trkpt lat="46.73222" lon="6.53205">
        <ele>497.6</ele>
        <time>2019-12-25T08:14:30.582Z</time>
      </trkpt>
      <trkpt lat="46.73209" lon="6.53201">
        <ele>497.6</ele>
        <time>2019-12-25T08:14:33.241Z</time>
      </trkpt>
      <trkpt lat="46.732" lon="6.53198">
        <ele>496.2</ele>
        <time>2019-12-25T08:14:35.089Z</time>
      </trkpt>
      <trkpt lat="46.73191" lon="6.53195">
        <ele>495.7</ele>
        <time>2019-12-25T08:14:36.937Z</time>
      </trkpt>
      <trkpt lat="46.73181" lon="6.53192">
        <ele>495.7</ele>
        <time>2019-12-25T08:14:38.980Z</time>
      </trkpt>
      <trkpt lat="46.73172" lon="6.53188">
        <ele>495.2</ele>
        <time>2019-12-25T08:14:40.863Z</time>
      </trkpt>
      <trkpt lat="46.73163" lon="6.53184">
        <ele>494.7</ele>
        <time>2019-12-25T08:14:42.746Z</time>
      </trkpt>
      <trkpt lat="46.73153" lon="6.53182">
        <ele>494.3</ele>
        <time>2019-12-25T08:14:44.766Z</time>
      </trkpt>
      <trkpt lat="46.73143" lon="6.5318">
        <ele>494.3</ele>
        <time>2019-12-25T08:14:46.786Z</time>
      </trkpt>
      <trkpt lat="46.73134" lon="6.53177">
        <ele>493.3</ele>
        <time>2019-12-25T08:14:48.634Z</time>
      </trkpt>
      <trkpt lat="46.73124" lon="6.53174">
        <ele>493.3</ele>
        <time>2019-12-25T08:14:50.677Z</time>
      </trkpt>
      <trkpt lat="46.73114" lon="6.53171">
        <ele>492.8</ele>
        <time>2019-12-25T08:14:52.720Z</time>
      </trkpt>
      <trkpt lat="46.73105" lon="6.53168">
        <ele>492.3</ele>
        <time>2019-12-25T08:14:54.568Z</time>
      </trkpt>
      <trkpt lat="46.73095" lon="6.53165">
        <ele>492.3</ele>
        <time>2019-12-25T08:14:56.611Z</time>
      </trkpt>
      <trkpt lat="46.73085" lon="6.53162">
        <ele>491.9</ele>
        <time>2019-12-25T08:14:58.654Z</time>
      </trkpt>
      <trkpt lat="46.73075" lon="6.53159">
        <ele>490.9</ele>
        <time>2019-12-25T08:15:00.697Z</time>
      </trkpt>
      <trkpt lat="46.73065" lon="6.53155">
        <ele>490.9</ele>
        <time>2019-12-25T08:15:02.772Z</time>
      </trkpt>
      <trkpt lat="46.73055" lon="6.5315">
        <ele>490.4</ele>
        <time>2019-12-25T08:15:04.888Z</time>
      </trkpt>
      <trkpt lat="46.73045" lon="6.53146">
        <ele>489.9</ele>
        <time>2019-12-25T08:15:06.963Z</time>
      </trkpt>
      <trkpt lat="46.73035" lon="6.53144">
        <ele>489.9</ele>
        <time>2019-12-25T08:15:08.983Z</time>
      </trkpt>
      <trkpt lat="46.73026" lon="6.53149">
        <ele>489.5</ele>
        <time>2019-12-25T08:15:10.911Z</time>
      </trkpt>
      <trkpt lat="46.73017" lon="6.53157">
        <ele>488</ele>
        <time>2019-12-25T08:15:13.020Z</time>
      </trkpt>
      <trkpt lat="46.73007" lon="6.53167">
        <ele>488</ele>
        <time>2019-12-25T08:15:15.447Z</time>
      </trkpt>
      <trkpt lat="46.72998" lon="6.53179">
        <ele>487.5</ele>
        <time>2019-12-25T08:15:17.887Z</time>
      </trkpt>
      <trkpt lat="46.72989" lon="6.53191">
        <ele>487.5</ele>
        <time>2019-12-25T08:15:20.327Z</time>
      </trkpt>
      <trkpt lat="46.72979" lon="6.53205">
        <ele>487.5</ele>
        <time>2019-12-25T08:15:23.101Z</time>
      </trkpt>
      <trkpt lat="46.72969" lon="6.53218">
        <ele>487</ele>
        <time>2019-12-25T08:15:25.782Z</time>
      </trkpt>
      <trkpt lat="46.72957" lon="6.5323">
        <ele>486.6</ele>
        <time>2019-12-25T08:15:28.694Z</time>
      </trkpt>
      <trkpt lat="46.72944" lon="6.53238">
        <ele>486.6</ele>
        <time>2019-12-25T08:15:31.518Z</time>
      </trkpt>
      <trkpt lat="46.7293" lon="6.53242">
        <ele>487</ele>
        <time>2019-12-25T08:15:34.373Z</time>
      </trkpt>
      <trkpt lat="46.72916" lon="6.53243">
        <ele>487</ele>
        <time>2019-12-25T08:15:37.178Z</time>
      </trkpt>
      <trkpt lat="46.72902" lon="6.53241">
        <ele>487</ele>
        <time>2019-12-25T08:15:39.994Z</time>
      </trkpt>
      <trkpt lat="46.72888" lon="6.53239">
        <ele>487.5</ele>
        <time>2019-12-25T08:15:42.810Z</time>
      </trkpt>
      <trkpt lat="46.72874" lon="6.53237">
        <ele>487.5</ele>
        <time>2019-12-25T08:15:45.626Z</time>
      </trkpt>
      <trkpt lat="46.7286" lon="6.53235">
        <ele>487</ele>
        <time>2019-12-25T08:15:48.442Z</time>
      </trkpt>
      <trkpt lat="46.72846" lon="6.53234">
        <ele>487</ele>
        <time>2019-12-25T08:15:51.247Z</time>
      </trkpt>
      <trkpt lat="46.72832" lon="6.53232">
        <ele>487</ele>
        <time>2019-12-25T08:15:54.063Z</time>
      </trkpt>
      <trkpt lat="46.72819" lon="6.5323">
        <ele>487</ele>
        <time>2019-12-25T08:15:56.679Z</time>
      </trkpt>
      <trkpt lat="46.72805" lon="6.5323">
        <ele>487.5</ele>
        <time>2019-12-25T08:15:59.481Z</time>
      </trkpt>
      <trkpt lat="46.72791" lon="6.53229">
        <ele>487</ele>
        <time>2019-12-25T08:16:02.286Z</time>
      </trkpt>
      <trkpt lat="46.72778" lon="6.53227">
        <ele>487</ele>
        <time>2019-12-25T08:16:04.902Z</time>
      </trkpt>
      <trkpt lat="46.72765" lon="6.53226">
        <ele>487</ele>
        <time>2019-12-25T08:16:07.508Z</time>
      </trkpt>
      <trkpt lat="46.72752" lon="6.53225">
        <ele>486.6</ele>
        <time>2019-12-25T08:16:10.114Z</time>
      </trkpt>
      <trkpt lat="46.7274" lon="6.53224">
        <ele>486.1</ele>
        <time>2019-12-25T08:16:12.520Z</time>
      </trkpt>
      <trkpt lat="46.72728" lon="6.53223">
        <ele>486.1</ele>
        <time>2019-12-25T08:16:14.926Z</time>
      </trkpt>
      <trkpt lat="46.72715" lon="6.53222">
        <ele>486.6</ele>
        <time>2019-12-25T08:16:17.532Z</time>
      </trkpt>
      <trkpt lat="46.72703" lon="6.53221">
        <ele>486.1</ele>
        <time>2019-12-25T08:16:19.938Z</time>
      </trkpt>
      <trkpt lat="46.72691" lon="6.53219">
        <ele>486.6</ele>
        <time>2019-12-25T08:16:22.355Z</time>
      </trkpt>
      <trkpt lat="46.7268" lon="6.53218">
        <ele>486.1</ele>
        <time>2019-12-25T08:16:24.561Z</time>
      </trkpt>
      <trkpt lat="46.72669" lon="6.53217">
        <ele>486.1</ele>
        <time>2019-12-25T08:16:26.767Z</time>
      </trkpt>
      <trkpt lat="46.72657" lon="6.53215">
        <ele>485.6</ele>
        <time>2019-12-25T08:16:29.184Z</time>
      </trkpt>
      <trkpt lat="46.72645" lon="6.53212">
        <ele>485.1</ele>
        <time>2019-12-25T08:16:31.621Z</time>
      </trkpt>
      <trkpt lat="46.72633" lon="6.5321">
        <ele>485.1</ele>
        <time>2019-12-25T08:16:34.038Z</time>
      </trkpt>
      <trkpt lat="46.72623" lon="6.5321">
        <ele>485.6</ele>
        <time>2019-12-25T08:16:36.040Z</time>
      </trkpt>
      <trkpt lat="46.7261" lon="6.53208">
        <ele>485.6</ele>
        <time>2019-12-25T08:16:38.656Z</time>
      </trkpt>
      <trkpt lat="46.72597" lon="6.53207">
        <ele>485.6</ele>
        <time>2019-12-25T08:16:41.262Z</time>
      </trkpt>
      <trkpt lat="46.72584" lon="6.53207">
        <ele>485.6</ele>
        <time>2019-12-25T08:16:43.864Z</time>
      </trkpt>
      <trkpt lat="46.7257" lon="6.53204">
        <ele>485.6</ele>
        <time>2019-12-25T08:16:46.696Z</time>
      </trkpt>
      <trkpt lat="46.72556" lon="6.53202">
        <ele>485.6</ele>
        <time>2019-12-25T08:16:49.512Z</time>
      </trkpt>
      <trkpt lat="46.72543" lon="6.53199">
        <ele>486.1</ele>
        <time>2019-12-25T08:16:52.146Z</time>
      </trkpt>
      <trkpt lat="46.7253" lon="6.53198">
        <ele>486.1</ele>
        <time>2019-12-25T08:16:54.752Z</time>
      </trkpt>
      <trkpt lat="46.72517" lon="6.53198">
        <ele>486.1</ele>
        <time>2019-12-25T08:16:57.354Z</time>
      </trkpt>
      <trkpt lat="46.72504" lon="6.53199">
        <ele>487</ele>
        <time>2019-12-25T08:16:59.960Z</time>
      </trkpt>
      <trkpt lat="46.72491" lon="6.53201">
        <ele>486.6</ele>
        <time>2019-12-25T08:17:02.576Z</time>
      </trkpt>
      <trkpt lat="46.72478" lon="6.53203">
        <ele>487</ele>
        <time>2019-12-25T08:17:05.192Z</time>
      </trkpt>
      <trkpt lat="46.72466" lon="6.53205">
        <ele>487.5</ele>
        <time>2019-12-25T08:17:07.609Z</time>
      </trkpt>
      <trkpt lat="46.72454" lon="6.53205">
        <ele>487.5</ele>
        <time>2019-12-25T08:17:10.011Z</time>
      </trkpt>
      <trkpt lat="46.72444" lon="6.53205">
        <ele>487.5</ele>
        <time>2019-12-25T08:17:12.013Z</time>
      </trkpt>
      <trkpt lat="46.72434" lon="6.53207">
        <ele>488</ele>
        <time>2019-12-25T08:17:14.033Z</time>
      </trkpt>
      <trkpt lat="46.72422" lon="6.53209">
        <ele>487.5</ele>
        <time>2019-12-25T08:17:16.450Z</time>
      </trkpt>
      <trkpt lat="46.7241" lon="6.5321">
        <ele>487</ele>
        <time>2019-12-25T08:17:18.856Z</time>
      </trkpt>
      <trkpt lat="46.72399" lon="6.53215">
        <ele>486.6</ele>
        <time>2019-12-25T08:17:21.162Z</time>
      </trkpt>
      <trkpt lat="46.72384" lon="6.53215">
        <ele>485.6</ele>
        <time>2019-12-25T08:17:24.164Z</time>
      </trkpt>
      <trkpt lat="46.72377" lon="6.53215">
        <ele>484.6</ele>
        <time>2019-12-25T08:17:25.565Z</time>
      </trkpt>
      <trkpt lat="46.72366" lon="6.5322">
        <ele>484.2</ele>
        <time>2019-12-25T08:17:27.871Z</time>
      </trkpt>
      <trkpt lat="46.72356" lon="6.53229">
        <ele>482.7</ele>
        <time>2019-12-25T08:17:30.223Z</time>
      </trkpt>
      <trkpt lat="46.72345" lon="6.53236">
        <ele>482.7</ele>
        <time>2019-12-25T08:17:32.625Z</time>
      </trkpt>
      <trkpt lat="46.72334" lon="6.53242">
        <ele>481.8</ele>
        <time>2019-12-25T08:17:34.976Z</time>
      </trkpt>
      <trkpt lat="46.72322" lon="6.53243">
        <ele>481.3</ele>
        <time>2019-12-25T08:17:37.382Z</time>
      </trkpt>
      <trkpt lat="46.72311" lon="6.53239">
        <ele>481.3</ele>
        <time>2019-12-25T08:17:39.651Z</time>
      </trkpt>
      <trkpt lat="46.723" lon="6.53239">
        <ele>480.3</ele>
        <time>2019-12-25T08:17:41.853Z</time>
      </trkpt>
      <trkpt lat="46.7229" lon="6.53239">
        <ele>479.4</ele>
        <time>2019-12-25T08:17:43.855Z</time>
      </trkpt>
      <trkpt lat="46.72278" lon="6.53245">
        <ele>479.4</ele>
        <time>2019-12-25T08:17:46.394Z</time>
      </trkpt>
      <trkpt lat="46.72267" lon="6.53253">
        <ele>477.4</ele>
        <time>2019-12-25T08:17:48.854Z</time>
      </trkpt>
      <trkpt lat="46.72259" lon="6.5326">
        <ele>477</ele>
        <time>2019-12-25T08:17:50.721Z</time>
      </trkpt>
      <trkpt lat="46.72249" lon="6.53272">
        <ele>476</ele>
        <time>2019-12-25T08:17:53.313Z</time>
      </trkpt>
      <trkpt lat="46.72238" lon="6.53279">
        <ele>474.1</ele>
        <time>2019-12-25T08:17:55.715Z</time>
      </trkpt>
      <trkpt lat="46.72227" lon="6.53278">
        <ele>474.1</ele>
        <time>2019-12-25T08:17:57.921Z</time>
      </trkpt>
      <trkpt lat="46.72218" lon="6.53281">
        <ele>472.6</ele>
        <time>2019-12-25T08:17:59.769Z</time>
      </trkpt>
      <trkpt lat="46.72209" lon="6.53289">
        <ele>472.1</ele>
        <time>2019-12-25T08:18:01.878Z</time>
      </trkpt>
      <trkpt lat="46.722" lon="6.53285">
        <ele>470.7</ele>
        <time>2019-12-25T08:18:03.761Z</time>
      </trkpt>
      <trkpt lat="46.72188" lon="6.53281">
        <ele>468.8</ele>
        <time>2019-12-25T08:18:06.225Z</time>
      </trkpt>
      <trkpt lat="46.72179" lon="6.53276">
        <ele>467.8</ele>
        <time>2019-12-25T08:18:08.153Z</time>
      </trkpt>
      <trkpt lat="46.72169" lon="6.5327">
        <ele>465.9</ele>
        <time>2019-12-25T08:18:10.317Z</time>
      </trkpt>
      <trkpt lat="46.72157" lon="6.53267">
        <ele>464.5</ele>
        <time>2019-12-25T08:18:12.754Z</time>
      </trkpt>
      <trkpt lat="46.72145" lon="6.53264">
        <ele>463</ele>
        <time>2019-12-25T08:18:15.191Z</time>
      </trkpt>
      <trkpt lat="46.72133" lon="6.5326">
        <ele>462</ele>
        <time>2019-12-25T08:18:17.655Z</time>
      </trkpt>
      <trkpt lat="46.72125" lon="6.53254">
        <ele>461.6</ele>
        <time>2019-12-25T08:18:19.455Z</time>
      </trkpt>
      <trkpt lat="46.72116" lon="6.53247">
        <ele>461.1</ele>
        <time>2019-12-25T08:18:21.496Z</time>
      </trkpt>
      <trkpt lat="46.72104" lon="6.53244">
        <ele>462</ele>
        <time>2019-12-25T08:18:23.933Z</time>
      </trkpt>
      <trkpt lat="46.72095" lon="6.53246">
        <ele>460.6</ele>
        <time>2019-12-25T08:18:25.755Z</time>
      </trkpt>
      <trkpt lat="46.72085" lon="6.53255">
        <ele>460.6</ele>
        <time>2019-12-25T08:18:28.107Z</time>
      </trkpt>
      <trkpt lat="46.72078" lon="6.53266">
        <ele>460.1</ele>
        <time>2019-12-25T08:18:30.166Z</time>
      </trkpt>
      <trkpt lat="46.72071" lon="6.53276">
        <ele>459.6</ele>
        <time>2019-12-25T08:18:32.127Z</time>
      </trkpt>
      <trkpt lat="46.72062" lon="6.53288">
        <ele>459.2</ele>
        <time>2019-12-25T08:18:34.568Z</time>
      </trkpt>
      <trkpt lat="46.72054" lon="6.53295">
        <ele>459.6</ele>
        <time>2019-12-25T08:18:36.435Z</time>
      </trkpt>
      <trkpt lat="46.72041" lon="6.53299">
        <ele>461.1</ele>
        <time>2019-12-25T08:18:39.094Z</time>
      </trkpt>
      <trkpt lat="46.7203" lon="6.53293">
        <ele>462.5</ele>
        <time>2019-12-25T08:18:41.445Z</time>
      </trkpt>
      <trkpt lat="46.7203" lon="6.53277">
        <ele>463</ele>
        <time>2019-12-25T08:18:43.640Z</time>
      </trkpt>
      <trkpt lat="46.72036" lon="6.53266">
        <ele>464.9</ele>
        <time>2019-12-25T08:18:45.569Z</time>
      </trkpt>
      <trkpt lat="46.72044" lon="6.53255">
        <ele>466.4</ele>
        <time>2019-12-25T08:18:47.769Z</time>
      </trkpt>
      <trkpt lat="46.72052" lon="6.53244">
        <ele>467.3</ele>
        <time>2019-12-25T08:18:49.969Z</time>
      </trkpt>
      <trkpt lat="46.72058" lon="6.53229">
        <ele>468.8</ele>
        <time>2019-12-25T08:18:52.352Z</time>
      </trkpt>
      <trkpt lat="46.72055" lon="6.53218">
        <ele>469.3</ele>
        <time>2019-12-25T08:18:53.976Z</time>
      </trkpt>
      <trkpt lat="46.72058" lon="6.53232">
        <ele>468.3</ele>
        <time>2019-12-25T08:18:55.989Z</time>
      </trkpt>
      <trkpt lat="46.72055" lon="6.53247">
        <ele>466.4</ele>
        <time>2019-12-25T08:18:58.133Z</time>
      </trkpt>
      <trkpt lat="46.72053" lon="6.53245">
        <ele>467.3</ele>
        <time>2019-12-25T08:18:58.618Z</time>
      </trkpt>
      <trkpt lat="46.72057" lon="6.53232">
        <ele>468.8</ele>
        <time>2019-12-25T08:19:00.573Z</time>
      </trkpt>
      <trkpt lat="46.72052" lon="6.53223">
        <ele>470.2</ele>
        <time>2019-12-25T08:19:02.163Z</time>
      </trkpt>
      <trkpt lat="46.72043" lon="6.53232">
        <ele>470.2</ele>
        <time>2019-12-25T08:19:04.347Z</time>
      </trkpt>
      <trkpt lat="46.72037" lon="6.53246">
        <ele>469.7</ele>
        <time>2019-12-25T08:19:06.612Z</time>
      </trkpt>
      <trkpt lat="46.72032" lon="6.5326">
        <ele>469.3</ele>
        <time>2019-12-25T08:19:08.778Z</time>
      </trkpt>
      <trkpt lat="46.72027" lon="6.53273">
        <ele>467.8</ele>
        <time>2019-12-25T08:19:10.823Z</time>
      </trkpt>
      <trkpt lat="46.72023" lon="6.53287">
        <ele>466.9</ele>
        <time>2019-12-25T08:19:12.904Z</time>
      </trkpt>
      <trkpt lat="46.72022" lon="6.53302">
        <ele>465.9</ele>
        <time>2019-12-25T08:19:14.972Z</time>
      </trkpt>
      <trkpt lat="46.72023" lon="6.53317">
        <ele>465.4</ele>
        <time>2019-12-25T08:19:17.040Z</time>
      </trkpt>
      <trkpt lat="46.72025" lon="6.53333">
        <ele>463</ele>
        <time>2019-12-25T08:19:19.272Z</time>
      </trkpt>
      <trkpt lat="46.72028" lon="6.53324">
        <ele>463.5</ele>
        <time>2019-12-25T08:19:20.645Z</time>
      </trkpt>
      <trkpt lat="46.72032" lon="6.53319">
        <ele>463</ele>
        <time>2019-12-25T08:19:21.699Z</time>
      </trkpt>
      <trkpt lat="46.72029" lon="6.53333">
        <ele>463.5</ele>
        <time>2019-12-25T08:19:23.712Z</time>
      </trkpt>
      <trkpt lat="46.72028" lon="6.53348">
        <ele>462.5</ele>
        <time>2019-12-25T08:19:25.780Z</time>
      </trkpt>
      <trkpt lat="46.72029" lon="6.53365">
        <ele>461.6</ele>
        <time>2019-12-25T08:19:28.121Z</time>
      </trkpt>
      <trkpt lat="46.72029" lon="6.53381">
        <ele>460.6</ele>
        <time>2019-12-25T08:19:30.316Z</time>
      </trkpt>
      <trkpt lat="46.72024" lon="6.53394">
        <ele>460.1</ele>
        <time>2019-12-25T08:19:32.361Z</time>
      </trkpt>
      <trkpt lat="46.72014" lon="6.53396">
        <ele>460.6</ele>
        <time>2019-12-25T08:19:34.381Z</time>
      </trkpt>
      <trkpt lat="46.72004" lon="6.53396">
        <ele>461.6</ele>
        <time>2019-12-25T08:19:36.383Z</time>
      </trkpt>
      <trkpt lat="46.7199" lon="6.53397">
        <ele>463</ele>
        <time>2019-12-25T08:19:39.188Z</time>
      </trkpt>
      <trkpt lat="46.71973" lon="6.53397">
        <ele>463.5</ele>
        <time>2019-12-25T08:19:42.591Z</time>
      </trkpt>
      <trkpt lat="46.71957" lon="6.53398">
        <ele>463</ele>
        <time>2019-12-25T08:19:45.796Z</time>
      </trkpt>
      <trkpt lat="46.7194" lon="6.53403">
        <ele>464</ele>
        <time>2019-12-25T08:19:49.267Z</time>
      </trkpt>
      <trkpt lat="46.71923" lon="6.53409">
        <ele>463.5</ele>
        <time>2019-12-25T08:19:52.768Z</time>
      </trkpt>
      <trkpt lat="46.71907" lon="6.53415">
        <ele>464</ele>
        <time>2019-12-25T08:19:56.075Z</time>
      </trkpt>
      <trkpt lat="46.71891" lon="6.53424">
        <ele>464.5</ele>
        <time>2019-12-25T08:19:59.507Z</time>
      </trkpt>
      <trkpt lat="46.71875" lon="6.53434">
        <ele>464.5</ele>
        <time>2019-12-25T08:20:02.991Z</time>
      </trkpt>
      <trkpt lat="46.7186" lon="6.53443">
        <ele>465.4</ele>
        <time>2019-12-25T08:20:06.237Z</time>
      </trkpt>
      <trkpt lat="46.71845" lon="6.53447">
        <ele>466.4</ele>
        <time>2019-12-25T08:20:09.289Z</time>
      </trkpt>
      <trkpt lat="46.7183" lon="6.53452">
        <ele>466.4</ele>
        <time>2019-12-25T08:20:12.369Z</time>
      </trkpt>
      <trkpt lat="46.71813" lon="6.53456">
        <ele>468.3</ele>
        <time>2019-12-25T08:20:15.816Z</time>
      </trkpt>
      <trkpt lat="46.71804" lon="6.53458">
        <ele>469.3</ele>
        <time>2019-12-25T08:20:17.638Z</time>
      </trkpt>
      <trkpt lat="46.71794" lon="6.5346">
        <ele>470.2</ele>
        <time>2019-12-25T08:20:19.658Z</time>
      </trkpt>
      <trkpt lat="46.71783" lon="6.53461">
        <ele>470.2</ele>
        <time>2019-12-25T08:20:21.864Z</time>
      </trkpt>
      <trkpt lat="46.71773" lon="6.53462">
        <ele>470.7</ele>
        <time>2019-12-25T08:20:23.870Z</time>
      </trkpt>
      <trkpt lat="46.71762" lon="6.53463">
        <ele>471.7</ele>
        <time>2019-12-25T08:20:26.076Z</time>
      </trkpt>
      <trkpt lat="46.71752" lon="6.53464">
        <ele>472.6</ele>
        <time>2019-12-25T08:20:28.082Z</time>
      </trkpt>
      <trkpt lat="46.71741" lon="6.53465">
        <ele>473.6</ele>
        <time>2019-12-25T08:20:30.288Z</time>
      </trkpt>
      <trkpt lat="46.71731" lon="6.53467">
        <ele>474.1</ele>
        <time>2019-12-25T08:20:32.308Z</time>
      </trkpt>
      <trkpt lat="46.71722" lon="6.53468">
        <ele>475.5</ele>
        <time>2019-12-25T08:20:34.115Z</time>
      </trkpt>
      <trkpt lat="46.71713" lon="6.53469">
        <ele>476</ele>
        <time>2019-12-25T08:20:35.922Z</time>
      </trkpt>
      <trkpt lat="46.71704" lon="6.53471">
        <ele>476.5</ele>
        <time>2019-12-25T08:20:37.744Z</time>
      </trkpt>
      <trkpt lat="46.71686" lon="6.53473">
        <ele>477.4</ele>
        <time>2019-12-25T08:20:41.357Z</time>
      </trkpt>
      <trkpt lat="46.71668" lon="6.53475">
        <ele>477</ele>
        <time>2019-12-25T08:20:44.970Z</time>
      </trkpt>
      <trkpt lat="46.71659" lon="6.53476">
        <ele>477.4</ele>
        <time>2019-12-25T08:20:46.777Z</time>
      </trkpt>
      <trkpt lat="46.7165" lon="6.53478">
        <ele>477.4</ele>
        <time>2019-12-25T08:20:48.599Z</time>
      </trkpt>
      <trkpt lat="46.71641" lon="6.53479">
        <ele>478.4</ele>
        <time>2019-12-25T08:20:50.406Z</time>
      </trkpt>
      <trkpt lat="46.71631" lon="6.53479">
        <ele>478.4</ele>
        <time>2019-12-25T08:20:52.408Z</time>
      </trkpt>
      <trkpt lat="46.71622" lon="6.53479">
        <ele>478.9</ele>
        <time>2019-12-25T08:20:54.209Z</time>
      </trkpt>
      <trkpt lat="46.71612" lon="6.5348">
        <ele>479.4</ele>
        <time>2019-12-25T08:20:56.215Z</time>
      </trkpt>
      <trkpt lat="46.71602" lon="6.53479">
        <ele>479.8</ele>
        <time>2019-12-25T08:20:58.221Z</time>
      </trkpt>
      <trkpt lat="46.71592" lon="6.53479">
        <ele>480.3</ele>
        <time>2019-12-25T08:21:00.223Z</time>
      </trkpt>
      <trkpt lat="46.71582" lon="6.53479">
        <ele>479.8</ele>
        <time>2019-12-25T08:21:02.225Z</time>
      </trkpt>
      <trkpt lat="46.71572" lon="6.5348">
        <ele>480.8</ele>
        <time>2019-12-25T08:21:04.231Z</time>
      </trkpt>
      <trkpt lat="46.71562" lon="6.53481">
        <ele>481.3</ele>
        <time>2019-12-25T08:21:06.237Z</time>
      </trkpt>
      <trkpt lat="46.71552" lon="6.53482">
        <ele>481.8</ele>
        <time>2019-12-25T08:21:08.243Z</time>
      </trkpt>
      <trkpt lat="46.71542" lon="6.53485">
        <ele>481.8</ele>
        <time>2019-12-25T08:21:10.286Z</time>
      </trkpt>
      <trkpt lat="46.71533" lon="6.53487">
        <ele>482.2</ele>
        <time>2019-12-25T08:21:12.108Z</time>
      </trkpt>
      <trkpt lat="46.71523" lon="6.5349">
        <ele>483.7</ele>
        <time>2019-12-25T08:21:14.151Z</time>
      </trkpt>
      <trkpt lat="46.71514" lon="6.53493">
        <ele>483.2</ele>
        <time>2019-12-25T08:21:15.999Z</time>
      </trkpt>
      <trkpt lat="46.71505" lon="6.53497">
        <ele>483.7</ele>
        <time>2019-12-25T08:21:17.882Z</time>
      </trkpt>
      <trkpt lat="46.71496" lon="6.53499">
        <ele>484.2</ele>
        <time>2019-12-25T08:21:19.704Z</time>
      </trkpt>
      <trkpt lat="46.71487" lon="6.53501">
        <ele>484.6</ele>
        <time>2019-12-25T08:21:21.526Z</time>
      </trkpt>
      <trkpt lat="46.71478" lon="6.53503">
        <ele>484.2</ele>
        <time>2019-12-25T08:21:23.348Z</time>
      </trkpt>
      <trkpt lat="46.71469" lon="6.53503">
        <ele>484.6</ele>
        <time>2019-12-25T08:21:25.149Z</time>
      </trkpt>
      <trkpt lat="46.71451" lon="6.53504">
        <ele>485.1</ele>
        <time>2019-12-25T08:21:28.754Z</time>
      </trkpt>
      <trkpt lat="46.71433" lon="6.53504">
        <ele>486.1</ele>
        <time>2019-12-25T08:21:32.357Z</time>
      </trkpt>
      <trkpt lat="46.71417" lon="6.53505">
        <ele>487.5</ele>
        <time>2019-12-25T08:21:35.562Z</time>
      </trkpt>
      <trkpt lat="46.71402" lon="6.53504">
        <ele>487.5</ele>
        <time>2019-12-25T08:21:38.567Z</time>
      </trkpt>
      <trkpt lat="46.71388" lon="6.53504">
        <ele>487.5</ele>
        <time>2019-12-25T08:21:41.369Z</time>
      </trkpt>
      <trkpt lat="46.71374" lon="6.53502">
        <ele>487</ele>
        <time>2019-12-25T08:21:44.185Z</time>
      </trkpt>
      <trkpt lat="46.71359" lon="6.535">
        <ele>487</ele>
        <time>2019-12-25T08:21:47.200Z</time>
      </trkpt>
      <trkpt lat="46.71344" lon="6.535">
        <ele>487</ele>
        <time>2019-12-25T08:21:50.202Z</time>
      </trkpt>
      <trkpt lat="46.71329" lon="6.53499">
        <ele>487</ele>
        <time>2019-12-25T08:21:53.207Z</time>
      </trkpt>
      <trkpt lat="46.71314" lon="6.53498">
        <ele>487</ele>
        <time>2019-12-25T08:21:56.212Z</time>
      </trkpt>
      <trkpt lat="46.71299" lon="6.53496">
        <ele>487</ele>
        <time>2019-12-25T08:21:59.227Z</time>
      </trkpt>
      <trkpt lat="46.71283" lon="6.53495">
        <ele>487.5</ele>
        <time>2019-12-25T08:22:02.432Z</time>
      </trkpt>
      <trkpt lat="46.71267" lon="6.53493">
        <ele>487</ele>
        <time>2019-12-25T08:22:05.646Z</time>
      </trkpt>
      <trkpt lat="46.7125" lon="6.53491">
        <ele>487</ele>
        <time>2019-12-25T08:22:09.060Z</time>
      </trkpt>
      <trkpt lat="46.71233" lon="6.53489">
        <ele>487</ele>
        <time>2019-12-25T08:22:12.474Z</time>
      </trkpt>
      <trkpt lat="46.71217" lon="6.53488">
        <ele>487</ele>
        <time>2019-12-25T08:22:15.679Z</time>
      </trkpt>
      <trkpt lat="46.712" lon="6.53487">
        <ele>487.5</ele>
        <time>2019-12-25T08:22:19.084Z</time>
      </trkpt>
      <trkpt lat="46.71184" lon="6.53486">
        <ele>486.6</ele>
        <time>2019-12-25T08:22:22.289Z</time>
      </trkpt>
      <trkpt lat="46.71167" lon="6.53484">
        <ele>487.5</ele>
        <time>2019-12-25T08:22:25.703Z</time>
      </trkpt>
      <trkpt lat="46.71151" lon="6.53483">
        <ele>486.6</ele>
        <time>2019-12-25T08:22:28.908Z</time>
      </trkpt>
      <trkpt lat="46.71134" lon="6.53481">
        <ele>488.5</ele>
        <time>2019-12-25T08:22:32.322Z</time>
      </trkpt>
      <trkpt lat="46.71125" lon="6.5348">
        <ele>489</ele>
        <time>2019-12-25T08:22:34.129Z</time>
      </trkpt>
      <trkpt lat="46.71115" lon="6.53479">
        <ele>489</ele>
        <time>2019-12-25T08:22:36.135Z</time>
      </trkpt>
      <trkpt lat="46.71106" lon="6.53478">
        <ele>489.5</ele>
        <time>2019-12-25T08:22:37.942Z</time>
      </trkpt>
      <trkpt lat="46.71089" lon="6.53476">
        <ele>490.4</ele>
        <time>2019-12-25T08:22:41.356Z</time>
      </trkpt>
      <trkpt lat="46.71073" lon="6.53474">
        <ele>491.9</ele>
        <time>2019-12-25T08:22:44.570Z</time>
      </trkpt>
      <trkpt lat="46.71058" lon="6.53473">
        <ele>492.3</ele>
        <time>2019-12-25T08:22:47.575Z</time>
      </trkpt>
      <trkpt lat="46.71045" lon="6.53472">
        <ele>491.9</ele>
        <time>2019-12-25T08:22:50.181Z</time>
      </trkpt>
      <trkpt lat="46.71033" lon="6.5347">
        <ele>491.9</ele>
        <time>2019-12-25T08:22:52.598Z</time>
      </trkpt>
      <trkpt lat="46.71021" lon="6.5347">
        <ele>491.4</ele>
        <time>2019-12-25T08:22:55.000Z</time>
      </trkpt>
      <trkpt lat="46.71009" lon="6.53468">
        <ele>491.4</ele>
        <time>2019-12-25T08:22:57.417Z</time>
      </trkpt>
      <trkpt lat="46.70996" lon="6.53466">
        <ele>490.9</ele>
        <time>2019-12-25T08:23:00.033Z</time>
      </trkpt>
      <trkpt lat="46.70983" lon="6.53464">
        <ele>490.4</ele>
        <time>2019-12-25T08:23:02.649Z</time>
      </trkpt>
      <trkpt lat="46.70968" lon="6.53464">
        <ele>489.9</ele>
        <time>2019-12-25T08:23:05.651Z</time>
      </trkpt>
      <trkpt lat="46.70953" lon="6.53462">
        <ele>490.4</ele>
        <time>2019-12-25T08:23:08.666Z</time>
      </trkpt>
      <trkpt lat="46.70938" lon="6.5346">
        <ele>489.9</ele>
        <time>2019-12-25T08:23:11.681Z</time>
      </trkpt>
      <trkpt lat="46.70922" lon="6.53458">
        <ele>489.9</ele>
        <time>2019-12-25T08:23:14.895Z</time>
      </trkpt>
      <trkpt lat="46.70905" lon="6.53456">
        <ele>489.5</ele>
        <time>2019-12-25T08:23:18.309Z</time>
      </trkpt>
      <trkpt lat="46.70889" lon="6.53453">
        <ele>490.9</ele>
        <time>2019-12-25T08:23:21.538Z</time>
      </trkpt>
      <trkpt lat="46.70874" lon="6.53451">
        <ele>491.4</ele>
        <time>2019-12-25T08:23:24.553Z</time>
      </trkpt>
      <trkpt lat="46.70862" lon="6.53449">
        <ele>491.9</ele>
        <time>2019-12-25T08:23:26.970Z</time>
      </trkpt>
      <trkpt lat="46.7085" lon="6.53445">
        <ele>492.8</ele>
        <time>2019-12-25T08:23:29.434Z</time>
      </trkpt>
      <trkpt lat="46.7084" lon="6.53432">
        <ele>492.8</ele>
        <time>2019-12-25T08:23:32.115Z</time>
      </trkpt>
      <trkpt lat="46.70834" lon="6.53411">
        <ele>492.3</ele>
        <time>2019-12-25T08:23:35.237Z</time>
      </trkpt>
      <trkpt lat="46.70829" lon="6.53387">
        <ele>492.8</ele>
        <time>2019-12-25T08:23:38.680Z</time>
      </trkpt>
      <trkpt lat="46.70826" lon="6.53373">
        <ele>492.8</ele>
        <time>2019-12-25T08:23:40.693Z</time>
      </trkpt>
      <trkpt lat="46.70823" lon="6.53359">
        <ele>493.8</ele>
        <time>2019-12-25T08:23:42.706Z</time>
      </trkpt>
      <trkpt lat="46.70818" lon="6.53345">
        <ele>493.3</ele>
        <time>2019-12-25T08:23:44.872Z</time>
      </trkpt>
      <trkpt lat="46.70812" lon="6.5333">
        <ele>493.8</ele>
        <time>2019-12-25T08:23:47.255Z</time>
      </trkpt>
      <trkpt lat="46.70805" lon="6.53315">
        <ele>494.3</ele>
        <time>2019-12-25T08:23:49.745Z</time>
      </trkpt>
      <trkpt lat="46.70799" lon="6.53299">
        <ele>494.7</ele>
        <time>2019-12-25T08:23:52.248Z</time>
      </trkpt>
      <trkpt lat="46.70794" lon="6.53283">
        <ele>492.8</ele>
        <time>2019-12-25T08:23:54.661Z</time>
      </trkpt>
      <trkpt lat="46.70789" lon="6.53266">
        <ele>493.3</ele>
        <time>2019-12-25T08:23:57.200Z</time>
      </trkpt>
      <trkpt lat="46.70785" lon="6.53252">
        <ele>494.3</ele>
        <time>2019-12-25T08:23:59.282Z</time>
      </trkpt>
      <trkpt lat="46.7078" lon="6.53237">
        <ele>497.6</ele>
        <time>2019-12-25T08:24:01.571Z</time>
      </trkpt>
      <trkpt lat="46.70774" lon="6.5322">
        <ele>498.1</ele>
        <time>2019-12-25T08:24:04.195Z</time>
      </trkpt>
      <trkpt lat="46.70767" lon="6.53203">
        <ele>499.5</ele>
        <time>2019-12-25T08:24:06.917Z</time>
      </trkpt>
      <trkpt lat="46.7076" lon="6.53186">
        <ele>501</ele>
        <time>2019-12-25T08:24:09.639Z</time>
      </trkpt>
      <trkpt lat="46.70753" lon="6.53169">
        <ele>502.4</ele>
        <time>2019-12-25T08:24:12.361Z</time>
      </trkpt>
      <trkpt lat="46.70746" lon="6.53153">
        <ele>503.9</ele>
        <time>2019-12-25T08:24:14.966Z</time>
      </trkpt>
      <trkpt lat="46.70738" lon="6.53138">
        <ele>506.3</ele>
        <time>2019-12-25T08:24:17.574Z</time>
      </trkpt>
      <trkpt lat="46.7073" lon="6.53124">
        <ele>507.7</ele>
        <time>2019-12-25T08:24:20.075Z</time>
      </trkpt>
      <trkpt lat="46.70722" lon="6.53112">
        <ele>508.7</ele>
        <time>2019-12-25T08:24:22.372Z</time>
      </trkpt>
      <trkpt lat="46.70713" lon="6.531">
        <ele>509.2</ele>
        <time>2019-12-25T08:24:24.813Z</time>
      </trkpt>
      <trkpt lat="46.70705" lon="6.53088">
        <ele>510.1</ele>
        <time>2019-12-25T08:24:27.110Z</time>
      </trkpt>
      <trkpt lat="46.70697" lon="6.53078">
        <ele>510.6</ele>
        <time>2019-12-25T08:24:29.219Z</time>
      </trkpt>
      <trkpt lat="46.70688" lon="6.53069">
        <ele>511.6</ele>
        <time>2019-12-25T08:24:31.403Z</time>
      </trkpt>
      <trkpt lat="46.70679" lon="6.5306">
        <ele>512</ele>
        <time>2019-12-25T08:24:33.587Z</time>
      </trkpt>
      <trkpt lat="46.7067" lon="6.53053">
        <ele>512.5</ele>
        <time>2019-12-25T08:24:35.629Z</time>
      </trkpt>
      <trkpt lat="46.70661" lon="6.53045">
        <ele>513</ele>
        <time>2019-12-25T08:24:37.739Z</time>
      </trkpt>
      <trkpt lat="46.70652" lon="6.53037">
        <ele>513.5</ele>
        <time>2019-12-25T08:24:39.849Z</time>
      </trkpt>
      <trkpt lat="46.70644" lon="6.5303">
        <ele>514.4</ele>
        <time>2019-12-25T08:24:41.716Z</time>
      </trkpt>
      <trkpt lat="46.70635" lon="6.53023">
        <ele>514.4</ele>
        <time>2019-12-25T08:24:43.758Z</time>
      </trkpt>
      <trkpt lat="46.70626" lon="6.53015">
        <ele>514.9</ele>
        <time>2019-12-25T08:24:45.868Z</time>
      </trkpt>
      <trkpt lat="46.70617" lon="6.53009">
        <ele>515.9</ele>
        <time>2019-12-25T08:24:47.849Z</time>
      </trkpt>
      <trkpt lat="46.70608" lon="6.53003">
        <ele>516.8</ele>
        <time>2019-12-25T08:24:49.830Z</time>
      </trkpt>
      <trkpt lat="46.70599" lon="6.52999">
        <ele>516.8</ele>
        <time>2019-12-25T08:24:51.713Z</time>
      </trkpt>
      <trkpt lat="46.7059" lon="6.52997">
        <ele>517.8</ele>
        <time>2019-12-25T08:24:53.535Z</time>
      </trkpt>
      <trkpt lat="46.70572" lon="6.52997">
        <ele>518.8</ele>
        <time>2019-12-25T08:24:57.138Z</time>
      </trkpt>
      <trkpt lat="46.70554" lon="6.53004">
        <ele>519.2</ele>
        <time>2019-12-25T08:25:00.867Z</time>
      </trkpt>
      <trkpt lat="46.70539" lon="6.53014">
        <ele>520.7</ele>
        <time>2019-12-25T08:25:04.168Z</time>
      </trkpt>
      <trkpt lat="46.70524" lon="6.53019">
        <ele>521.7</ele>
        <time>2019-12-25T08:25:07.248Z</time>
      </trkpt>
      <trkpt lat="46.70511" lon="6.53021">
        <ele>522.1</ele>
        <time>2019-12-25T08:25:09.864Z</time>
      </trkpt>
      <trkpt lat="46.70499" lon="6.53022">
        <ele>522.6</ele>
        <time>2019-12-25T08:25:12.270Z</time>
      </trkpt>
      <trkpt lat="46.70489" lon="6.53023">
        <ele>523.1</ele>
        <time>2019-12-25T08:25:14.276Z</time>
      </trkpt>
      <trkpt lat="46.70479" lon="6.53023">
        <ele>522.6</ele>
        <time>2019-12-25T08:25:16.278Z</time>
      </trkpt>
      <trkpt lat="46.70467" lon="6.53025">
        <ele>523.1</ele>
        <time>2019-12-25T08:25:18.695Z</time>
      </trkpt>
      <trkpt lat="46.70461" lon="6.53041">
        <ele>520.2</ele>
        <time>2019-12-25T08:25:21.198Z</time>
      </trkpt>
      <trkpt lat="46.70456" lon="6.53058">
        <ele>519.7</ele>
        <time>2019-12-25T08:25:23.737Z</time>
      </trkpt>
      <trkpt lat="46.70451" lon="6.53075">
        <ele>518.8</ele>
        <time>2019-12-25T08:25:26.276Z</time>
      </trkpt>
      <trkpt lat="46.70443" lon="6.5309">
        <ele>520.2</ele>
        <time>2019-12-25T08:25:28.884Z</time>
      </trkpt>
      <trkpt lat="46.70436" lon="6.53104">
        <ele>521.2</ele>
        <time>2019-12-25T08:25:31.262Z</time>
      </trkpt>
      <trkpt lat="46.7043" lon="6.53116">
        <ele>522.1</ele>
        <time>2019-12-25T08:25:33.300Z</time>
      </trkpt>
      <trkpt lat="46.70419" lon="6.53122">
        <ele>523.6</ele>
        <time>2019-12-25T08:25:35.651Z</time>
      </trkpt>
      <trkpt lat="46.70411" lon="6.53118">
        <ele>524.5</ele>
        <time>2019-12-25T08:25:37.344Z</time>
      </trkpt>
      <trkpt lat="46.704" lon="6.5311">
        <ele>525.5</ele>
        <time>2019-12-25T08:25:39.804Z</time>
      </trkpt>
      <trkpt lat="46.70385" lon="6.53101">
        <ele>526.5</ele>
        <time>2019-12-25T08:25:43.050Z</time>
      </trkpt>
      <trkpt lat="46.7037" lon="6.53092">
        <ele>526.9</ele>
        <time>2019-12-25T08:25:46.296Z</time>
      </trkpt>
      <trkpt lat="46.70355" lon="6.53085">
        <ele>526.9</ele>
        <time>2019-12-25T08:25:49.448Z</time>
      </trkpt>
      <trkpt lat="46.7034" lon="6.53079">
        <ele>527.9</ele>
        <time>2019-12-25T08:25:52.561Z</time>
      </trkpt>
      <trkpt lat="46.70325" lon="6.53072">
        <ele>527.4</ele>
        <time>2019-12-25T08:25:55.713Z</time>
      </trkpt>
      <trkpt lat="46.7031" lon="6.53065">
        <ele>527.9</ele>
        <time>2019-12-25T08:25:58.865Z</time>
      </trkpt>
      <trkpt lat="46.70295" lon="6.53056">
        <ele>527.4</ele>
        <time>2019-12-25T08:26:02.111Z</time>
      </trkpt>
      <trkpt lat="46.7028" lon="6.53045">
        <ele>527.4</ele>
        <time>2019-12-25T08:26:05.472Z</time>
      </trkpt>
      <trkpt lat="46.70265" lon="6.53034">
        <ele>527.4</ele>
        <time>2019-12-25T08:26:08.833Z</time>
      </trkpt>
      <trkpt lat="46.7025" lon="6.53023">
        <ele>528.4</ele>
        <time>2019-12-25T08:26:12.194Z</time>
      </trkpt>
      <trkpt lat="46.70235" lon="6.53014">
        <ele>528.4</ele>
        <time>2019-12-25T08:26:15.440Z</time>
      </trkpt>
      <trkpt lat="46.70219" lon="6.53007">
        <ele>529.3</ele>
        <time>2019-12-25T08:26:18.783Z</time>
      </trkpt>
      <trkpt lat="46.70203" lon="6.53">
        <ele>528.9</ele>
        <time>2019-12-25T08:26:22.126Z</time>
      </trkpt>
      <trkpt lat="46.70188" lon="6.5299">
        <ele>528.9</ele>
        <time>2019-12-25T08:26:25.427Z</time>
      </trkpt>
      <trkpt lat="46.70174" lon="6.52975">
        <ele>529.3</ele>
        <time>2019-12-25T08:26:28.904Z</time>
      </trkpt>
      <trkpt lat="46.70161" lon="6.52956">
        <ele>529.8</ele>
        <time>2019-12-25T08:26:32.588Z</time>
      </trkpt>
      <trkpt lat="46.70155" lon="6.52947">
        <ele>530.3</ele>
        <time>2019-12-25T08:26:34.311Z</time>
      </trkpt>
      <trkpt lat="46.70142" lon="6.52928">
        <ele>530.3</ele>
        <time>2019-12-25T08:26:37.995Z</time>
      </trkpt>
      <trkpt lat="46.70136" lon="6.52918">
        <ele>530.3</ele>
        <time>2019-12-25T08:26:39.819Z</time>
      </trkpt>
      <trkpt lat="46.70129" lon="6.52909">
        <ele>530.8</ele>
        <time>2019-12-25T08:26:41.687Z</time>
      </trkpt>
      <trkpt lat="46.70123" lon="6.52899">
        <ele>531.3</ele>
        <time>2019-12-25T08:26:43.511Z</time>
      </trkpt>
      <trkpt lat="46.70116" lon="6.52889">
        <ele>531.3</ele>
        <time>2019-12-25T08:26:45.472Z</time>
      </trkpt>
      <trkpt lat="46.70109" lon="6.52879">
        <ele>530.8</ele>
        <time>2019-12-25T08:26:47.433Z</time>
      </trkpt>
      <trkpt lat="46.70102" lon="6.52869">
        <ele>531.3</ele>
        <time>2019-12-25T08:26:49.394Z</time>
      </trkpt>
      <trkpt lat="46.70095" lon="6.52859">
        <ele>531.8</ele>
        <time>2019-12-25T08:26:51.355Z</time>
      </trkpt>
      <trkpt lat="46.70088" lon="6.52848">
        <ele>531.8</ele>
        <time>2019-12-25T08:26:53.415Z</time>
      </trkpt>
      <trkpt lat="46.70081" lon="6.52838">
        <ele>532.7</ele>
        <time>2019-12-25T08:26:55.376Z</time>
      </trkpt>
      <trkpt lat="46.70074" lon="6.52827">
        <ele>532.2</ele>
        <time>2019-12-25T08:26:57.436Z</time>
      </trkpt>
      <trkpt lat="46.70067" lon="6.52816">
        <ele>532.2</ele>
        <time>2019-12-25T08:26:59.496Z</time>
      </trkpt>
      <trkpt lat="46.70059" lon="6.52805">
        <ele>533.7</ele>
        <time>2019-12-25T08:27:01.697Z</time>
      </trkpt>
      <trkpt lat="46.70052" lon="6.52794">
        <ele>533.2</ele>
        <time>2019-12-25T08:27:03.757Z</time>
      </trkpt>
      <trkpt lat="46.70045" lon="6.52784">
        <ele>534.2</ele>
        <time>2019-12-25T08:27:05.718Z</time>
      </trkpt>
      <trkpt lat="46.70037" lon="6.52773">
        <ele>535.1</ele>
        <time>2019-12-25T08:27:07.919Z</time>
      </trkpt>
      <trkpt lat="46.7003" lon="6.52763">
        <ele>535.6</ele>
        <time>2019-12-25T08:27:09.880Z</time>
      </trkpt>
      <trkpt lat="46.70023" lon="6.52752">
        <ele>536.5</ele>
        <time>2019-12-25T08:27:11.940Z</time>
      </trkpt>
      <trkpt lat="46.70015" lon="6.52742">
        <ele>536.1</ele>
        <time>2019-12-25T08:27:14.049Z</time>
      </trkpt>
      <trkpt lat="46.70008" lon="6.52732">
        <ele>537</ele>
        <time>2019-12-25T08:27:16.010Z</time>
      </trkpt>
      <trkpt lat="46.70001" lon="6.52722">
        <ele>538</ele>
        <time>2019-12-25T08:27:17.971Z</time>
      </trkpt>
      <trkpt lat="46.69994" lon="6.52712">
        <ele>539</ele>
        <time>2019-12-25T08:27:19.932Z</time>
      </trkpt>
      <trkpt lat="46.69987" lon="6.52702">
        <ele>539</ele>
        <time>2019-12-25T08:27:21.893Z</time>
      </trkpt>
      <trkpt lat="46.6998" lon="6.52692">
        <ele>539</ele>
        <time>2019-12-25T08:27:23.854Z</time>
      </trkpt>
      <trkpt lat="46.69973" lon="6.52683">
        <ele>539.9</ele>
        <time>2019-12-25T08:27:25.722Z</time>
      </trkpt>
      <trkpt lat="46.69967" lon="6.52674">
        <ele>540.4</ele>
        <time>2019-12-25T08:27:27.445Z</time>
      </trkpt>
      <trkpt lat="46.69954" lon="6.52656">
        <ele>541.4</ele>
        <time>2019-12-25T08:27:31.033Z</time>
      </trkpt>
      <trkpt lat="46.69943" lon="6.5264">
        <ele>542.3</ele>
        <time>2019-12-25T08:27:34.143Z</time>
      </trkpt>
      <trkpt lat="46.69932" lon="6.52625">
        <ele>542.8</ele>
        <time>2019-12-25T08:27:37.157Z</time>
      </trkpt>
      <trkpt lat="46.69921" lon="6.52612">
        <ele>543.3</ele>
        <time>2019-12-25T08:27:39.991Z</time>
      </trkpt>
      <trkpt lat="46.69911" lon="6.526">
        <ele>542.8</ele>
        <time>2019-12-25T08:27:42.583Z</time>
      </trkpt>
      <trkpt lat="46.69901" lon="6.52587">
        <ele>543.3</ele>
        <time>2019-12-25T08:27:45.265Z</time>
      </trkpt>
      <trkpt lat="46.69892" lon="6.52573">
        <ele>542.3</ele>
        <time>2019-12-25T08:27:47.899Z</time>
      </trkpt>
      <trkpt lat="46.69882" lon="6.52558">
        <ele>542.8</ele>
        <time>2019-12-25T08:27:50.771Z</time>
      </trkpt>
      <trkpt lat="46.69873" lon="6.52543">
        <ele>541.8</ele>
        <time>2019-12-25T08:27:53.507Z</time>
      </trkpt>
      <trkpt lat="46.69863" lon="6.52528">
        <ele>541.4</ele>
        <time>2019-12-25T08:27:56.379Z</time>
      </trkpt>
      <trkpt lat="46.69853" lon="6.52512">
        <ele>541.4</ele>
        <time>2019-12-25T08:27:59.351Z</time>
      </trkpt>
      <trkpt lat="46.69842" lon="6.52495">
        <ele>540.9</ele>
        <time>2019-12-25T08:28:02.559Z</time>
      </trkpt>
      <trkpt lat="46.69831" lon="6.52478">
        <ele>541.4</ele>
        <time>2019-12-25T08:28:05.767Z</time>
      </trkpt>
      <trkpt lat="46.69819" lon="6.5246">
        <ele>541.4</ele>
        <time>2019-12-25T08:28:09.213Z</time>
      </trkpt>
      <trkpt lat="46.69806" lon="6.52442">
        <ele>542.8</ele>
        <time>2019-12-25T08:28:12.801Z</time>
      </trkpt>
      <trkpt lat="46.698" lon="6.52432">
        <ele>542.3</ele>
        <time>2019-12-25T08:28:14.625Z</time>
      </trkpt>
      <trkpt lat="46.69794" lon="6.52422">
        <ele>543.8</ele>
        <time>2019-12-25T08:28:16.449Z</time>
      </trkpt>
      <trkpt lat="46.69788" lon="6.52412">
        <ele>543.3</ele>
        <time>2019-12-25T08:28:18.273Z</time>
      </trkpt>
      <trkpt lat="46.69778" lon="6.52391">
        <ele>544.2</ele>
        <time>2019-12-25T08:28:21.782Z</time>
      </trkpt>
      <trkpt lat="46.69768" lon="6.52372">
        <ele>545.7</ele>
        <time>2019-12-25T08:28:25.070Z</time>
      </trkpt>
      <trkpt lat="46.69758" lon="6.52355">
        <ele>546.2</ele>
        <time>2019-12-25T08:28:28.144Z</time>
      </trkpt>
      <trkpt lat="46.69749" lon="6.52338">
        <ele>546.2</ele>
        <time>2019-12-25T08:28:31.092Z</time>
      </trkpt>
      <trkpt lat="46.69738" lon="6.52324">
        <ele>546.2</ele>
        <time>2019-12-25T08:28:34.014Z</time>
      </trkpt>
      <trkpt lat="46.69728" lon="6.52312">
        <ele>546.2</ele>
        <time>2019-12-25T08:28:36.606Z</time>
      </trkpt>
      <trkpt lat="46.69717" lon="6.52301">
        <ele>546.7</ele>
        <time>2019-12-25T08:28:39.276Z</time>
      </trkpt>
      <trkpt lat="46.69707" lon="6.5229">
        <ele>546.2</ele>
        <time>2019-12-25T08:28:41.783Z</time>
      </trkpt>
      <trkpt lat="46.69698" lon="6.52279">
        <ele>546.7</ele>
        <time>2019-12-25T08:28:44.134Z</time>
      </trkpt>
      <trkpt lat="46.69686" lon="6.52278">
        <ele>547.6</ele>
        <time>2019-12-25T08:28:46.540Z</time>
      </trkpt>
      <trkpt lat="46.69681" lon="6.52288">
        <ele>547.1</ele>
        <time>2019-12-25T08:28:48.239Z</time>
      </trkpt>
      <trkpt lat="46.69674" lon="6.52304">
        <ele>547.6</ele>
        <time>2019-12-25T08:28:50.844Z</time>
      </trkpt>
      <trkpt lat="46.69662" lon="6.52307">
        <ele>547.6</ele>
        <time>2019-12-25T08:28:53.281Z</time>
      </trkpt>
      <trkpt lat="46.69652" lon="6.523">
        <ele>548.6</ele>
        <time>2019-12-25T08:28:55.501Z</time>
      </trkpt>
      <trkpt lat="46.6964" lon="6.52292">
        <ele>548.1</ele>
        <time>2019-12-25T08:28:58.142Z</time>
      </trkpt>
      <trkpt lat="46.69628" lon="6.52283">
        <ele>549</ele>
        <time>2019-12-25T08:29:00.843Z</time>
      </trkpt>
      <trkpt lat="46.69617" lon="6.52274">
        <ele>549.5</ele>
        <time>2019-12-25T08:29:03.368Z</time>
      </trkpt>
      <trkpt lat="46.69605" lon="6.52266">
        <ele>549</ele>
        <time>2019-12-25T08:29:06.009Z</time>
      </trkpt>
      <trkpt lat="46.69594" lon="6.52257">
        <ele>549.5</ele>
        <time>2019-12-25T08:29:08.534Z</time>
      </trkpt>
      <trkpt lat="46.69582" lon="6.52248">
        <ele>550.5</ele>
        <time>2019-12-25T08:29:11.235Z</time>
      </trkpt>
      <trkpt lat="46.69571" lon="6.5224">
        <ele>551</ele>
        <time>2019-12-25T08:29:13.695Z</time>
      </trkpt>
      <trkpt lat="46.6956" lon="6.52233">
        <ele>551</ele>
        <time>2019-12-25T08:29:16.097Z</time>
      </trkpt>
      <trkpt lat="46.69549" lon="6.52226">
        <ele>551.5</ele>
        <time>2019-12-25T08:29:18.499Z</time>
      </trkpt>
      <trkpt lat="46.69538" lon="6.52218">
        <ele>551</ele>
        <time>2019-12-25T08:29:20.959Z</time>
      </trkpt>
      <trkpt lat="46.69527" lon="6.52211">
        <ele>551.5</ele>
        <time>2019-12-25T08:29:23.361Z</time>
      </trkpt>
      <trkpt lat="46.69516" lon="6.52204">
        <ele>551.5</ele>
        <time>2019-12-25T08:29:25.763Z</time>
      </trkpt>
      <trkpt lat="46.69506" lon="6.52196">
        <ele>551</ele>
        <time>2019-12-25T08:29:28.046Z</time>
      </trkpt>
      <trkpt lat="46.69495" lon="6.5219">
        <ele>551</ele>
        <time>2019-12-25T08:29:30.397Z</time>
      </trkpt>
      <trkpt lat="46.69483" lon="6.52183">
        <ele>550.5</ele>
        <time>2019-12-25T08:29:32.984Z</time>
      </trkpt>
      <trkpt lat="46.69472" lon="6.52176">
        <ele>551</ele>
        <time>2019-12-25T08:29:35.386Z</time>
      </trkpt>
      <trkpt lat="46.69461" lon="6.5217">
        <ele>551.5</ele>
        <time>2019-12-25T08:29:37.737Z</time>
      </trkpt>
      <trkpt lat="46.69451" lon="6.52164">
        <ele>551</ele>
        <time>2019-12-25T08:29:39.901Z</time>
      </trkpt>
      <trkpt lat="46.69441" lon="6.52157">
        <ele>551</ele>
        <time>2019-12-25T08:29:42.121Z</time>
      </trkpt>
      <trkpt lat="46.6943" lon="6.52151">
        <ele>550.5</ele>
        <time>2019-12-25T08:29:44.472Z</time>
      </trkpt>
      <trkpt lat="46.69419" lon="6.52146">
        <ele>550</ele>
        <time>2019-12-25T08:29:46.778Z</time>
      </trkpt>
      <trkpt lat="46.69409" lon="6.52141">
        <ele>551</ele>
        <time>2019-12-25T08:29:48.894Z</time>
      </trkpt>
      <trkpt lat="46.69399" lon="6.52137">
        <ele>550.5</ele>
        <time>2019-12-25T08:29:50.969Z</time>
      </trkpt>
      <trkpt lat="46.69389" lon="6.52134">
        <ele>550</ele>
        <time>2019-12-25T08:29:53.012Z</time>
      </trkpt>
      <trkpt lat="46.69377" lon="6.52126">
        <ele>550</ele>
        <time>2019-12-25T08:29:55.653Z</time>
      </trkpt>
      <trkpt lat="46.69369" lon="6.52118">
        <ele>549.5</ele>
        <time>2019-12-25T08:29:57.595Z</time>
      </trkpt>
      <trkpt lat="46.69362" lon="6.52108">
        <ele>549</ele>
        <time>2019-12-25T08:29:59.557Z</time>
      </trkpt>
      <trkpt lat="46.69353" lon="6.52101">
        <ele>549</ele>
        <time>2019-12-25T08:30:01.599Z</time>
      </trkpt>
      <trkpt lat="46.69341" lon="6.52103">
        <ele>549</ele>
        <time>2019-12-25T08:30:04.016Z</time>
      </trkpt>
      <trkpt lat="46.69335" lon="6.52113">
        <ele>548.6</ele>
        <time>2019-12-25T08:30:05.840Z</time>
      </trkpt>
      <trkpt lat="46.69331" lon="6.52126">
        <ele>548.6</ele>
        <time>2019-12-25T08:30:07.796Z</time>
      </trkpt>
      <trkpt lat="46.69327" lon="6.52139">
        <ele>548.6</ele>
        <time>2019-12-25T08:30:09.752Z</time>
      </trkpt>
      <trkpt lat="46.69323" lon="6.52152">
        <ele>548.1</ele>
        <time>2019-12-25T08:30:11.708Z</time>
      </trkpt>
      <trkpt lat="46.69319" lon="6.52165">
        <ele>548.1</ele>
        <time>2019-12-25T08:30:13.664Z</time>
      </trkpt>
      <trkpt lat="46.69315" lon="6.52178">
        <ele>547.1</ele>
        <time>2019-12-25T08:30:15.620Z</time>
      </trkpt>
      <trkpt lat="46.69311" lon="6.52191">
        <ele>546.7</ele>
        <time>2019-12-25T08:30:17.576Z</time>
      </trkpt>
      <trkpt lat="46.69307" lon="6.52204">
        <ele>546.2</ele>
        <time>2019-12-25T08:30:19.532Z</time>
      </trkpt>
      <trkpt lat="46.69303" lon="6.52217">
        <ele>545.7</ele>
        <time>2019-12-25T08:30:21.488Z</time>
      </trkpt>
      <trkpt lat="46.69298" lon="6.52229">
        <ele>545.2</ele>
        <time>2019-12-25T08:30:23.416Z</time>
      </trkpt>
      <trkpt lat="46.69292" lon="6.52247">
        <ele>544.2</ele>
        <time>2019-12-25T08:30:26.163Z</time>
      </trkpt>
      <trkpt lat="46.69288" lon="6.52259">
        <ele>543.8</ele>
        <time>2019-12-25T08:30:27.995Z</time>
      </trkpt>
      <trkpt lat="46.69284" lon="6.52272">
        <ele>543.3</ele>
        <time>2019-12-25T08:30:29.951Z</time>
      </trkpt>
      <trkpt lat="46.6928" lon="6.52284">
        <ele>543.8</ele>
        <time>2019-12-25T08:30:31.783Z</time>
      </trkpt>
      <trkpt lat="46.69272" lon="6.52299">
        <ele>542.3</ele>
        <time>2019-12-25T08:30:34.392Z</time>
      </trkpt>
      <trkpt lat="46.69259" lon="6.52308">
        <ele>541.4</ele>
        <time>2019-12-25T08:30:37.272Z</time>
      </trkpt>
      <trkpt lat="46.69254" lon="6.52319">
        <ele>541.4</ele>
        <time>2019-12-25T08:30:39.084Z</time>
      </trkpt>
      <trkpt lat="46.69254" lon="6.52335">
        <ele>540.9</ele>
        <time>2019-12-25T08:30:41.281Z</time>
      </trkpt>
      <trkpt lat="46.69253" lon="6.52351">
        <ele>540.4</ele>
        <time>2019-12-25T08:30:43.487Z</time>
      </trkpt>
      <trkpt lat="46.69252" lon="6.52366">
        <ele>540.9</ele>
        <time>2019-12-25T08:30:45.556Z</time>
      </trkpt>
      <trkpt lat="46.69252" lon="6.5238">
        <ele>540.4</ele>
        <time>2019-12-25T08:30:47.478Z</time>
      </trkpt>
      <trkpt lat="46.69247" lon="6.52397">
        <ele>539.9</ele>
        <time>2019-12-25T08:30:50.017Z</time>
      </trkpt>
      <trkpt lat="46.69239" lon="6.52397">
        <ele>540.9</ele>
        <time>2019-12-25T08:30:51.618Z</time>
      </trkpt>
      <trkpt lat="46.69228" lon="6.52392">
        <ele>539.9</ele>
        <time>2019-12-25T08:30:53.924Z</time>
      </trkpt>
      <trkpt lat="46.69218" lon="6.52387">
        <ele>539.4</ele>
        <time>2019-12-25T08:30:56.040Z</time>
      </trkpt>
      <trkpt lat="46.69209" lon="6.52381">
        <ele>539.4</ele>
        <time>2019-12-25T08:30:58.021Z</time>
      </trkpt>
      <trkpt lat="46.692" lon="6.52376">
        <ele>539.4</ele>
        <time>2019-12-25T08:30:59.949Z</time>
      </trkpt>
      <trkpt lat="46.69191" lon="6.52372">
        <ele>539.4</ele>
        <time>2019-12-25T08:31:01.832Z</time>
      </trkpt>
      <trkpt lat="46.6918" lon="6.52366">
        <ele>538</ele>
        <time>2019-12-25T08:31:04.183Z</time>
      </trkpt>
      <trkpt lat="46.6917" lon="6.52361">
        <ele>537.5</ele>
        <time>2019-12-25T08:31:06.299Z</time>
      </trkpt>
      <trkpt lat="46.69159" lon="6.52356">
        <ele>535.6</ele>
        <time>2019-12-25T08:31:08.605Z</time>
      </trkpt>
      <trkpt lat="46.6915" lon="6.52355">
        <ele>535.1</ele>
        <time>2019-12-25T08:31:10.412Z</time>
      </trkpt>
      <trkpt lat="46.69148" lon="6.5234">
        <ele>537</ele>
        <time>2019-12-25T08:31:12.510Z</time>
      </trkpt>
      <trkpt lat="46.69146" lon="6.5232">
        <ele>538</ele>
        <time>2019-12-25T08:31:15.285Z</time>
      </trkpt>
      <trkpt lat="46.69149" lon="6.523">
        <ele>539</ele>
        <time>2019-12-25T08:31:18.096Z</time>
      </trkpt>
      <trkpt lat="46.69159" lon="6.52287">
        <ele>540.4</ele>
        <time>2019-12-25T08:31:20.778Z</time>
      </trkpt>
      <trkpt lat="46.69169" lon="6.52275">
        <ele>541.4</ele>
        <time>2019-12-25T08:31:23.370Z</time>
      </trkpt>
      <trkpt lat="46.69177" lon="6.52262">
        <ele>540.9</ele>
        <time>2019-12-25T08:31:25.768Z</time>
      </trkpt>
      <trkpt lat="46.69184" lon="6.52249">
        <ele>541.8</ele>
        <time>2019-12-25T08:31:28.037Z</time>
      </trkpt>
      <trkpt lat="46.69189" lon="6.52237">
        <ele>542.3</ele>
        <time>2019-12-25T08:31:29.965Z</time>
      </trkpt>
      <trkpt lat="46.69197" lon="6.52225">
        <ele>542.3</ele>
        <time>2019-12-25T08:31:32.262Z</time>
      </trkpt>
      <trkpt lat="46.69197" lon="6.52213">
        <ele>542.8</ele>
        <time>2019-12-25T08:31:33.909Z</time>
      </trkpt>
      <trkpt lat="46.69199" lon="6.52195">
        <ele>543.3</ele>
        <time>2019-12-25T08:31:36.412Z</time>
      </trkpt>
      <trkpt lat="46.69204" lon="6.52176">
        <ele>543.3</ele>
        <time>2019-12-25T08:31:39.206Z</time>
      </trkpt>
      <trkpt lat="46.69213" lon="6.52158">
        <ele>544.2</ele>
        <time>2019-12-25T08:31:42.264Z</time>
      </trkpt>
      <trkpt lat="46.69223" lon="6.52137">
        <ele>545.7</ele>
        <time>2019-12-25T08:31:45.774Z</time>
      </trkpt>
      <trkpt lat="46.69234" lon="6.52118">
        <ele>545.7</ele>
        <time>2019-12-25T08:31:49.187Z</time>
      </trkpt>
      <trkpt lat="46.69244" lon="6.521">
        <ele>547.6</ele>
        <time>2019-12-25T08:31:52.367Z</time>
      </trkpt>
      <trkpt lat="46.69254" lon="6.52083">
        <ele>547.1</ele>
        <time>2019-12-25T08:31:55.442Z</time>
      </trkpt>
      <trkpt lat="46.69262" lon="6.52067">
        <ele>548.1</ele>
        <time>2019-12-25T08:31:58.160Z</time>
      </trkpt>
      <trkpt lat="46.6927" lon="6.52051">
        <ele>547.6</ele>
        <time>2019-12-25T08:32:00.878Z</time>
      </trkpt>
      <trkpt lat="46.69279" lon="6.52035">
        <ele>547.6</ele>
        <time>2019-12-25T08:32:03.719Z</time>
      </trkpt>
      <trkpt lat="46.69285" lon="6.52018">
        <ele>546.7</ele>
        <time>2019-12-25T08:32:06.344Z</time>
      </trkpt>
      <trkpt lat="46.69288" lon="6.51997">
        <ele>546.7</ele>
        <time>2019-12-25T08:32:09.289Z</time>
      </trkpt>
      <trkpt lat="46.69292" lon="6.51975">
        <ele>546.7</ele>
        <time>2019-12-25T08:32:12.414Z</time>
      </trkpt>
      <trkpt lat="46.69297" lon="6.51954">
        <ele>546.7</ele>
        <time>2019-12-25T08:32:15.466Z</time>
      </trkpt>
      <trkpt lat="46.69305" lon="6.51933">
        <ele>547.1</ele>
        <time>2019-12-25T08:32:18.764Z</time>
      </trkpt>
      <trkpt lat="46.69311" lon="6.51914">
        <ele>547.1</ele>
        <time>2019-12-25T08:32:21.636Z</time>
      </trkpt>
      <trkpt lat="46.69318" lon="6.51896">
        <ele>548.1</ele>
        <time>2019-12-25T08:32:24.477Z</time>
      </trkpt>
      <trkpt lat="46.69325" lon="6.5188">
        <ele>548.1</ele>
        <time>2019-12-25T08:32:27.082Z</time>
      </trkpt>
      <trkpt lat="46.69334" lon="6.51869">
        <ele>548.6</ele>
        <time>2019-12-25T08:32:29.433Z</time>
      </trkpt>
      <trkpt lat="46.69344" lon="6.51868">
        <ele>549.5</ele>
        <time>2019-12-25T08:32:31.439Z</time>
      </trkpt>
      <trkpt lat="46.69356" lon="6.5187">
        <ele>550.5</ele>
        <time>2019-12-25T08:32:33.856Z</time>
      </trkpt>
      <trkpt lat="46.6937" lon="6.51871">
        <ele>550.5</ele>
        <time>2019-12-25T08:32:36.661Z</time>
      </trkpt>
      <trkpt lat="46.69385" lon="6.51874">
        <ele>550.5</ele>
        <time>2019-12-25T08:32:39.691Z</time>
      </trkpt>
      <trkpt lat="46.69398" lon="6.5188">
        <ele>550</ele>
        <time>2019-12-25T08:32:42.420Z</time>
      </trkpt>
      <trkpt lat="46.69411" lon="6.51889">
        <ele>550.5</ele>
        <time>2019-12-25T08:32:45.300Z</time>
      </trkpt>
      <trkpt lat="46.69424" lon="6.51899">
        <ele>550</ele>
        <time>2019-12-25T08:32:48.242Z</time>
      </trkpt>
      <trkpt lat="46.69436" lon="6.51909">
        <ele>551</ele>
        <time>2019-12-25T08:32:51.008Z</time>
      </trkpt>
      <trkpt lat="46.69448" lon="6.51918">
        <ele>551</ele>
        <time>2019-12-25T08:32:53.709Z</time>
      </trkpt>
    </trkseg>
  </trk>
</gpx>